<?xml version="1.0" encoding="utf-8"?>
<gpx version="1.1" creator="com.bodunov.GalileoPro/v5.4.1" xmlns:xsi="http://www.w3.org/2001/XMLSchema-instance" xmlns="http://www.topografix.com/GPX/1/1" xmlns:gom="https://gurumaps.app/gpx/v3" xsi:schemaLocation="http://www.topografix.com/GPX/1/1 http://www.topografix.com/GPX/1/1/gpx.xsd https://gurumaps.app/gpx/v3 https://gurumaps.app/gpx/v3/schema.xsd">
 <trk>
  <name>20260425группа10</name>
  <type>TrackStyle_FFD60AC8</type>
  <extensions>
   <gom:time>2026-04-25T08:40:43.873Z</gom:time>
  </extensions>
  <trkseg>
   <trkpt lat="59.0931353459" lon="29.973619657"><ele>80.867</ele><time>2026-04-25T08:40:46.401Z</time><hdop>3.375</hdop><vdop>1.375</vdop><extensions><gom:speed>1.142</gom:speed></extensions></trkpt>
   <trkpt lat="59.0930582324" lon="29.9735147156"><ele>81.572</ele><time>2026-04-25T08:40:52.483Z</time><hdop>3.5</hdop><vdop>1.375</vdop><extensions><gom:speed>1.3</gom:speed><gom:rel_alt>215.999</gom:rel_alt></extensions></trkpt>
   <trkpt lat="59.0929821247" lon="29.973411702"><ele>81.676</ele><time>2026-04-25T08:40:59.211Z</time><hdop>3.0</hdop><vdop>1.5</vdop><extensions><gom:speed>1.267</gom:speed><gom:rel_alt>215.645</gom:rel_alt></extensions></trkpt>
   <trkpt lat="59.0929159496" lon="29.9732851353"><ele>81.677</ele><time>2026-04-25T08:41:05.708Z</time><hdop>3.0</hdop><vdop>1.375</vdop><extensions><gom:speed>1.341</gom:speed><gom:rel_alt>216.483</gom:rel_alt></extensions></trkpt>
   <trkpt lat="59.0928602519" lon="29.9731419724"><ele>82.183</ele><time>2026-04-25T08:41:12.422Z</time><hdop>3.0</hdop><vdop>1.625</vdop><extensions><gom:speed>1.248</gom:speed><gom:rel_alt>216.126</gom:rel_alt></extensions></trkpt>
   <trkpt lat="59.0928033387" lon="29.9729943671"><ele>82.512</ele><time>2026-04-25T08:41:19.338Z</time><hdop>3.0</hdop><vdop>1.75</vdop><extensions><gom:speed>1.28</gom:speed><gom:rel_alt>216.263</gom:rel_alt></extensions></trkpt>
   <trkpt lat="59.0927364512" lon="29.9728533835"><ele>82.823</ele><time>2026-04-25T08:41:26.445Z</time><hdop>3.0</hdop><vdop>1.75</vdop><extensions><gom:speed>1.299</gom:speed><gom:rel_alt>215.878</gom:rel_alt></extensions></trkpt>
   <trkpt lat="59.092684651" lon="29.9726999108"><ele>84.119</ele><time>2026-04-25T08:41:33.617Z</time><hdop>3.0</hdop><vdop>1.875</vdop><extensions><gom:speed>1.301</gom:speed><gom:rel_alt>216.757</gom:rel_alt></extensions></trkpt>
   <trkpt lat="59.0926290371" lon="29.9725588434"><ele>85.965</ele><time>2026-04-25T08:41:40.982Z</time><hdop>3.0</hdop><vdop>2.0</vdop><extensions><gom:speed>1.294</gom:speed><gom:rel_alt>217.148</gom:rel_alt></extensions></trkpt>
   <trkpt lat="59.0925967248" lon="29.9723846674"><ele>85.974</ele><time>2026-04-25T08:41:47.966Z</time><hdop>3.0</hdop><vdop>2.375</vdop><extensions><gom:speed>1.361</gom:speed><gom:rel_alt>217.629</gom:rel_alt></extensions></trkpt>
   <trkpt lat="59.0925425358" lon="29.9722347152"><ele>85.974</ele><time>2026-04-25T08:41:55.386Z</time><hdop>3.375</hdop><vdop>2.625</vdop><extensions><gom:speed>1.308</gom:speed><gom:rel_alt>217.809</gom:rel_alt></extensions></trkpt>
   <trkpt lat="59.0924462278" lon="29.9722379841"><ele>85.974</ele><time>2026-04-25T08:42:02.665Z</time><hdop>4.75</hdop><vdop>3.0</vdop><extensions><gom:speed>1.322</gom:speed><gom:rel_alt>218.131</gom:rel_alt></extensions></trkpt>
   <trkpt lat="59.0923552422" lon="29.9722386547"><ele>85.975</ele><time>2026-04-25T08:42:09.381Z</time><hdop>3.125</hdop><vdop>3.125</vdop><extensions><gom:speed>1.35</gom:speed><gom:rel_alt>218.586</gom:rel_alt></extensions></trkpt>
   <trkpt lat="59.0922663521" lon="29.972194985"><ele>85.975</ele><time>2026-04-25T08:42:16.346Z</time><hdop>3.0</hdop><vdop>3.375</vdop><extensions><gom:speed>1.404</gom:speed><gom:rel_alt>218.747</gom:rel_alt></extensions></trkpt>
   <trkpt lat="59.0921786355" lon="29.9721328751"><ele>85.975</ele><time>2026-04-25T08:42:23.366Z</time><hdop>3.0</hdop><vdop>3.875</vdop><extensions><gom:speed>1.392</gom:speed><gom:rel_alt>219.423</gom:rel_alt></extensions></trkpt>
   <trkpt lat="59.0920925534" lon="29.9720788956"><ele>85.975</ele><time>2026-04-25T08:42:29.885Z</time><hdop>3.0</hdop><vdop>4.375</vdop><extensions><gom:speed>1.443</gom:speed><gom:rel_alt>219.365</gom:rel_alt></extensions></trkpt>
   <trkpt lat="59.092007938" lon="29.9720063083"><ele>85.975</ele><time>2026-04-25T08:42:36.487Z</time><hdop>3.0</hdop><vdop>5.0</vdop><extensions><gom:speed>1.406</gom:speed><gom:rel_alt>219.334</gom:rel_alt></extensions></trkpt>
   <trkpt lat="59.091919048" lon="29.9719386664"><ele>85.975</ele><time>2026-04-25T08:42:43.364Z</time><hdop>3.0</hdop><vdop>5.375</vdop><extensions><gom:speed>1.431</gom:speed><gom:rel_alt>219.458</gom:rel_alt></extensions></trkpt>
   <trkpt lat="59.091838917" lon="29.9718584516"><ele>85.975</ele><time>2026-04-25T08:42:49.862Z</time><hdop>3.0</hdop><vdop>5.75</vdop><extensions><gom:speed>1.383</gom:speed><gom:rel_alt>219.875</gom:rel_alt></extensions></trkpt>
   <trkpt lat="59.0917536311" lon="29.9717782367"><ele>85.975</ele><time>2026-04-25T08:42:56.362Z</time><hdop>3.0</hdop><vdop>4.5</vdop><extensions><gom:speed>1.41</gom:speed><gom:rel_alt>219.653</gom:rel_alt></extensions></trkpt>
   <trkpt lat="59.0916718237" lon="29.9716916517"><ele>85.975</ele><time>2026-04-25T08:43:03.004Z</time><hdop>3.0</hdop><vdop>4.875</vdop><extensions><gom:speed>1.418</gom:speed><gom:rel_alt>219.83</gom:rel_alt></extensions></trkpt>
   <trkpt lat="59.0915852387" lon="29.9716193159"><ele>85.975</ele><time>2026-04-25T08:43:10.526Z</time><hdop>3.0</hdop><vdop>3.375</vdop><extensions><gom:speed>1.293</gom:speed><gom:rel_alt>218.845</gom:rel_alt></extensions></trkpt>
   <trkpt lat="59.0914847396" lon="29.9716484849"><ele>86.212</ele><time>2026-04-25T08:43:30.620Z</time><hdop>3.0</hdop><vdop>2.75</vdop><extensions><gom:speed>0.638</gom:speed><gom:rel_alt>220.33</gom:rel_alt></extensions></trkpt>
   <trkpt lat="59.0913908204" lon="29.9716725409"><ele>86.908</ele><time>2026-04-25T08:43:37.984Z</time><hdop>3.125</hdop><vdop>2.75</vdop><extensions><gom:speed>1.222</gom:speed><gom:rel_alt>220.805</gom:rel_alt></extensions></trkpt>
   <trkpt lat="59.0912960211" lon="29.971681761"><ele>87.177</ele><time>2026-04-25T08:43:46.346Z</time><hdop>3.0</hdop><vdop>2.5</vdop><extensions><gom:speed>1.313</gom:speed><gom:rel_alt>220.502</gom:rel_alt></extensions></trkpt>
   <trkpt lat="59.0912064186" lon="29.9716594652"><ele>87.121</ele><time>2026-04-25T08:43:53.079Z</time><hdop>3.0</hdop><vdop>2.25</vdop><extensions><gom:speed>1.342</gom:speed><gom:rel_alt>220.396</gom:rel_alt></extensions></trkpt>
   <trkpt lat="59.0911136309" lon="29.9716074974"><ele>86.946</ele><time>2026-04-25T08:44:01.220Z</time><hdop>3.0</hdop><vdop>2.25</vdop><extensions><gom:speed>1.39</gom:speed><gom:rel_alt>220.203</gom:rel_alt></extensions></trkpt>
   <trkpt lat="59.0910284288" lon="29.9715485726"><ele>86.737</ele><time>2026-04-25T08:44:08.344Z</time><hdop>3.0</hdop><vdop>2.125</vdop><extensions><gom:speed>1.352</gom:speed><gom:rel_alt>220.251</gom:rel_alt></extensions></trkpt>
   <trkpt lat="59.0909397483" lon="29.97147104"><ele>86.913</ele><time>2026-04-25T08:44:15.402Z</time><hdop>3.0</hdop><vdop>2.125</vdop><extensions><gom:speed>1.387</gom:speed><gom:rel_alt>220.364</gom:rel_alt></extensions></trkpt>
   <trkpt lat="59.0908519479" lon="29.9714002129"><ele>87.051</ele><time>2026-04-25T08:44:22.586Z</time><hdop>3.0</hdop><vdop>2.125</vdop><extensions><gom:speed>1.347</gom:speed><gom:rel_alt>220.502</gom:rel_alt></extensions></trkpt>
   <trkpt lat="59.090764818" lon="29.9713142146"><ele>86.824</ele><time>2026-04-25T08:44:30.498Z</time><hdop>3.0</hdop><vdop>2.0</vdop><extensions><gom:speed>1.309</gom:speed><gom:rel_alt>220.549</gom:rel_alt></extensions></trkpt>
   <trkpt lat="59.0906737486" lon="29.9712620791"><ele>86.642</ele><time>2026-04-25T08:44:38.345Z</time><hdop>3.0</hdop><vdop>2.125</vdop><extensions><gom:speed>1.293</gom:speed><gom:rel_alt>220.338</gom:rel_alt></extensions></trkpt>
   <trkpt lat="59.090592528" lon="29.9711776734"><ele>86.904</ele><time>2026-04-25T08:44:46.364Z</time><hdop>3.0</hdop><vdop>2.25</vdop><extensions><gom:speed>1.246</gom:speed><gom:rel_alt>221.099</gom:rel_alt></extensions></trkpt>
   <trkpt lat="59.0905116426" lon="29.9710922618"><ele>87.193</ele><time>2026-04-25T08:44:54.220Z</time><hdop>3.0</hdop><vdop>2.125</vdop><extensions><gom:speed>1.335</gom:speed><gom:rel_alt>220.766</gom:rel_alt></extensions></trkpt>
   <trkpt lat="59.0904213276" lon="29.9710253742"><ele>87.168</ele><time>2026-04-25T08:45:02.059Z</time><hdop>3.0</hdop><vdop>2.125</vdop><extensions><gom:speed>1.337</gom:speed><gom:rel_alt>220.853</gom:rel_alt></extensions></trkpt>
   <trkpt lat="59.0903283304" lon="29.9709685449"><ele>87.229</ele><time>2026-04-25T08:45:10.503Z</time><hdop>3.0</hdop><vdop>2.125</vdop><extensions><gom:speed>1.287</gom:speed><gom:rel_alt>221.257</gom:rel_alt></extensions></trkpt>
   <trkpt lat="59.0902371353" lon="29.9709133082"><ele>87.345</ele><time>2026-04-25T08:45:18.230Z</time><hdop>3.0</hdop><vdop>2.25</vdop><extensions><gom:speed>1.285</gom:speed><gom:rel_alt>220.766</gom:rel_alt></extensions></trkpt>
   <trkpt lat="59.0901433418" lon="29.9708481808"><ele>86.526</ele><time>2026-04-25T08:45:26.482Z</time><hdop>3.0</hdop><vdop>2.25</vdop><extensions><gom:speed>1.287</gom:speed><gom:rel_alt>220.94</gom:rel_alt></extensions></trkpt>
   <trkpt lat="59.09005244" lon="29.9707890883"><ele>86.741</ele><time>2026-04-25T08:45:34.385Z</time><hdop>3.0</hdop><vdop>2.25</vdop><extensions><gom:speed>1.278</gom:speed><gom:rel_alt>221.101</gom:rel_alt></extensions></trkpt>
   <trkpt lat="59.0899671542" lon="29.9707213626"><ele>87.299</ele><time>2026-04-25T08:45:42.422Z</time><hdop>3.0</hdop><vdop>2.375</vdop><extensions><gom:speed>1.287</gom:speed><gom:rel_alt>221.115</gom:rel_alt></extensions></trkpt>
   <trkpt lat="59.0898788508" lon="29.9706488591"><ele>87.377</ele><time>2026-04-25T08:45:50.460Z</time><hdop>3.0</hdop><vdop>2.375</vdop><extensions><gom:speed>1.263</gom:speed><gom:rel_alt>220.671</gom:rel_alt></extensions></trkpt>
   <trkpt lat="59.0897874462" lon="29.9706178461"><ele>87.318</ele><time>2026-04-25T08:45:58.458Z</time><hdop>3.0</hdop><vdop>2.25</vdop><extensions><gom:speed>1.256</gom:speed><gom:rel_alt>221.569</gom:rel_alt></extensions></trkpt>
   <trkpt lat="59.0896968378" lon="29.9706849013"><ele>87.687</ele><time>2026-04-25T08:46:06.302Z</time><hdop>4.0</hdop><vdop>2.25</vdop><extensions><gom:speed>1.305</gom:speed><gom:rel_alt>221.196</gom:rel_alt></extensions></trkpt>
   <trkpt lat="59.0896566466" lon="29.9708551377"><ele>87.488</ele><time>2026-04-25T08:46:13.280Z</time><hdop>8.375</hdop><vdop>2.375</vdop><extensions><gom:speed>1.393</gom:speed><gom:rel_alt>221.569</gom:rel_alt></extensions></trkpt>
   <trkpt lat="59.0866720185" lon="29.9699126765"><ele>88.966</ele><time>2026-04-25T08:50:25.012Z</time><hdop>26.375</hdop><vdop>2.375</vdop><extensions><gom:speed>1.278</gom:speed><gom:rel_alt>224.013</gom:rel_alt></extensions></trkpt>
   <trkpt lat="59.0865833379" lon="29.9698510696"><ele>89.04</ele><time>2026-04-25T08:50:26.013Z</time><hdop>18.5</hdop><vdop>2.75</vdop><extensions><gom:speed>1.133</gom:speed><gom:rel_alt>223.646</gom:rel_alt></extensions></trkpt>
   <trkpt lat="59.086491137" lon="29.9698705994"><ele>89.705</ele><time>2026-04-25T08:50:36.061Z</time><hdop>4.5</hdop><vdop>2.625</vdop><extensions><gom:speed>1.19</gom:speed><gom:rel_alt>222.84</gom:rel_alt></extensions></trkpt>
   <trkpt lat="59.0864036299" lon="29.9697977607"><ele>89.699</ele><time>2026-04-25T08:50:43.337Z</time><hdop>3.25</hdop><vdop>2.375</vdop><extensions><gom:speed>1.273</gom:speed><gom:rel_alt>223.717</gom:rel_alt></extensions></trkpt>
   <trkpt lat="59.0863132311" lon="29.9697851878"><ele>89.7</ele><time>2026-04-25T08:50:51.618Z</time><hdop>3.0</hdop><vdop>2.625</vdop><extensions><gom:speed>1.261</gom:speed><gom:rel_alt>223.199</gom:rel_alt></extensions></trkpt>
   <trkpt lat="59.0862214493" lon="29.9697703518"><ele>89.822</ele><time>2026-04-25T08:51:00.246Z</time><hdop>3.0</hdop><vdop>2.5</vdop><extensions><gom:speed>1.224</gom:speed><gom:rel_alt>223.572</gom:rel_alt></extensions></trkpt>
   <trkpt lat="59.086186832" lon="29.9699330446"><ele>89.62</ele><time>2026-04-25T08:51:09.618Z</time><hdop>3.0</hdop><vdop>2.75</vdop><extensions><gom:speed>1.082</gom:speed><gom:rel_alt>222.327</gom:rel_alt></extensions></trkpt>
   <trkpt lat="59.0861110177" lon="29.9698322103"><ele>87.896</ele><time>2026-04-25T08:51:30.483Z</time><hdop>3.0</hdop><vdop>2.75</vdop><extensions><gom:speed>1.094</gom:speed><gom:rel_alt>222.814</gom:rel_alt></extensions></trkpt>
   <trkpt lat="59.0860324374" lon="29.9697445356"><ele>88.935</ele><time>2026-04-25T08:51:40.200Z</time><hdop>3.0</hdop><vdop>2.5</vdop><extensions><gom:speed>1.269</gom:speed><gom:rel_alt>223.123</gom:rel_alt></extensions></trkpt>
   <trkpt lat="59.0859431282" lon="29.9697971739"><ele>89.007</ele><time>2026-04-25T08:51:48.528Z</time><hdop>3.0</hdop><vdop>2.5</vdop><extensions><gom:speed>1.242</gom:speed><gom:rel_alt>222.555</gom:rel_alt></extensions></trkpt>
   <trkpt lat="59.0858754443" lon="29.9696795758"><ele>89.009</ele><time>2026-04-25T08:51:58.581Z</time><hdop>3.0</hdop><vdop>2.5</vdop><extensions><gom:speed>1.162</gom:speed><gom:rel_alt>223.189</gom:rel_alt></extensions></trkpt>
   <trkpt lat="59.0857974507" lon="29.9695924878"><ele>89.194</ele><time>2026-04-25T08:52:07.682Z</time><hdop>3.0</hdop><vdop>2.5</vdop><extensions><gom:speed>1.177</gom:speed><gom:rel_alt>223.276</gom:rel_alt></extensions></trkpt>
   <trkpt lat="59.0857105304" lon="29.9695350718"><ele>89.36</ele><time>2026-04-25T08:52:15.982Z</time><hdop>3.0</hdop><vdop>2.75</vdop><extensions><gom:speed>1.274</gom:speed><gom:rel_alt>224.317</gom:rel_alt></extensions></trkpt>
   <trkpt lat="59.0856280524" lon="29.9694420327"><ele>89.888</ele><time>2026-04-25T08:52:23.424Z</time><hdop>3.0</hdop><vdop>2.5</vdop><extensions><gom:speed>1.274</gom:speed><gom:rel_alt>223.622</gom:rel_alt></extensions></trkpt>
   <trkpt lat="59.0855388271" lon="29.9693784979"><ele>89.586</ele><time>2026-04-25T08:52:30.803Z</time><hdop>3.0</hdop><vdop>3.125</vdop><extensions><gom:speed>1.231</gom:speed><gom:rel_alt>222.465</gom:rel_alt></extensions></trkpt>
   <trkpt lat="59.0854497275" lon="29.9693399411"><ele>89.099</ele><time>2026-04-25T08:52:37.803Z</time><hdop>3.0</hdop><vdop>2.625</vdop><extensions><gom:speed>1.246</gom:speed><gom:rel_alt>222.935</gom:rel_alt></extensions></trkpt>
   <trkpt lat="59.085358239" lon="29.969343713"><ele>89.094</ele><time>2026-04-25T08:52:45.243Z</time><hdop>3.0</hdop><vdop>2.875</vdop><extensions><gom:speed>1.268</gom:speed><gom:rel_alt>223.818</gom:rel_alt></extensions></trkpt>
   <trkpt lat="59.0852681335" lon="29.969346479"><ele>89.61</ele><time>2026-04-25T08:52:52.099Z</time><hdop>3.0</hdop><vdop>2.0</vdop><extensions><gom:speed>1.312</gom:speed><gom:rel_alt>223.781</gom:rel_alt></extensions></trkpt>
   <trkpt lat="59.0851772318" lon="29.9693034798"><ele>89.524</ele><time>2026-04-25T08:52:59.785Z</time><hdop>3.0</hdop><vdop>1.75</vdop><extensions><gom:speed>1.287</gom:speed><gom:rel_alt>223.886</gom:rel_alt></extensions></trkpt>
   <trkpt lat="59.0850824325" lon="29.9692930863"><ele>89.433</ele><time>2026-04-25T08:53:07.043Z</time><hdop>3.0</hdop><vdop>2.25</vdop><extensions><gom:speed>1.286</gom:speed><gom:rel_alt>223.21</gom:rel_alt></extensions></trkpt>
   <trkpt lat="59.0849915307" lon="29.9692849558"><ele>89.22</ele><time>2026-04-25T08:53:14.301Z</time><hdop>3.0</hdop><vdop>2.375</vdop><extensions><gom:speed>1.326</gom:speed><gom:rel_alt>222.732</gom:rel_alt></extensions></trkpt>
   <trkpt lat="59.0848968571" lon="29.9692324013"><ele>88.411</ele><time>2026-04-25T08:53:21.854Z</time><hdop>3.0</hdop><vdop>2.75</vdop><extensions><gom:speed>1.33</gom:speed><gom:rel_alt>223.453</gom:rel_alt></extensions></trkpt>
   <trkpt lat="59.0848065421" lon="29.9692133744"><ele>88.879</ele><time>2026-04-25T08:53:29.138Z</time><hdop>3.0</hdop><vdop>2.5</vdop><extensions><gom:speed>1.313</gom:speed><gom:rel_alt>222.51</gom:rel_alt></extensions></trkpt>
   <trkpt lat="59.0847154308" lon="29.9692173139"><ele>88.559</ele><time>2026-04-25T08:53:36.823Z</time><hdop>3.0</hdop><vdop>1.75</vdop><extensions><gom:speed>1.309</gom:speed><gom:rel_alt>222.906</gom:rel_alt></extensions></trkpt>
   <trkpt lat="59.0846168177" lon="29.9692453932"><ele>88.625</ele><time>2026-04-25T08:53:44.156Z</time><hdop>3.0</hdop><vdop>2.0</vdop><extensions><gom:speed>1.343</gom:speed><gom:rel_alt>223.672</gom:rel_alt></extensions></trkpt>
   <trkpt lat="59.0845225213" lon="29.9692544457"><ele>89.022</ele><time>2026-04-25T08:53:52.618Z</time><hdop>3.0</hdop><vdop>2.625</vdop><extensions><gom:speed>1.106</gom:speed><gom:rel_alt>222.821</gom:rel_alt></extensions></trkpt>
   <trkpt lat="59.0844298175" lon="29.9692476564"><ele>87.93</ele><time>2026-04-25T08:54:11.221Z</time><hdop>3.0</hdop><vdop>1.875</vdop><extensions><gom:speed>1.369</gom:speed><gom:rel_alt>221.934</gom:rel_alt></extensions></trkpt>
   <trkpt lat="59.0843770534" lon="29.9690946028"><ele>87.769</ele><time>2026-04-25T08:54:17.023Z</time><hdop>3.0</hdop><vdop>1.75</vdop><extensions><gom:speed>1.393</gom:speed><gom:rel_alt>222.713</gom:rel_alt></extensions></trkpt>
   <trkpt lat="59.0843044242" lon="29.9689900805"><ele>88.375</ele><time>2026-04-25T08:54:23.904Z</time><hdop>3.0</hdop><vdop>1.75</vdop><extensions><gom:speed>1.301</gom:speed><gom:rel_alt>222.742</gom:rel_alt></extensions></trkpt>
   <trkpt lat="59.0842118461" lon="29.96903199"><ele>88.127</ele><time>2026-04-25T08:54:30.258Z</time><hdop>3.0</hdop><vdop>1.625</vdop><extensions><gom:speed>1.293</gom:speed><gom:rel_alt>222.724</gom:rel_alt></extensions></trkpt>
   <trkpt lat="59.0841389235" lon="29.9689253722"><ele>88.373</ele><time>2026-04-25T08:54:38.416Z</time><hdop>3.0</hdop><vdop>1.75</vdop><extensions><gom:speed>1.266</gom:speed><gom:rel_alt>223.511</gom:rel_alt></extensions></trkpt>
   <trkpt lat="59.0840395561" lon="29.9689294793"><ele>89.119</ele><time>2026-04-25T08:54:47.204Z</time><hdop>3.0</hdop><vdop>2.125</vdop><extensions><gom:speed>1.261</gom:speed><gom:rel_alt>223.421</gom:rel_alt></extensions></trkpt>
   <trkpt lat="59.0839537254" lon="29.9689825368"><ele>88.84</ele><time>2026-04-25T08:54:55.603Z</time><hdop>3.0</hdop><vdop>2.125</vdop><extensions><gom:speed>1.167</gom:speed><gom:rel_alt>222.581</gom:rel_alt></extensions></trkpt>
   <trkpt lat="59.0839548569" lon="29.9691593949"><ele>88.404</ele><time>2026-04-25T08:55:03.618Z</time><hdop>3.0</hdop><vdop>2.125</vdop><extensions><gom:speed>0.875</gom:speed><gom:rel_alt>222.747</gom:rel_alt></extensions></trkpt>
   <trkpt lat="59.0838966446" lon="29.9690196686"><ele>88.174</ele><time>2026-04-25T08:55:12.044Z</time><hdop>3.0</hdop><vdop>1.75</vdop><extensions><gom:speed>1.119</gom:speed><gom:rel_alt>222.087</gom:rel_alt></extensions></trkpt>
   <trkpt lat="59.0838048209" lon="29.9689848837"><ele>87.795</ele><time>2026-04-25T08:55:20.063Z</time><hdop>3.0</hdop><vdop>2.5</vdop><extensions><gom:speed>1.263</gom:speed><gom:rel_alt>222.824</gom:rel_alt></extensions></trkpt>
   <trkpt lat="59.0837109436" lon="29.9689607438"><ele>88.524</ele><time>2026-04-25T08:55:27.064Z</time><hdop>3.0</hdop><vdop>1.875</vdop><extensions><gom:speed>1.292</gom:speed><gom:rel_alt>223.088</gom:rel_alt></extensions></trkpt>
   <trkpt lat="59.0836147193" lon="29.9689119611"><ele>88.727</ele><time>2026-04-25T08:55:34.444Z</time><hdop>3.0</hdop><vdop>1.75</vdop><extensions><gom:speed>1.305</gom:speed><gom:rel_alt>222.753</gom:rel_alt></extensions></trkpt>
   <trkpt lat="59.0835256197" lon="29.968853204"><ele>87.884</ele><time>2026-04-25T08:55:41.618Z</time><hdop>3.0</hdop><vdop>1.5</vdop><extensions><gom:speed>1.277</gom:speed><gom:rel_alt>222.599</gom:rel_alt></extensions></trkpt>
   <trkpt lat="59.0834339217" lon="29.968862005"><ele>88.176</ele><time>2026-04-25T08:55:49.559Z</time><hdop>3.0</hdop><vdop>1.875</vdop><extensions><gom:speed>1.231</gom:speed><gom:rel_alt>222.621</gom:rel_alt></extensions></trkpt>
   <trkpt lat="59.0833451573" lon="29.968824035"><ele>88.384</ele><time>2026-04-25T08:55:59.543Z</time><hdop>3.0</hdop><vdop>2.125</vdop><extensions><gom:speed>0.928</gom:speed><gom:rel_alt>222.666</gom:rel_alt></extensions></trkpt>
   <trkpt lat="59.0832579436" lon="29.9688962032"><ele>88.497</ele><time>2026-04-25T08:56:08.318Z</time><hdop>3.0</hdop><vdop>1.875</vdop><extensions><gom:speed>1.099</gom:speed><gom:rel_alt>222.158</gom:rel_alt></extensions></trkpt>
   <trkpt lat="59.0831676286" lon="29.9689034116"><ele>87.662</ele><time>2026-04-25T08:56:17.125Z</time><hdop>3.0</hdop><vdop>1.375</vdop><extensions><gom:speed>1.101</gom:speed><gom:rel_alt>223.091</gom:rel_alt></extensions></trkpt>
   <trkpt lat="59.083084522" lon="29.9688195926"><ele>87.81</ele><time>2026-04-25T08:56:27.619Z</time><hdop>3.0</hdop><vdop>1.625</vdop><extensions><gom:speed>1.069</gom:speed><gom:rel_alt>222.562</gom:rel_alt></extensions></trkpt>
   <trkpt lat="59.0829965539" lon="29.9687674571"><ele>87.27</ele><time>2026-04-25T08:56:37.520Z</time><hdop>3.0</hdop><vdop>1.375</vdop><extensions><gom:speed>1.004</gom:speed><gom:rel_alt>222.726</gom:rel_alt></extensions></trkpt>
   <trkpt lat="59.0829039339" lon="29.9687601649"><ele>88.348</ele><time>2026-04-25T08:56:47.343Z</time><hdop>3.0</hdop><vdop>2.5</vdop><extensions><gom:speed>1.101</gom:speed><gom:rel_alt>222.552</gom:rel_alt></extensions></trkpt>
   <trkpt lat="59.082822839" lon="29.968860161"><ele>88.021</ele><time>2026-04-25T08:56:55.323Z</time><hdop>3.0</hdop><vdop>1.875</vdop><extensions><gom:speed>1.086</gom:speed><gom:rel_alt>222.296</gom:rel_alt></extensions></trkpt>
   <trkpt lat="59.0827392295" lon="29.9689359334"><ele>87.641</ele><time>2026-04-25T08:57:04.299Z</time><hdop>3.0</hdop><vdop>1.875</vdop><extensions><gom:speed>1.123</gom:speed><gom:rel_alt>221.791</gom:rel_alt></extensions></trkpt>
   <trkpt lat="59.0826467352" lon="29.9689477519"><ele>86.611</ele><time>2026-04-25T08:57:24.620Z</time><hdop>3.0</hdop><vdop>1.5</vdop><extensions><gom:speed>1.09</gom:speed><gom:rel_alt>222.425</gom:rel_alt></extensions></trkpt>
   <trkpt lat="59.0825542409" lon="29.96898195"><ele>86.573</ele><time>2026-04-25T08:57:36.780Z</time><hdop>3.0</hdop><vdop>1.375</vdop><extensions><gom:speed>1.17</gom:speed><gom:rel_alt>221.788</gom:rel_alt></extensions></trkpt>
   <trkpt lat="59.0824596511" lon="29.9689899966"><ele>86.192</ele><time>2026-04-25T08:57:45.937Z</time><hdop>3.0</hdop><vdop>1.375</vdop><extensions><gom:speed>1.138</gom:speed><gom:rel_alt>222.335</gom:rel_alt></extensions></trkpt>
   <trkpt lat="59.0823655224" lon="29.9689856381"><ele>86.041</ele><time>2026-04-25T08:57:54.838Z</time><hdop>3.0</hdop><vdop>1.375</vdop><extensions><gom:speed>1.072</gom:speed><gom:rel_alt>221.58</gom:rel_alt></extensions></trkpt>
   <trkpt lat="59.0822709326" lon="29.9690159805"><ele>86.23</ele><time>2026-04-25T08:58:04.025Z</time><hdop>3.0</hdop><vdop>1.5</vdop><extensions><gom:speed>1.12</gom:speed><gom:rel_alt>221.58</gom:rel_alt></extensions></trkpt>
   <trkpt lat="59.0821809529" lon="29.9690001388"><ele>85.856</ele><time>2026-04-25T08:58:14.621Z</time><hdop>3.0</hdop><vdop>1.5</vdop><extensions><gom:speed>1.035</gom:speed><gom:rel_alt>221.905</gom:rel_alt></extensions></trkpt>
   <trkpt lat="59.082090554" lon="29.9690096103"><ele>85.574</ele><time>2026-04-25T08:58:24.145Z</time><hdop>3.0</hdop><vdop>1.5</vdop><extensions><gom:speed>1.181</gom:speed><gom:rel_alt>222.261</gom:rel_alt></extensions></trkpt>
   <trkpt lat="59.081995629" lon="29.9690312356"><ele>86.066</ele><time>2026-04-25T08:58:33.503Z</time><hdop>3.0</hdop><vdop>1.375</vdop><extensions><gom:speed>1.163</gom:speed><gom:rel_alt>221.487</gom:rel_alt></extensions></trkpt>
   <trkpt lat="59.0819010392" lon="29.9690480832"><ele>84.852</ele><time>2026-04-25T08:58:42.518Z</time><hdop>3.0</hdop><vdop>1.875</vdop><extensions><gom:speed>1.208</gom:speed><gom:rel_alt>221.4</gom:rel_alt></extensions></trkpt>
   <trkpt lat="59.0818124425" lon="29.9690814432"><ele>84.424</ele><time>2026-04-25T08:58:50.545Z</time><hdop>3.0</hdop><vdop>1.625</vdop><extensions><gom:speed>1.174</gom:speed><gom:rel_alt>221.017</gom:rel_alt></extensions></trkpt>
   <trkpt lat="59.0817150448" lon="29.9690760788"><ele>84.063</ele><time>2026-04-25T08:58:59.618Z</time><hdop>3.0</hdop><vdop>1.875</vdop><extensions><gom:speed>1.114</gom:speed><gom:rel_alt>221.281</gom:rel_alt></extensions></trkpt>
   <trkpt lat="59.0816215446" lon="29.9690944352"><ele>84.452</ele><time>2026-04-25T08:59:08.899Z</time><hdop>3.0</hdop><vdop>1.5</vdop><extensions><gom:speed>1.189</gom:speed><gom:rel_alt>220.628</gom:rel_alt></extensions></trkpt>
   <trkpt lat="59.0815311458" lon="29.9691345845"><ele>83.929</ele><time>2026-04-25T08:59:17.184Z</time><hdop>3.0</hdop><vdop>1.625</vdop><extensions><gom:speed>1.114</gom:speed><gom:rel_alt>221.202</gom:rel_alt></extensions></trkpt>
   <trkpt lat="59.0814443512" lon="29.9690633383"><ele>84.001</ele><time>2026-04-25T08:59:29.523Z</time><hdop>3.0</hdop><vdop>1.625</vdop><extensions><gom:speed>1.132</gom:speed><gom:rel_alt>220.391</gom:rel_alt></extensions></trkpt>
   <trkpt lat="59.0813598197" lon="29.9689937685"><ele>83.841</ele><time>2026-04-25T08:59:37.425Z</time><hdop>3.0</hdop><vdop>1.625</vdop><extensions><gom:speed>1.285</gom:speed><gom:rel_alt>220.198</gom:rel_alt></extensions></trkpt>
   <trkpt lat="59.0812700495" lon="29.96897734"><ele>83.251</ele><time>2026-04-25T08:59:45.537Z</time><hdop>3.0</hdop><vdop>1.5</vdop><extensions><gom:speed>1.135</gom:speed><gom:rel_alt>220.882</gom:rel_alt></extensions></trkpt>
   <trkpt lat="59.0811823329" lon="29.968917577"><ele>83.456</ele><time>2026-04-25T08:59:54.764Z</time><hdop>3.0</hdop><vdop>1.625</vdop><extensions><gom:speed>1.094</gom:speed><gom:rel_alt>219.941</gom:rel_alt></extensions></trkpt>
   <trkpt lat="59.0810907187" lon="29.9689336703"><ele>82.518</ele><time>2026-04-25T09:00:04.620Z</time><hdop>3.0</hdop><vdop>1.625</vdop><extensions><gom:speed>0.773</gom:speed><gom:rel_alt>220.303</gom:rel_alt></extensions></trkpt>
   <trkpt lat="59.0809988531" lon="29.9689224385"><ele>82.808</ele><time>2026-04-25T09:00:12.620Z</time><hdop>3.0</hdop><vdop>1.5</vdop><extensions><gom:speed>1.164</gom:speed><gom:rel_alt>220.531</gom:rel_alt></extensions></trkpt>
   <trkpt lat="59.0809026288" lon="29.9689172417"><ele>83.186</ele><time>2026-04-25T09:00:26.619Z</time><hdop>3.0</hdop><vdop>1.875</vdop><extensions><gom:speed>0.936</gom:speed><gom:rel_alt>220.882</gom:rel_alt></extensions></trkpt>
   <trkpt lat="59.080819145" lon="29.9689956963"><ele>82.05</ele><time>2026-04-25T09:00:36.978Z</time><hdop>3.0</hdop><vdop>1.625</vdop><extensions><gom:speed>1.153</gom:speed><gom:rel_alt>219.984</gom:rel_alt></extensions></trkpt>
   <trkpt lat="59.0807467254" lon="29.9688841332"><ele>80.399</ele><time>2026-04-25T09:00:46.240Z</time><hdop>3.0</hdop><vdop>1.625</vdop><extensions><gom:speed>1.169</gom:speed><gom:rel_alt>220.795</gom:rel_alt></extensions></trkpt>
   <trkpt lat="59.08066123" lon="29.9688135576"><ele>80.001</ele><time>2026-04-25T09:00:56.620Z</time><hdop>3.0</hdop><vdop>1.5</vdop><extensions><gom:speed>0.928</gom:speed><gom:rel_alt>220.274</gom:rel_alt></extensions></trkpt>
   <trkpt lat="59.0805714179" lon="29.9687748332"><ele>79.275</ele><time>2026-04-25T09:01:05.999Z</time><hdop>3.0</hdop><vdop>1.625</vdop><extensions><gom:speed>1.018</gom:speed><gom:rel_alt>219.598</gom:rel_alt></extensions></trkpt>
   <trkpt lat="59.0804783369" lon="29.9687778507"><ele>78.92</ele><time>2026-04-25T09:01:15.538Z</time><hdop>3.0</hdop><vdop>1.5</vdop><extensions><gom:speed>0.985</gom:speed><gom:rel_alt>220.562</gom:rel_alt></extensions></trkpt>
   <trkpt lat="59.0803860521" lon="29.9688087799"><ele>79.3</ele><time>2026-04-25T09:01:26.619Z</time><hdop>3.0</hdop><vdop>1.5</vdop><extensions><gom:speed>0.953</gom:speed><gom:rel_alt>220.303</gom:rel_alt></extensions></trkpt>
   <trkpt lat="59.0802954437" lon="29.968831914"><ele>79.273</ele><time>2026-04-25T09:01:40.957Z</time><hdop>3.0</hdop><vdop>1.5</vdop><extensions><gom:speed>0.784</gom:speed><gom:rel_alt>220.922</gom:rel_alt></extensions></trkpt>
   <trkpt lat="59.0802391173" lon="29.9686848954"><ele>79.36</ele><time>2026-04-25T09:01:54.620Z</time><hdop>3.0</hdop><vdop>1.75</vdop><extensions><gom:speed>1.099</gom:speed><gom:rel_alt>220.956</gom:rel_alt></extensions></trkpt>
   <trkpt lat="59.0802514387" lon="29.9684935365"><ele>76.868</ele><time>2026-04-25T09:02:16.544Z</time><hdop>3.0</hdop><vdop>1.625</vdop><extensions><gom:speed>0.855</gom:speed><gom:rel_alt>219.022</gom:rel_alt></extensions></trkpt>
   <trkpt lat="59.08020362" lon="29.9683388904"><ele>76.126</ele><time>2026-04-25T09:02:40.620Z</time><hdop>3.0</hdop><vdop>1.625</vdop><extensions><gom:speed>0.785</gom:speed><gom:rel_alt>218.734</gom:rel_alt></extensions></trkpt>
   <trkpt lat="59.0802128401" lon="29.9681571707"><ele>77.165</ele><time>2026-04-25T09:03:21.620Z</time><hdop>3.0</hdop><vdop>1.625</vdop><extensions><gom:speed>0.382</gom:speed><gom:rel_alt>219.109</gom:rel_alt></extensions></trkpt>
   <trkpt lat="59.0802328309" lon="29.9679784686"><ele>76.216</ele><time>2026-04-25T09:03:38.620Z</time><hdop>3.0</hdop><vdop>1.5</vdop><extensions><gom:speed>0.944</gom:speed><gom:rel_alt>219.009</gom:rel_alt></extensions></trkpt>
   <trkpt lat="59.0801606208" lon="29.9678645585"><ele>77.532</ele><time>2026-04-25T09:03:48.620Z</time><hdop>3.0</hdop><vdop>1.75</vdop><extensions><gom:speed>0.833</gom:speed><gom:rel_alt>218.974</gom:rel_alt></extensions></trkpt>
   <trkpt lat="59.0801859342" lon="29.9676916398"><ele>77.551</ele><time>2026-04-25T09:04:31.005Z</time><hdop>3.0</hdop><vdop>1.5</vdop><extensions><gom:speed>0.629</gom:speed><gom:rel_alt>219.487</gom:rel_alt></extensions></trkpt>
   <trkpt lat="59.0802386563" lon="29.9675376643"><ele>76.463</ele><time>2026-04-25T09:04:49.244Z</time><hdop>3.125</hdop><vdop>1.625</vdop><extensions><gom:speed>0.635</gom:speed><gom:rel_alt>219.167</gom:rel_alt></extensions></trkpt>
   <trkpt lat="59.0801910471" lon="29.9673855327"><ele>76.126</ele><time>2026-04-25T09:05:01.620Z</time><hdop>3.0</hdop><vdop>1.625</vdop><extensions><gom:speed>0.805</gom:speed><gom:rel_alt>219.043</gom:rel_alt></extensions></trkpt>
   <trkpt lat="59.0801265484" lon="29.9672517576"><ele>76.373</ele><time>2026-04-25T09:05:12.619Z</time><hdop>3.0</hdop><vdop>1.625</vdop><extensions><gom:speed>0.799</gom:speed><gom:rel_alt>218.927</gom:rel_alt></extensions></trkpt>
   <trkpt lat="59.0802021532" lon="29.9671518453"><ele>75.726</ele><time>2026-04-25T09:05:47.503Z</time><hdop>3.0</hdop><vdop>1.625</vdop><extensions><gom:speed>0.887</gom:speed><gom:rel_alt>218.821</gom:rel_alt></extensions></trkpt>
   <trkpt lat="59.0802803563" lon="29.9670651764"><ele>76.202</ele><time>2026-04-25T09:06:01.184Z</time><hdop>3.0</hdop><vdop>1.625</vdop><extensions><gom:speed>0.836</gom:speed><gom:rel_alt>219.149</gom:rel_alt></extensions></trkpt>
   <trkpt lat="59.0803104473" lon="29.9668952752"><ele>76.246</ele><time>2026-04-25T09:06:16.547Z</time><hdop>3.0</hdop><vdop>1.5</vdop><extensions><gom:speed>0.529</gom:speed><gom:rel_alt>219.534</gom:rel_alt></extensions></trkpt>
   <trkpt lat="59.0804003433" lon="29.9669108656"><ele>77.15</ele><time>2026-04-25T09:06:59.620Z</time><hdop>3.0</hdop><vdop>1.5</vdop><extensions><gom:speed>0.116</gom:speed><gom:rel_alt>220.044</gom:rel_alt></extensions></trkpt>
   <trkpt lat="59.0804885209" lon="29.9669497576"><ele>76.572</ele><time>2026-04-25T09:07:57.146Z</time><hdop>3.125</hdop><vdop>1.625</vdop><extensions><gom:speed>0.852</gom:speed><gom:rel_alt>219.291</gom:rel_alt></extensions></trkpt>
   <trkpt lat="59.0805642514" lon="29.967052855"><ele>75.793</ele><time>2026-04-25T09:08:13.449Z</time><hdop>3.0</hdop><vdop>1.5</vdop><extensions><gom:speed>0.698</gom:speed><gom:rel_alt>218.8</gom:rel_alt></extensions></trkpt>
   <trkpt lat="59.0806568295" lon="29.96703014"><ele>75.661</ele><time>2026-04-25T09:08:22.012Z</time><hdop>3.0</hdop><vdop>1.625</vdop><extensions><gom:speed>0.893</gom:speed><gom:rel_alt>218.884</gom:rel_alt></extensions></trkpt>
   <trkpt lat="59.0807458453" lon="29.9669617437"><ele>76.485</ele><time>2026-04-25T09:08:40.584Z</time><hdop>3.0</hdop><vdop>1.5</vdop><extensions><gom:speed>0.851</gom:speed><gom:rel_alt>219.984</gom:rel_alt></extensions></trkpt>
   <trkpt lat="59.0808382558" lon="29.966931988"><ele>76.81</ele><time>2026-04-25T09:09:27.486Z</time><hdop>3.0</hdop><vdop>1.625</vdop><extensions><gom:speed>0.224</gom:speed><gom:rel_alt>218.948</gom:rel_alt></extensions></trkpt>
   <trkpt lat="59.0809325522" lon="29.9668811098"><ele>78.373</ele><time>2026-04-25T09:10:27.620Z</time><hdop>3.0</hdop><vdop>1.5</vdop><extensions><gom:speed>0.996</gom:speed><gom:rel_alt>219.648</gom:rel_alt></extensions></trkpt>
   <trkpt lat="59.0810219452" lon="29.9669167329"><ele>77.356</ele><time>2026-04-25T09:10:42.621Z</time><hdop>3.0</hdop><vdop>1.5</vdop><extensions><gom:speed>0.728</gom:speed><gom:rel_alt>219.408</gom:rel_alt></extensions></trkpt>
   <trkpt lat="59.0810640223" lon="29.9667602428"><ele>77.159</ele><time>2026-04-25T09:11:13.423Z</time><hdop>3.0</hdop><vdop>1.625</vdop><extensions><gom:speed>0.8</gom:speed><gom:rel_alt>219.704</gom:rel_alt></extensions></trkpt>
   <trkpt lat="59.0810394215" lon="29.966588749"><ele>75.575</ele><time>2026-04-25T09:11:31.620Z</time><hdop>3.0</hdop><vdop>1.625</vdop><extensions><gom:speed>0.644</gom:speed><gom:rel_alt>217.991</gom:rel_alt></extensions></trkpt>
   <trkpt lat="59.0810679199" lon="29.9664175906"><ele>77.891</ele><time>2026-04-25T09:11:48.620Z</time><hdop>3.0</hdop><vdop>1.625</vdop><extensions><gom:speed>0.815</gom:speed><gom:rel_alt>218.826</gom:rel_alt></extensions></trkpt>
   <trkpt lat="59.0810952449" lon="29.9662364576"><ele>76.972</ele><time>2026-04-25T09:12:38.042Z</time><hdop>3.0</hdop><vdop>1.625</vdop><extensions><gom:speed>0.641</gom:speed><gom:rel_alt>218.789</gom:rel_alt></extensions></trkpt>
   <trkpt lat="59.0811931456" lon="29.966228411"><ele>79.031</ele><time>2026-04-25T09:12:47.604Z</time><hdop>3.0</hdop><vdop>1.5</vdop><extensions><gom:speed>0.936</gom:speed><gom:rel_alt>218.536</gom:rel_alt></extensions></trkpt>
   <trkpt lat="59.081256848" lon="29.9663593363"><ele>79.03</ele><time>2026-04-25T09:13:15.620Z</time><hdop>3.0</hdop><vdop>1.5</vdop><extensions><gom:speed>0.872</gom:speed><gom:rel_alt>219.252</gom:rel_alt></extensions></trkpt>
   <trkpt lat="59.0813007273" lon="29.9665305786"><ele>79.47</ele><time>2026-04-25T09:13:30.620Z</time><hdop>3.0</hdop><vdop>1.625</vdop><extensions><gom:speed>0.847</gom:speed><gom:rel_alt>219.239</gom:rel_alt></extensions></trkpt>
   <trkpt lat="59.0813579338" lon="29.9663938698"><ele>79.946</ele><time>2026-04-25T09:14:24.620Z</time><hdop>3.125</hdop><vdop>1.5</vdop><extensions><gom:speed>0.931</gom:speed><gom:rel_alt>218.382</gom:rel_alt></extensions></trkpt>
   <trkpt lat="59.0814400345" lon="29.9664755933"><ele>80.162</ele><time>2026-04-25T09:14:37.620Z</time><hdop>3.0</hdop><vdop>1.625</vdop><extensions><gom:speed>0.756</gom:speed><gom:rel_alt>218.779</gom:rel_alt></extensions></trkpt>
   <trkpt lat="59.0815357559" lon="29.9665062711"><ele>79.839</ele><time>2026-04-25T09:14:49.564Z</time><hdop>3.0</hdop><vdop>1.5</vdop><extensions><gom:speed>0.795</gom:speed><gom:rel_alt>218.515</gom:rel_alt></extensions></trkpt>
   <trkpt lat="59.0816270348" lon="29.9664615117"><ele>80.929</ele><time>2026-04-25T09:15:03.125Z</time><hdop>3.0</hdop><vdop>1.625</vdop><extensions><gom:speed>0.856</gom:speed><gom:rel_alt>219.077</gom:rel_alt></extensions></trkpt>
   <trkpt lat="59.0817092193" lon="29.9663645331"><ele>80.408</ele><time>2026-04-25T09:15:17.339Z</time><hdop>3.0</hdop><vdop>1.375</vdop><extensions><gom:speed>0.861</gom:speed><gom:rel_alt>219.31</gom:rel_alt></extensions></trkpt>
   <trkpt lat="59.081800624" lon="29.9663251382"><ele>81.365</ele><time>2026-04-25T09:15:53.979Z</time><hdop>3.0</hdop><vdop>1.5</vdop><extensions><gom:speed>0.793</gom:speed><gom:rel_alt>219.92</gom:rel_alt></extensions></trkpt>
   <trkpt lat="59.0818890531" lon="29.9662851565"><ele>81.907</ele><time>2026-04-25T09:16:15.245Z</time><hdop>3.0</hdop><vdop>1.5</vdop><extensions><gom:speed>0.624</gom:speed><gom:rel_alt>220.11</gom:rel_alt></extensions></trkpt>
   <trkpt lat="59.0819899293" lon="29.966276104"><ele>81.16</ele><time>2026-04-25T09:16:42.621Z</time><hdop>3.0</hdop><vdop>1.5</vdop><extensions><gom:speed>0.745</gom:speed><gom:rel_alt>218.729</gom:rel_alt></extensions></trkpt>
   <trkpt lat="59.0820815435" lon="29.9663463444"><ele>81.541</ele><time>2026-04-25T09:17:03.565Z</time><hdop>3.0</hdop><vdop>1.5</vdop><extensions><gom:speed>0.784</gom:speed><gom:rel_alt>219.249</gom:rel_alt></extensions></trkpt>
   <trkpt lat="59.0821752532" lon="29.9663311731"><ele>82.349</ele><time>2026-04-25T09:17:19.263Z</time><hdop>3.0</hdop><vdop>1.5</vdop><extensions><gom:speed>0.857</gom:speed><gom:rel_alt>219.175</gom:rel_alt></extensions></trkpt>
   <trkpt lat="59.0822346389" lon="29.9661893513"><ele>82.529</ele><time>2026-04-25T09:17:32.647Z</time><hdop>3.0</hdop><vdop>1.5</vdop><extensions><gom:speed>0.901</gom:speed><gom:rel_alt>219.881</gom:rel_alt></extensions></trkpt>
   <trkpt lat="59.0823256245" lon="29.9661657144"><ele>82.527</ele><time>2026-04-25T09:17:44.377Z</time><hdop>3.0</hdop><vdop>1.5</vdop><extensions><gom:speed>0.862</gom:speed><gom:rel_alt>219.846</gom:rel_alt></extensions></trkpt>
   <trkpt lat="59.0824118324" lon="29.9660990782"><ele>82.756</ele><time>2026-04-25T09:17:58.258Z</time><hdop>3.0</hdop><vdop>1.625</vdop><extensions><gom:speed>0.886</gom:speed><gom:rel_alt>219.852</gom:rel_alt></extensions></trkpt>
   <trkpt lat="59.0824847549" lon="29.9659930472"><ele>82.15</ele><time>2026-04-25T09:18:12.158Z</time><hdop>3.0</hdop><vdop>1.5</vdop><extensions><gom:speed>0.739</gom:speed><gom:rel_alt>219.714</gom:rel_alt></extensions></trkpt>
   <trkpt lat="59.082567149" lon="29.9659062107"><ele>82.695</ele><time>2026-04-25T09:18:28.121Z</time><hdop>3.0</hdop><vdop>1.625</vdop><extensions><gom:speed>0.924</gom:speed><gom:rel_alt>220.05</gom:rel_alt></extensions></trkpt>
   <trkpt lat="59.0826580508" lon="29.9659259081"><ele>82.672</ele><time>2026-04-25T09:18:43.123Z</time><hdop>3.0</hdop><vdop>1.5</vdop><extensions><gom:speed>0.872</gom:speed><gom:rel_alt>219.785</gom:rel_alt></extensions></trkpt>
   <trkpt lat="59.082747821" lon="29.9658752814"><ele>83.348</ele><time>2026-04-25T09:18:54.620Z</time><hdop>3.0</hdop><vdop>1.5</vdop><extensions><gom:speed>0.837</gom:speed><gom:rel_alt>220.483</gom:rel_alt></extensions></trkpt>
   <trkpt lat="59.0828370463" lon="29.9658373952"><ele>83.681</ele><time>2026-04-25T09:19:11.245Z</time><hdop>3.0</hdop><vdop>1.5</vdop><extensions><gom:speed>0.826</gom:speed><gom:rel_alt>220.731</gom:rel_alt></extensions></trkpt>
   <trkpt lat="59.0829082506" lon="29.9657291849"><ele>83.988</ele><time>2026-04-25T09:19:22.649Z</time><hdop>3.0</hdop><vdop>1.5</vdop><extensions><gom:speed>0.968</gom:speed><gom:rel_alt>220.988</gom:rel_alt></extensions></trkpt>
   <trkpt lat="59.0829686422" lon="29.9655916378"><ele>83.644</ele><time>2026-04-25T09:19:37.164Z</time><hdop>3.0</hdop><vdop>1.5</vdop><extensions><gom:speed>0.875</gom:speed><gom:rel_alt>221.001</gom:rel_alt></extensions></trkpt>
   <trkpt lat="59.0830591249" lon="29.9655310367"><ele>84.482</ele><time>2026-04-25T09:19:52.440Z</time><hdop>3.0</hdop><vdop>1.625</vdop><extensions><gom:speed>0.921</gom:speed><gom:rel_alt>221.284</gom:rel_alt></extensions></trkpt>
   <trkpt lat="59.0831479311" lon="29.9655856867"><ele>84.3</ele><time>2026-04-25T09:20:06.620Z</time><hdop>3.0</hdop><vdop>1.5</vdop><extensions><gom:speed>1.012</gom:speed><gom:rel_alt>221.133</gom:rel_alt></extensions></trkpt>
   <trkpt lat="59.0832294451" lon="29.9655106686"><ele>83.973</ele><time>2026-04-25T09:20:22.964Z</time><hdop>3.0</hdop><vdop>1.5</vdop><extensions><gom:speed>0.911</gom:speed><gom:rel_alt>220.734</gom:rel_alt></extensions></trkpt>
   <trkpt lat="59.0833018229" lon="29.9653975968"><ele>83.87</ele><time>2026-04-25T09:20:35.258Z</time><hdop>3.0</hdop><vdop>1.5</vdop><extensions><gom:speed>0.987</gom:speed><gom:rel_alt>220.996</gom:rel_alt></extensions></trkpt>
   <trkpt lat="59.083367537" lon="29.9652661685"><ele>84.436</ele><time>2026-04-25T09:20:47.303Z</time><hdop>3.0</hdop><vdop>1.5</vdop><extensions><gom:speed>0.789</gom:speed><gom:rel_alt>220.57</gom:rel_alt></extensions></trkpt>
   <trkpt lat="59.0834445248" lon="29.9651717045"><ele>85.076</ele><time>2026-04-25T09:21:01.619Z</time><hdop>3.0</hdop><vdop>1.625</vdop><extensions><gom:speed>0.727</gom:speed><gom:rel_alt>220.848</gom:rel_alt></extensions></trkpt>
   <trkpt lat="59.0835330377" lon="29.9651142046"><ele>84.741</ele><time>2026-04-25T09:21:16.527Z</time><hdop>3.0</hdop><vdop>1.625</vdop><extensions><gom:speed>0.959</gom:speed><gom:rel_alt>220.977</gom:rel_alt></extensions></trkpt>
   <trkpt lat="59.0835718459" lon="29.9649458122"><ele>85.442</ele><time>2026-04-25T09:21:29.303Z</time><hdop>3.0</hdop><vdop>1.5</vdop><extensions><gom:speed>0.882</gom:speed><gom:rel_alt>220.705</gom:rel_alt></extensions></trkpt>
   <trkpt lat="59.0835600274" lon="29.9647700437"><ele>86.27</ele><time>2026-04-25T09:21:42.384Z</time><hdop>3.0</hdop><vdop>1.625</vdop><extensions><gom:speed>0.781</gom:speed><gom:rel_alt>220.462</gom:rel_alt></extensions></trkpt>
   <trkpt lat="59.083569918" lon="29.9645928502"><ele>85.337</ele><time>2026-04-25T09:21:53.184Z</time><hdop>3.0</hdop><vdop>1.5</vdop><extensions><gom:speed>0.981</gom:speed><gom:rel_alt>220.784</gom:rel_alt></extensions></trkpt>
   <trkpt lat="59.0835623324" lon="29.9644097895"><ele>85.942</ele><time>2026-04-25T09:22:04.083Z</time><hdop>3.0</hdop><vdop>1.625</vdop><extensions><gom:speed>0.994</gom:speed><gom:rel_alt>221.162</gom:rel_alt></extensions></trkpt>
   <trkpt lat="59.0836159347" lon="29.9642694764"><ele>86.749</ele><time>2026-04-25T09:22:18.620Z</time><hdop>3.0</hdop><vdop>1.625</vdop><extensions><gom:speed>0.77</gom:speed><gom:rel_alt>221.202</gom:rel_alt></extensions></trkpt>
   <trkpt lat="59.0836133363" lon="29.9640875053"><ele>87.625</ele><time>2026-04-25T09:22:37.588Z</time><hdop>3.0</hdop><vdop>1.5</vdop><extensions><gom:speed>0.867</gom:speed><gom:rel_alt>220.668</gom:rel_alt></extensions></trkpt>
   <trkpt lat="59.0836494204" lon="29.9639271595"><ele>85.993</ele><time>2026-04-25T09:22:51.622Z</time><hdop>3.0</hdop><vdop>1.5</vdop><extensions><gom:speed>0.801</gom:speed><gom:rel_alt>220.634</gom:rel_alt></extensions></trkpt>
   <trkpt lat="59.083636638" lon="29.9637411651"><ele>87.698</ele><time>2026-04-25T09:23:04.620Z</time><hdop>3.0</hdop><vdop>1.5</vdop><extensions><gom:speed>0.902</gom:speed><gom:rel_alt>221.088</gom:rel_alt></extensions></trkpt>
   <trkpt lat="59.0836476183" lon="29.9635572661"><ele>87.174</ele><time>2026-04-25T09:23:17.622Z</time><hdop>3.0</hdop><vdop>1.5</vdop><extensions><gom:speed>0.673</gom:speed><gom:rel_alt>220.961</gom:rel_alt></extensions></trkpt>
   <trkpt lat="59.0836773321" lon="29.963388706"><ele>88.002</ele><time>2026-04-25T09:23:33.621Z</time><hdop>3.0</hdop><vdop>1.5</vdop><extensions><gom:speed>0.906</gom:speed><gom:rel_alt>220.988</gom:rel_alt></extensions></trkpt>
   <trkpt lat="59.083752434" lon="29.9632754665"><ele>87.821</ele><time>2026-04-25T09:23:46.605Z</time><hdop>3.0</hdop><vdop>1.5</vdop><extensions><gom:speed>1.0</gom:speed><gom:rel_alt>220.581</gom:rel_alt></extensions></trkpt>
   <trkpt lat="59.0838231353" lon="29.9631668371"><ele>87.716</ele><time>2026-04-25T09:24:01.620Z</time><hdop>3.0</hdop><vdop>1.5</vdop><extensions><gom:speed>0.716</gom:speed><gom:rel_alt>220.472</gom:rel_alt></extensions></trkpt>
   <trkpt lat="59.08384782" lon="29.9629916553"><ele>88.318</ele><time>2026-04-25T09:24:23.068Z</time><hdop>3.0</hdop><vdop>1.5</vdop><extensions><gom:speed>0.785</gom:speed><gom:rel_alt>220.155</gom:rel_alt></extensions></trkpt>
   <trkpt lat="59.0837754423" lon="29.9628779967"><ele>88.722</ele><time>2026-04-25T09:24:37.620Z</time><hdop>3.0</hdop><vdop>1.625</vdop><extensions><gom:speed>0.738</gom:speed><gom:rel_alt>220.877</gom:rel_alt></extensions></trkpt>
   <trkpt lat="59.0837740174" lon="29.9627011385"><ele>89.061</ele><time>2026-04-25T09:24:51.188Z</time><hdop>3.0</hdop><vdop>1.625</vdop><extensions><gom:speed>0.771</gom:speed><gom:rel_alt>220.911</gom:rel_alt></extensions></trkpt>
   <trkpt lat="59.0837934215" lon="29.9625249509"><ele>89.08</ele><time>2026-04-25T09:25:15.308Z</time><hdop>3.0</hdop><vdop>1.625</vdop><extensions><gom:speed>0.679</gom:speed><gom:rel_alt>221.41</gom:rel_alt></extensions></trkpt>
   <trkpt lat="59.0838329422" lon="29.962350272"><ele>89.843</ele><time>2026-04-25T09:25:28.620Z</time><hdop>3.0</hdop><vdop>1.5</vdop><extensions><gom:speed>1.097</gom:speed><gom:rel_alt>221.45</gom:rel_alt></extensions></trkpt>
   <trkpt lat="59.0839018414" lon="29.9622367811"><ele>89.031</ele><time>2026-04-25T09:25:41.429Z</time><hdop>3.0</hdop><vdop>1.375</vdop><extensions><gom:speed>0.829</gom:speed><gom:rel_alt>221.299</gom:rel_alt></extensions></trkpt>
   <trkpt lat="59.0839636579" lon="29.9620989826"><ele>89.09</ele><time>2026-04-25T09:25:59.108Z</time><hdop>3.0</hdop><vdop>1.375</vdop><extensions><gom:speed>0.885</gom:speed><gom:rel_alt>220.993</gom:rel_alt></extensions></trkpt>
   <trkpt lat="59.0839956349" lon="29.9619267345"><ele>89.026</ele><time>2026-04-25T09:26:12.621Z</time><hdop>3.0</hdop><vdop>1.625</vdop><extensions><gom:speed>0.867</gom:speed><gom:rel_alt>220.985</gom:rel_alt></extensions></trkpt>
   <trkpt lat="59.0839066191" lon="29.961873677"><ele>89.25</ele><time>2026-04-25T09:26:24.511Z</time><hdop>3.0</hdop><vdop>1.375</vdop><extensions><gom:speed>0.878</gom:speed><gom:rel_alt>221.231</gom:rel_alt></extensions></trkpt>
   <trkpt lat="59.0838175194" lon="29.961906115"><ele>89.902</ele><time>2026-04-25T09:26:36.470Z</time><hdop>3.0</hdop><vdop>1.375</vdop><extensions><gom:speed>0.866</gom:speed><gom:rel_alt>221.622</gom:rel_alt></extensions></trkpt>
   <trkpt lat="59.0837274559" lon="29.9618725036"><ele>89.24</ele><time>2026-04-25T09:27:08.620Z</time><hdop>3.0</hdop><vdop>1.375</vdop><extensions><gom:speed>0.9</gom:speed><gom:rel_alt>221.321</gom:rel_alt></extensions></trkpt>
   <trkpt lat="59.0836365542" lon="29.9619409837"><ele>89.577</ele><time>2026-04-25T09:27:31.620Z</time><hdop>3.0</hdop><vdop>1.375</vdop><extensions><gom:speed>0.665</gom:speed><gom:rel_alt>221.87</gom:rel_alt></extensions></trkpt>
   <trkpt lat="59.0835571356" lon="29.9620285746"><ele>88.856</ele><time>2026-04-25T09:27:42.620Z</time><hdop>3.0</hdop><vdop>1.375</vdop><extensions><gom:speed>0.716</gom:speed><gom:rel_alt>221.426</gom:rel_alt></extensions></trkpt>
   <trkpt lat="59.0834658567" lon="29.9620543909"><ele>89.841</ele><time>2026-04-25T09:27:55.452Z</time><hdop>3.0</hdop><vdop>1.375</vdop><extensions><gom:speed>0.86</gom:speed><gom:rel_alt>221.093</gom:rel_alt></extensions></trkpt>
   <trkpt lat="59.0833853485" lon="29.9621393834"><ele>89.832</ele><time>2026-04-25T09:28:10.271Z</time><hdop>3.0</hdop><vdop>1.375</vdop><extensions><gom:speed>0.768</gom:speed><gom:rel_alt>221.786</gom:rel_alt></extensions></trkpt>
   <trkpt lat="59.0832950335" lon="29.9620882538"><ele>90.386</ele><time>2026-04-25T09:28:27.931Z</time><hdop>3.0</hdop><vdop>1.375</vdop><extensions><gom:speed>0.756</gom:speed><gom:rel_alt>221.844</gom:rel_alt></extensions></trkpt>
   <trkpt lat="59.0832038384" lon="29.9621125613"><ele>89.743</ele><time>2026-04-25T09:28:38.588Z</time><hdop>3.0</hdop><vdop>1.375</vdop><extensions><gom:speed>0.986</gom:speed><gom:rel_alt>221.735</gom:rel_alt></extensions></trkpt>
   <trkpt lat="59.08311323" lon="29.9621472624"><ele>90.706</ele><time>2026-04-25T09:28:55.621Z</time><hdop>3.0</hdop><vdop>1.375</vdop><extensions><gom:speed>0.756</gom:speed><gom:rel_alt>221.545</gom:rel_alt></extensions></trkpt>
   <trkpt lat="59.0830379186" lon="29.9622590769"><ele>90.423</ele><time>2026-04-25T09:29:09.567Z</time><hdop>3.0</hdop><vdop>1.375</vdop><extensions><gom:speed>0.829</gom:speed><gom:rel_alt>221.035</gom:rel_alt></extensions></trkpt>
   <trkpt lat="59.082958542" lon="29.9623418901"><ele>90.691</ele><time>2026-04-25T09:29:22.153Z</time><hdop>3.0</hdop><vdop>1.375</vdop><extensions><gom:speed>0.932</gom:speed><gom:rel_alt>221.58</gom:rel_alt></extensions></trkpt>
   <trkpt lat="59.0828960549" lon="29.9624720611"><ele>90.05</ele><time>2026-04-25T09:29:35.851Z</time><hdop>3.0</hdop><vdop>1.375</vdop><extensions><gom:speed>0.926</gom:speed><gom:rel_alt>221.447</gom:rel_alt></extensions></trkpt>
   <trkpt lat="59.0828034349" lon="29.9624324985"><ele>90.547</ele><time>2026-04-25T09:29:56.646Z</time><hdop>3.0</hdop><vdop>1.375</vdop><extensions><gom:speed>0.925</gom:speed><gom:rel_alt>221.587</gom:rel_alt></extensions></trkpt>
   <trkpt lat="59.0827143353" lon="29.9623882421"><ele>90.134</ele><time>2026-04-25T09:30:09.146Z</time><hdop>3.0</hdop><vdop>1.375</vdop><extensions><gom:speed>0.71</gom:speed><gom:rel_alt>221.585</gom:rel_alt></extensions></trkpt>
   <trkpt lat="59.082639443" lon="29.9625112046"><ele>90.591</ele><time>2026-04-25T09:30:21.211Z</time><hdop>3.0</hdop><vdop>1.25</vdop><extensions><gom:speed>0.975</gom:speed><gom:rel_alt>220.996</gom:rel_alt></extensions></trkpt>
   <trkpt lat="59.0825481221" lon="29.9625623342"><ele>89.853</ele><time>2026-04-25T09:30:33.246Z</time><hdop>3.0</hdop><vdop>1.375</vdop><extensions><gom:speed>0.818</gom:speed><gom:rel_alt>221.437</gom:rel_alt></extensions></trkpt>
   <trkpt lat="59.0824656442" lon="29.962636514"><ele>90.471</ele><time>2026-04-25T09:30:46.621Z</time><hdop>3.0</hdop><vdop>1.375</vdop><extensions><gom:speed>0.908</gom:speed><gom:rel_alt>221.825</gom:rel_alt></extensions></trkpt>
   <trkpt lat="59.0823841302" lon="29.9627422098"><ele>89.379</ele><time>2026-04-25T09:31:18.929Z</time><hdop>3.0</hdop><vdop>1.25</vdop><extensions><gom:speed>0.808</gom:speed><gom:rel_alt>220.224</gom:rel_alt></extensions></trkpt>
   <trkpt lat="59.0823423464" lon="29.9625733145"><ele>88.917</ele><time>2026-04-25T09:31:30.027Z</time><hdop>3.0</hdop><vdop>1.375</vdop><extensions><gom:speed>1.034</gom:speed><gom:rel_alt>220.626</gom:rel_alt></extensions></trkpt>
   <trkpt lat="59.0822565576" lon="29.9626345862"><ele>88.972</ele><time>2026-04-25T09:31:42.621Z</time><hdop>3.0</hdop><vdop>1.25</vdop><extensions><gom:speed>0.742</gom:speed><gom:rel_alt>220.095</gom:rel_alt></extensions></trkpt>
   <trkpt lat="59.0821805338" lon="29.9627361749"><ele>88.998</ele><time>2026-04-25T09:32:02.621Z</time><hdop>3.0</hdop><vdop>1.375</vdop><extensions><gom:speed>0.929</gom:speed><gom:rel_alt>219.912</gom:rel_alt></extensions></trkpt>
   <trkpt lat="59.0821048452" lon="29.9626234383"><ele>89.074</ele><time>2026-04-25T09:32:15.629Z</time><hdop>3.0</hdop><vdop>1.375</vdop><extensions><gom:speed>0.798</gom:speed><gom:rel_alt>219.957</gom:rel_alt></extensions></trkpt>
   <trkpt lat="59.0820254266" lon="29.9627067544"><ele>88.314</ele><time>2026-04-25T09:32:25.623Z</time><hdop>3.0</hdop><vdop>1.375</vdop><extensions><gom:speed>0.793</gom:speed><gom:rel_alt>219.783</gom:rel_alt></extensions></trkpt>
   <trkpt lat="59.0819623528" lon="29.9628501688"><ele>88.509</ele><time>2026-04-25T09:32:43.622Z</time><hdop>3.0</hdop><vdop>1.25</vdop><extensions><gom:speed>0.773</gom:speed><gom:rel_alt>219.381</gom:rel_alt></extensions></trkpt>
   <trkpt lat="59.0818921544" lon="29.9629838601"><ele>88.174</ele><time>2026-04-25T09:34:10.621Z</time><hdop>3.0</hdop><vdop>1.25</vdop><extensions><gom:speed>0.841</gom:speed><gom:rel_alt>218.692</gom:rel_alt></extensions></trkpt>
   <trkpt lat="59.0818040187" lon="29.9630262725"><ele>86.691</ele><time>2026-04-25T09:35:27.275Z</time><hdop>3.0</hdop><vdop>1.25</vdop><extensions><gom:speed>0.127</gom:speed><gom:rel_alt>218.824</gom:rel_alt></extensions></trkpt>
   <trkpt lat="59.0817152543" lon="29.9629732151"><ele>87.937</ele><time>2026-04-25T09:35:41.621Z</time><hdop>3.125</hdop><vdop>1.375</vdop><extensions><gom:speed>0.839</gom:speed><gom:rel_alt>219.254</gom:rel_alt></extensions></trkpt>
   <trkpt lat="59.0816358358" lon="29.9628904857"><ele>87.334</ele><time>2026-04-25T09:35:56.298Z</time><hdop>3.0</hdop><vdop>1.25</vdop><extensions><gom:speed>0.556</gom:speed><gom:rel_alt>219.416</gom:rel_alt></extensions></trkpt>
   <trkpt lat="59.0815459399" lon="29.9629189004"><ele>87.968</ele><time>2026-04-25T09:36:10.191Z</time><hdop>3.0</hdop><vdop>1.25</vdop><extensions><gom:speed>0.879</gom:speed><gom:rel_alt>219.439</gom:rel_alt></extensions></trkpt>
   <trkpt lat="59.0814528169" lon="29.9629082553"><ele>87.785</ele><time>2026-04-25T09:36:42.092Z</time><hdop>3.0</hdop><vdop>1.25</vdop><extensions><gom:speed>0.689</gom:speed><gom:rel_alt>219.513</gom:rel_alt></extensions></trkpt>
   <trkpt lat="59.0813662319" lon="29.9629684374"><ele>87.289</ele><time>2026-04-25T09:36:53.210Z</time><hdop>3.0</hdop><vdop>1.25</vdop><extensions><gom:speed>0.478</gom:speed><gom:rel_alt>218.972</gom:rel_alt></extensions></trkpt>
   <trkpt lat="59.0812768389" lon="29.9630300444"><ele>86.904</ele><time>2026-04-25T09:37:10.177Z</time><hdop>3.0</hdop><vdop>1.25</vdop><extensions><gom:speed>0.733</gom:speed><gom:rel_alt>219.429</gom:rel_alt></extensions></trkpt>
   <trkpt lat="59.0811861467" lon="29.9630592134"><ele>87.765</ele><time>2026-04-25T09:37:22.525Z</time><hdop>3.0</hdop><vdop>1.25</vdop><extensions><gom:speed>0.838</gom:speed><gom:rel_alt>219.331</gom:rel_alt></extensions></trkpt>
   <trkpt lat="59.0811017409" lon="29.9631276097"><ele>87.877</ele><time>2026-04-25T09:37:37.621Z</time><hdop>3.0</hdop><vdop>1.25</vdop><extensions><gom:speed>0.862</gom:speed><gom:rel_alt>220.195</gom:rel_alt></extensions></trkpt>
   <trkpt lat="59.0810064387" lon="29.9631504923"><ele>87.945</ele><time>2026-04-25T09:37:50.402Z</time><hdop>3.0</hdop><vdop>1.25</vdop><extensions><gom:speed>1.028</gom:speed><gom:rel_alt>219.722</gom:rel_alt></extensions></trkpt>
   <trkpt lat="59.0809153274" lon="29.9631697707"><ele>87.541</ele><time>2026-04-25T09:38:07.185Z</time><hdop>3.0</hdop><vdop>1.25</vdop><extensions><gom:speed>0.889</gom:speed><gom:rel_alt>219.764</gom:rel_alt></extensions></trkpt>
   <trkpt lat="59.0808322208" lon="29.9632541765"><ele>87.851</ele><time>2026-04-25T09:38:41.620Z</time><hdop>3.0</hdop><vdop>1.25</vdop><extensions><gom:speed>0.554</gom:speed><gom:rel_alt>219.558</gom:rel_alt></extensions></trkpt>
   <trkpt lat="59.0807378406" lon="29.9632810824"><ele>87.707</ele><time>2026-04-25T09:38:52.523Z</time><hdop>3.0</hdop><vdop>1.375</vdop><extensions><gom:speed>0.839</gom:speed><gom:rel_alt>219.994</gom:rel_alt></extensions></trkpt>
   <trkpt lat="59.0807037262" lon="29.9634656519"><ele>88.0</ele><time>2026-04-25T09:39:01.621Z</time><hdop>3.0</hdop><vdop>1.375</vdop><extensions><gom:speed>1.187</gom:speed><gom:rel_alt>219.923</gom:rel_alt></extensions></trkpt>
   <trkpt lat="59.0806111481" lon="29.9634967488"><ele>87.862</ele><time>2026-04-25T09:39:15.563Z</time><hdop>3.0</hdop><vdop>1.25</vdop><extensions><gom:speed>0.808</gom:speed><gom:rel_alt>219.149</gom:rel_alt></extensions></trkpt>
   <trkpt lat="59.0805279577" lon="29.9634001054"><ele>87.865</ele><time>2026-04-25T09:39:33.105Z</time><hdop>3.0</hdop><vdop>1.375</vdop><extensions><gom:speed>0.879</gom:speed><gom:rel_alt>219.756</gom:rel_alt></extensions></trkpt>
   <trkpt lat="59.0804390257" lon="29.9634625506"><ele>87.839</ele><time>2026-04-25T09:39:46.622Z</time><hdop>3.0</hdop><vdop>1.25</vdop><extensions><gom:speed>0.925</gom:speed><gom:rel_alt>219.809</gom:rel_alt></extensions></trkpt>
   <trkpt lat="59.0803487526" lon="29.9637257424"><ele>86.944</ele><time>2026-04-25T09:41:51.621Z</time><hdop>9.875</hdop><vdop>1.375</vdop><extensions><gom:speed>1.298</gom:speed><gom:rel_alt>218.977</gom:rel_alt></extensions></trkpt>
   <trkpt lat="59.0803797238" lon="29.9635614571"><ele>86.709</ele><time>2026-04-25T09:42:12.621Z</time><hdop>3.0</hdop><vdop>1.25</vdop><extensions><gom:speed>0.084</gom:speed><gom:rel_alt>219.056</gom:rel_alt></extensions></trkpt>
   <trkpt lat="59.0804540293" lon="29.9636648897"><ele>88.014</ele><time>2026-04-25T09:46:53.296Z</time><hdop>3.125</hdop><vdop>1.5</vdop><extensions><gom:speed>0.905</gom:speed><gom:rel_alt>219.791</gom:rel_alt></extensions></trkpt>
   <trkpt lat="59.080472721" lon="29.9638431728"><ele>87.355</ele><time>2026-04-25T09:47:03.198Z</time><hdop>3.0</hdop><vdop>1.375</vdop><extensions><gom:speed>0.807</gom:speed><gom:rel_alt>220.145</gom:rel_alt></extensions></trkpt>
   <trkpt lat="59.0804800552" lon="29.9640207015"><ele>86.883</ele><time>2026-04-25T09:47:36.036Z</time><hdop>3.125</hdop><vdop>1.375</vdop><extensions><gom:speed>0.879</gom:speed><gom:rel_alt>219.13</gom:rel_alt></extensions></trkpt>
   <trkpt lat="59.0804630399" lon="29.9641947098"><ele>87.286</ele><time>2026-04-25T09:47:44.906Z</time><hdop>3.0</hdop><vdop>1.625</vdop><extensions><gom:speed>0.866</gom:speed><gom:rel_alt>219.709</gom:rel_alt></extensions></trkpt>
   <trkpt lat="59.0804392353" lon="29.964367377"><ele>86.576</ele><time>2026-04-25T09:47:57.579Z</time><hdop>3.0</hdop><vdop>1.375</vdop><extensions><gom:speed>0.833</gom:speed><gom:rel_alt>219.289</gom:rel_alt></extensions></trkpt>
   <trkpt lat="59.080395356" lon="29.9645232804"><ele>87.43</ele><time>2026-04-25T09:48:15.357Z</time><hdop>3.0</hdop><vdop>1.5</vdop><extensions><gom:speed>0.77</gom:speed><gom:rel_alt>219.672</gom:rel_alt></extensions></trkpt>
   <trkpt lat="59.0803606549" lon="29.9646873981"><ele>86.955</ele><time>2026-04-25T09:48:28.582Z</time><hdop>3.0</hdop><vdop>1.375</vdop><extensions><gom:speed>0.742</gom:speed><gom:rel_alt>220.071</gom:rel_alt></extensions></trkpt>
   <trkpt lat="59.0802657299" lon="29.9647091911"><ele>87.757</ele><time>2026-04-25T09:48:41.620Z</time><hdop>3.0</hdop><vdop>1.625</vdop><extensions><gom:speed>0.678</gom:speed><gom:rel_alt>219.865</gom:rel_alt></extensions></trkpt>
   <trkpt lat="59.0802222278" lon="29.9648652621"><ele>86.606</ele><time>2026-04-25T09:48:55.620Z</time><hdop>3.0</hdop><vdop>1.375</vdop><extensions><gom:speed>0.269</gom:speed><gom:rel_alt>220.155</gom:rel_alt></extensions></trkpt>
   <trkpt lat="59.0801301526" lon="29.9648403678"><ele>86.782</ele><time>2026-04-25T09:49:36.621Z</time><hdop>3.0</hdop><vdop>1.5</vdop><extensions><gom:speed>0.719</gom:speed><gom:rel_alt>219.49</gom:rel_alt></extensions></trkpt>
   <trkpt lat="59.0800893327" lon="29.9646840453"><ele>86.573</ele><time>2026-04-25T09:50:07.621Z</time><hdop>3.0</hdop><vdop>1.625</vdop><extensions><gom:speed>0.239</gom:speed><gom:rel_alt>219.492</gom:rel_alt></extensions></trkpt>
   <trkpt lat="59.0800186314" lon="29.9645727337"><ele>86.046</ele><time>2026-04-25T09:50:42.621Z</time><hdop>3.75</hdop><vdop>1.5</vdop><extensions><gom:speed>0.698</gom:speed><gom:rel_alt>219.73</gom:rel_alt></extensions></trkpt>
   <trkpt lat="59.0799459184" lon="29.9644594942"><ele>85.795</ele><time>2026-04-25T09:51:10.621Z</time><hdop>3.75</hdop><vdop>1.375</vdop><extensions><gom:speed>0.688</gom:speed><gom:rel_alt>219.281</gom:rel_alt></extensions></trkpt>
   <trkpt lat="59.0798623508" lon="29.9643870745"><ele>85.738</ele><time>2026-04-25T09:51:28.620Z</time><hdop>3.0</hdop><vdop>1.625</vdop><extensions><gom:speed>0.529</gom:speed><gom:rel_alt>220.036</gom:rel_alt></extensions></trkpt>
   <trkpt lat="59.0797951279" lon="29.9642665428"><ele>85.35</ele><time>2026-04-25T09:51:56.558Z</time><hdop>3.0</hdop><vdop>1.75</vdop><extensions><gom:speed>0.539</gom:speed><gom:rel_alt>219.764</gom:rel_alt></extensions></trkpt>
   <trkpt lat="59.079707118" lon="29.9643023335"><ele>84.974</ele><time>2026-04-25T09:52:39.620Z</time><hdop>3.0</hdop><vdop>1.5</vdop><extensions><gom:speed>0.08</gom:speed><gom:rel_alt>220.155</gom:rel_alt></extensions></trkpt>
   <trkpt lat="59.0796184374" lon="29.9643463385"><ele>85.567</ele><time>2026-04-25T09:53:27.620Z</time><hdop>3.0</hdop><vdop>1.625</vdop><extensions><gom:speed>0.264</gom:speed><gom:rel_alt>220.348</gom:rel_alt></extensions></trkpt>
   <trkpt lat="59.0795341574" lon="29.9644178361"><ele>84.861</ele><time>2026-04-25T09:53:48.595Z</time><hdop>3.0</hdop><vdop>1.875</vdop><extensions><gom:speed>0.722</gom:speed><gom:rel_alt>219.778</gom:rel_alt></extensions></trkpt>
   <trkpt lat="59.0794471532" lon="29.9643497751"><ele>84.549</ele><time>2026-04-25T09:54:02.440Z</time><hdop>3.0</hdop><vdop>1.625</vdop><extensions><gom:speed>0.667</gom:speed><gom:rel_alt>219.999</gom:rel_alt></extensions></trkpt>
   <trkpt lat="59.0793556228" lon="29.9643109668"><ele>84.714</ele><time>2026-04-25T09:54:14.298Z</time><hdop>3.0</hdop><vdop>1.875</vdop><extensions><gom:speed>0.765</gom:speed><gom:rel_alt>219.984</gom:rel_alt></extensions></trkpt>
   <trkpt lat="59.0792618293" lon="29.9642869946"><ele>84.243</ele><time>2026-04-25T09:54:28.086Z</time><hdop>3.0</hdop><vdop>1.625</vdop><extensions><gom:speed>0.786</gom:speed><gom:rel_alt>220.258</gom:rel_alt></extensions></trkpt>
   <trkpt lat="59.0791827461" lon="29.9643808719"><ele>84.769</ele><time>2026-04-25T09:54:40.980Z</time><hdop>3.0</hdop><vdop>1.75</vdop><extensions><gom:speed>0.782</gom:speed><gom:rel_alt>220.174</gom:rel_alt></extensions></trkpt>
   <trkpt lat="59.0790872343" lon="29.9643934448"><ele>84.412</ele><time>2026-04-25T09:54:57.416Z</time><hdop>3.0</hdop><vdop>1.625</vdop><extensions><gom:speed>0.759</gom:speed><gom:rel_alt>219.96</gom:rel_alt></extensions></trkpt>
   <trkpt lat="59.0789963326" lon="29.9643717356"><ele>84.215</ele><time>2026-04-25T09:55:11.620Z</time><hdop>3.0</hdop><vdop>1.75</vdop><extensions><gom:speed>0.741</gom:speed><gom:rel_alt>219.889</gom:rel_alt></extensions></trkpt>
   <trkpt lat="59.0789048441" lon="29.9643991445"><ele>84.18</ele><time>2026-04-25T09:55:24.620Z</time><hdop>3.0</hdop><vdop>1.75</vdop><extensions><gom:speed>0.753</gom:speed><gom:rel_alt>220.042</gom:rel_alt></extensions></trkpt>
   <trkpt lat="59.0788361544" lon="29.9645124678"><ele>84.168</ele><time>2026-04-25T09:55:45.978Z</time><hdop>3.0</hdop><vdop>1.5</vdop><extensions><gom:speed>0.744</gom:speed><gom:rel_alt>220.443</gom:rel_alt></extensions></trkpt>
   <trkpt lat="59.0787441211" lon="29.9644963745"><ele>84.445</ele><time>2026-04-25T09:55:57.621Z</time><hdop>3.0</hdop><vdop>1.625</vdop><extensions><gom:speed>0.834</gom:speed><gom:rel_alt>219.91</gom:rel_alt></extensions></trkpt>
   <trkpt lat="59.0786539318" lon="29.964441976"><ele>83.808</ele><time>2026-04-25T09:56:13.323Z</time><hdop>3.0</hdop><vdop>1.5</vdop><extensions><gom:speed>0.735</gom:speed><gom:rel_alt>219.764</gom:rel_alt></extensions></trkpt>
   <trkpt lat="59.0785898522" lon="29.9645757512"><ele>84.07</ele><time>2026-04-25T09:56:29.621Z</time><hdop>3.0</hdop><vdop>1.75</vdop><extensions><gom:speed>0.665</gom:speed><gom:rel_alt>220.253</gom:rel_alt></extensions></trkpt>
   <trkpt lat="59.0785363337" lon="29.9644268047"><ele>84.796</ele><time>2026-04-25T09:56:51.443Z</time><hdop>3.0</hdop><vdop>1.5</vdop><extensions><gom:speed>0.486</gom:speed><gom:rel_alt>220.628</gom:rel_alt></extensions></trkpt>
   <trkpt lat="59.0784448452" lon="29.9644606676"><ele>84.252</ele><time>2026-04-25T09:57:06.620Z</time><hdop>3.0</hdop><vdop>1.5</vdop><extensions><gom:speed>0.753</gom:speed><gom:rel_alt>220.163</gom:rel_alt></extensions></trkpt>
   <trkpt lat="59.0783515547" lon="29.9644349352"><ele>84.504</ele><time>2026-04-25T09:57:25.437Z</time><hdop>3.0</hdop><vdop>1.75</vdop><extensions><gom:speed>0.575</gom:speed><gom:rel_alt>219.772</gom:rel_alt></extensions></trkpt>
   <trkpt lat="59.0782619521" lon="29.9644946143"><ele>83.042</ele><time>2026-04-25T09:57:38.621Z</time><hdop>3.0</hdop><vdop>1.375</vdop><extensions><gom:speed>0.794</gom:speed><gom:rel_alt>220.132</gom:rel_alt></extensions></trkpt>
   <trkpt lat="59.0782069249" lon="29.9646434769"><ele>84.438</ele><time>2026-04-25T09:57:48.344Z</time><hdop>3.0</hdop><vdop>1.5</vdop><extensions><gom:speed>0.766</gom:speed><gom:rel_alt>220.607</gom:rel_alt></extensions></trkpt>
   <trkpt lat="59.0781145563" lon="29.9646791838"><ele>82.158</ele><time>2026-04-25T09:58:07.440Z</time><hdop>3.0</hdop><vdop>1.375</vdop><extensions><gom:speed>0.573</gom:speed><gom:rel_alt>220.256</gom:rel_alt></extensions></trkpt>
   <trkpt lat="59.0780225231" lon="29.9647153937"><ele>82.463</ele><time>2026-04-25T09:58:28.621Z</time><hdop>3.0</hdop><vdop>1.25</vdop><extensions><gom:speed>0.755</gom:speed><gom:rel_alt>219.944</gom:rel_alt></extensions></trkpt>
   <trkpt lat="59.0780074356" lon="29.9648920004"><ele>82.311</ele><time>2026-04-25T09:58:46.156Z</time><hdop>3.0</hdop><vdop>1.25</vdop><extensions><gom:speed>0.806</gom:speed><gom:rel_alt>220.227</gom:rel_alt></extensions></trkpt>
   <trkpt lat="59.0779208506" lon="29.9649436329"><ele>82.364</ele><time>2026-04-25T09:58:56.457Z</time><hdop>3.0</hdop><vdop>1.25</vdop><extensions><gom:speed>0.909</gom:speed><gom:rel_alt>219.791</gom:rel_alt></extensions></trkpt>
   <trkpt lat="59.0778463354" lon="29.9650448025"><ele>82.182</ele><time>2026-04-25T09:59:15.515Z</time><hdop>3.0</hdop><vdop>1.25</vdop><extensions><gom:speed>0.726</gom:speed><gom:rel_alt>220.428</gom:rel_alt></extensions></trkpt>
   <trkpt lat="59.0777741254" lon="29.9651750572"><ele>81.694</ele><time>2026-04-25T10:00:46.621Z</time><hdop>3.0</hdop><vdop>1.25</vdop><extensions><gom:speed>0.753</gom:speed><gom:rel_alt>219.59</gom:rel_alt></extensions></trkpt>
   <trkpt lat="59.0776786555" lon="29.9652080819"><ele>80.901</ele><time>2026-04-25T10:04:11.622Z</time><hdop>13.375</hdop><vdop>1.25</vdop><extensions><gom:speed>2.343</gom:speed><gom:rel_alt>220.507</gom:rel_alt></extensions></trkpt>
   <trkpt lat="59.077792817" lon="29.9652100936"><ele>80.78</ele><time>2026-04-25T10:06:52.620Z</time><hdop>7.25</hdop><vdop>1.375</vdop><extensions><gom:speed>0.387</gom:speed><gom:rel_alt>219.992</gom:rel_alt></extensions></trkpt>
   <trkpt lat="59.0776989397" lon="29.9651698605"><ele>80.945</ele><time>2026-04-25T10:06:57.621Z</time><hdop>4.25</hdop><vdop>1.25</vdop><extensions><gom:speed>1.265</gom:speed><gom:rel_alt>219.611</gom:rel_alt></extensions></trkpt>
   <trkpt lat="59.0776106363" lon="29.9651262746"><ele>81.103</ele><time>2026-04-25T10:07:09.621Z</time><hdop>3.0</hdop><vdop>1.25</vdop><extensions><gom:speed>0.798</gom:speed><gom:rel_alt>220.058</gom:rel_alt></extensions></trkpt>
   <trkpt lat="59.0775382167" lon="29.964989901"><ele>81.402</ele><time>2026-04-25T10:07:26.543Z</time><hdop>3.0</hdop><vdop>1.25</vdop><extensions><gom:speed>0.781</gom:speed><gom:rel_alt>220.306</gom:rel_alt></extensions></trkpt>
   <trkpt lat="59.0774669286" lon="29.964880601"><ele>81.268</ele><time>2026-04-25T10:07:41.566Z</time><hdop>3.0</hdop><vdop>1.25</vdop><extensions><gom:speed>0.881</gom:speed><gom:rel_alt>220.132</gom:rel_alt></extensions></trkpt>
   <trkpt lat="59.0773775356" lon="29.9649018072"><ele>81.237</ele><time>2026-04-25T10:07:55.621Z</time><hdop>3.0</hdop><vdop>1.25</vdop><extensions><gom:speed>0.799</gom:speed><gom:rel_alt>219.886</gom:rel_alt></extensions></trkpt>
   <trkpt lat="59.0772864243" lon="29.9649355024"><ele>80.942</ele><time>2026-04-25T10:08:25.369Z</time><hdop>3.0</hdop><vdop>1.25</vdop><extensions><gom:speed>0.944</gom:speed><gom:rel_alt>220.084</gom:rel_alt></extensions></trkpt>
   <trkpt lat="59.0771932176" lon="29.9649593909"><ele>81.356</ele><time>2026-04-25T10:08:39.185Z</time><hdop>3.0</hdop><vdop>1.25</vdop><extensions><gom:speed>0.958</gom:speed><gom:rel_alt>220.042</gom:rel_alt></extensions></trkpt>
   <trkpt lat="59.0770996336" lon="29.9650049884"><ele>81.117</ele><time>2026-04-25T10:08:52.622Z</time><hdop>3.0</hdop><vdop>1.375</vdop><extensions><gom:speed>0.833</gom:speed><gom:rel_alt>220.364</gom:rel_alt></extensions></trkpt>
   <trkpt lat="59.077008648" lon="29.9650469818"><ele>81.59</ele><time>2026-04-25T10:09:03.063Z</time><hdop>3.0</hdop><vdop>1.375</vdop><extensions><gom:speed>1.095</gom:speed><gom:rel_alt>220.589</gom:rel_alt></extensions></trkpt>
   <trkpt lat="59.0769175368" lon="29.9651087564"><ele>81.428</ele><time>2026-04-25T10:09:19.643Z</time><hdop>3.0</hdop><vdop>1.375</vdop><extensions><gom:speed>0.92</gom:speed><gom:rel_alt>219.933</gom:rel_alt></extensions></trkpt>
   <trkpt lat="59.0768464163" lon="29.9652271927"><ele>81.713</ele><time>2026-04-25T10:09:32.383Z</time><hdop>3.0</hdop><vdop>1.25</vdop><extensions><gom:speed>0.76</gom:speed><gom:rel_alt>220.348</gom:rel_alt></extensions></trkpt>
   <trkpt lat="59.0767658243" lon="29.9653118499"><ele>81.742</ele><time>2026-04-25T10:09:53.621Z</time><hdop>3.0</hdop><vdop>1.25</vdop><extensions><gom:speed>0.803</gom:speed><gom:rel_alt>220.61</gom:rel_alt></extensions></trkpt>
   <trkpt lat="59.0766732462" lon="29.9653538432"><ele>81.487</ele><time>2026-04-25T10:10:10.621Z</time><hdop>3.0</hdop><vdop>1.375</vdop><extensions><gom:speed>0.845</gom:speed><gom:rel_alt>220.303</gom:rel_alt></extensions></trkpt>
   <trkpt lat="59.0765788241" lon="29.9653727025"><ele>81.166</ele><time>2026-04-25T10:10:29.621Z</time><hdop>3.0</hdop><vdop>1.375</vdop><extensions><gom:speed>0.845</gom:speed><gom:rel_alt>220.261</gom:rel_alt></extensions></trkpt>
   <trkpt lat="59.0765167561" lon="29.965500778"><ele>81.428</ele><time>2026-04-25T10:10:44.459Z</time><hdop>3.0</hdop><vdop>1.25</vdop><extensions><gom:speed>0.697</gom:speed><gom:rel_alt>220.079</gom:rel_alt></extensions></trkpt>
   <trkpt lat="59.0764261477" lon="29.9654999398"><ele>80.988</ele><time>2026-04-25T10:10:56.071Z</time><hdop>3.0</hdop><vdop>1.375</vdop><extensions><gom:speed>0.822</gom:speed><gom:rel_alt>220.364</gom:rel_alt></extensions></trkpt>
   <trkpt lat="59.0763362518" lon="29.965513267"><ele>81.537</ele><time>2026-04-25T10:11:20.049Z</time><hdop>3.0</hdop><vdop>1.375</vdop><extensions><gom:speed>0.929</gom:speed><gom:rel_alt>220.597</gom:rel_alt></extensions></trkpt>
   <trkpt lat="59.0762974436" lon="29.9656724394"><ele>81.96</ele><time>2026-04-25T10:11:31.347Z</time><hdop>3.0</hdop><vdop>1.375</vdop><extensions><gom:speed>0.815</gom:speed><gom:rel_alt>220.792</gom:rel_alt></extensions></trkpt>
   <trkpt lat="59.0762205396" lon="29.9655811604"><ele>81.994</ele><time>2026-04-25T10:11:41.142Z</time><hdop>3.0</hdop><vdop>1.25</vdop><extensions><gom:speed>0.996</gom:speed><gom:rel_alt>220.428</gom:rel_alt></extensions></trkpt>
   <trkpt lat="59.0761308532" lon="29.9656270095"><ele>81.733</ele><time>2026-04-25T10:11:56.589Z</time><hdop>3.0</hdop><vdop>1.25</vdop><extensions><gom:speed>0.73</gom:speed><gom:rel_alt>220.515</gom:rel_alt></extensions></trkpt>
   <trkpt lat="59.0760352576" lon="29.9656508141"><ele>81.628</ele><time>2026-04-25T10:12:11.508Z</time><hdop>3.0</hdop><vdop>1.25</vdop><extensions><gom:speed>1.167</gom:speed><gom:rel_alt>219.923</gom:rel_alt></extensions></trkpt>
   <trkpt lat="59.0759449426" lon="29.9656598665"><ele>81.839</ele><time>2026-04-25T10:12:23.306Z</time><hdop>3.0</hdop><vdop>1.25</vdop><extensions><gom:speed>0.945</gom:speed><gom:rel_alt>220.486</gom:rel_alt></extensions></trkpt>
   <trkpt lat="59.0758676196" lon="29.9657654785"><ele>81.74</ele><time>2026-04-25T10:13:01.270Z</time><hdop>3.0</hdop><vdop>1.375</vdop><extensions><gom:speed>0.665</gom:speed><gom:rel_alt>220.409</gom:rel_alt></extensions></trkpt>
   <trkpt lat="59.0758283503" lon="29.9655990977"><ele>81.789</ele><time>2026-04-25T10:13:33.620Z</time><hdop>3.0</hdop><vdop>1.375</vdop><extensions><gom:speed>0.318</gom:speed><gom:rel_alt>221.204</gom:rel_alt></extensions></trkpt>
   <trkpt lat="59.075774329" lon="29.9654502351"><ele>82.417</ele><time>2026-04-25T10:13:47.403Z</time><hdop>3.0</hdop><vdop>1.375</vdop><extensions><gom:speed>0.423</gom:speed><gom:rel_alt>221.167</gom:rel_alt></extensions></trkpt>
   <trkpt lat="59.0756917253" lon="29.9653670028"><ele>82.561</ele><time>2026-04-25T10:14:02.621Z</time><hdop>3.0</hdop><vdop>1.375</vdop><extensions><gom:speed>0.377</gom:speed><gom:rel_alt>221.019</gom:rel_alt></extensions></trkpt>
   <trkpt lat="59.0756127259" lon="29.9652727064"><ele>82.588</ele><time>2026-04-25T10:14:14.622Z</time><hdop>3.0</hdop><vdop>1.375</vdop><extensions><gom:speed>0.717</gom:speed><gom:rel_alt>221.598</gom:rel_alt></extensions></trkpt>
   <trkpt lat="59.0755239196" lon="29.9652369157"><ele>82.599</ele><time>2026-04-25T10:14:31.621Z</time><hdop>3.0</hdop><vdop>1.375</vdop><extensions><gom:speed>0.794</gom:speed><gom:rel_alt>220.861</gom:rel_alt></extensions></trkpt>
   <trkpt lat="59.0754954212" lon="29.965062153"><ele>82.296</ele><time>2026-04-25T10:14:49.090Z</time><hdop>3.0</hdop><vdop>1.375</vdop><extensions><gom:speed>0.889</gom:speed><gom:rel_alt>221.236</gom:rel_alt></extensions></trkpt>
   <trkpt lat="59.075501037" lon="29.9648859654"><ele>82.546</ele><time>2026-04-25T10:15:04.548Z</time><hdop>3.0</hdop><vdop>1.375</vdop><extensions><gom:speed>0.676</gom:speed><gom:rel_alt>221.048</gom:rel_alt></extensions></trkpt>
   <trkpt lat="59.0754741311" lon="29.964718495"><ele>82.615</ele><time>2026-04-25T10:15:29.621Z</time><hdop>3.0</hdop><vdop>1.375</vdop><extensions><gom:speed>0.91</gom:speed><gom:rel_alt>221.072</gom:rel_alt></extensions></trkpt>
   <trkpt lat="59.0754932419" lon="29.9645445705"><ele>82.479</ele><time>2026-04-25T10:15:40.165Z</time><hdop>3.0</hdop><vdop>1.375</vdop><extensions><gom:speed>0.944</gom:speed><gom:rel_alt>220.932</gom:rel_alt></extensions></trkpt>
   <trkpt lat="59.075475556" lon="29.9643714842"><ele>82.65</ele><time>2026-04-25T10:15:52.249Z</time><hdop>3.0</hdop><vdop>1.25</vdop><extensions><gom:speed>0.784</gom:speed><gom:rel_alt>221.336</gom:rel_alt></extensions></trkpt>
   <trkpt lat="59.0754697306" lon="29.9641948775"><ele>82.227</ele><time>2026-04-25T10:16:11.184Z</time><hdop>3.0</hdop><vdop>1.375</vdop><extensions><gom:speed>0.9</gom:speed><gom:rel_alt>220.903</gom:rel_alt></extensions></trkpt>
   <trkpt lat="59.0754613487" lon="29.9640056979"><ele>82.447</ele><time>2026-04-25T10:16:34.164Z</time><hdop>3.0</hdop><vdop>1.375</vdop><extensions><gom:speed>0.842</gom:speed><gom:rel_alt>220.832</gom:rel_alt></extensions></trkpt>
   <trkpt lat="59.0753983168" lon="29.9638747726"><ele>82.677</ele><time>2026-04-25T10:16:45.621Z</time><hdop>3.0</hdop><vdop>1.375</vdop><extensions><gom:speed>0.593</gom:speed><gom:rel_alt>221.606</gom:rel_alt></extensions></trkpt>
   <trkpt lat="59.0753518392" lon="29.9637171928"><ele>83.041</ele><time>2026-04-25T10:17:04.242Z</time><hdop>3.0</hdop><vdop>1.25</vdop><extensions><gom:speed>0.783</gom:speed><gom:rel_alt>221.564</gom:rel_alt></extensions></trkpt>
   <trkpt lat="59.0753266515" lon="29.9635426816"><ele>82.806</ele><time>2026-04-25T10:17:17.162Z</time><hdop>3.0</hdop><vdop>1.375</vdop><extensions><gom:speed>0.806</gom:speed><gom:rel_alt>221.009</gom:rel_alt></extensions></trkpt>
   <trkpt lat="59.0752432516" lon="29.9636149336"><ele>82.428</ele><time>2026-04-25T10:18:49.620Z</time><hdop>3.0</hdop><vdop>1.375</vdop><extensions><gom:speed>0.618</gom:speed><gom:rel_alt>221.358</gom:rel_alt></extensions></trkpt>
   <trkpt lat="59.0751501287" lon="29.9636086472"><ele>82.759</ele><time>2026-04-25T10:19:03.227Z</time><hdop>3.0</hdop><vdop>1.25</vdop><extensions><gom:speed>0.966</gom:speed><gom:rel_alt>221.479</gom:rel_alt></extensions></trkpt>
   <trkpt lat="59.0750583468" lon="29.9635743652"><ele>82.541</ele><time>2026-04-25T10:19:18.570Z</time><hdop>3.0</hdop><vdop>1.25</vdop><extensions><gom:speed>0.912</gom:speed><gom:rel_alt>221.397</gom:rel_alt></extensions></trkpt>
   <trkpt lat="59.075000847" lon="29.9634255026"><ele>82.997</ele><time>2026-04-25T10:19:31.566Z</time><hdop>3.0</hdop><vdop>1.25</vdop><extensions><gom:speed>0.915</gom:speed><gom:rel_alt>221.609</gom:rel_alt></extensions></trkpt>
   <trkpt lat="59.0749107415" lon="29.9634143547"><ele>83.508</ele><time>2026-04-25T10:19:47.620Z</time><hdop>3.0</hdop><vdop>1.25</vdop><extensions><gom:speed>0.338</gom:speed><gom:rel_alt>222.607</gom:rel_alt></extensions></trkpt>
   <trkpt lat="59.0749395333" lon="29.9632442858"><ele>83.18</ele><time>2026-04-25T10:25:46.622Z</time><hdop>3.0</hdop><vdop>1.375</vdop><extensions><gom:speed>0.329</gom:speed><gom:rel_alt>221.868</gom:rel_alt></extensions></trkpt>
   <trkpt lat="59.0750024395" lon="29.9631144502"><ele>83.316</ele><time>2026-04-25T10:25:59.621Z</time><hdop>3.0</hdop><vdop>1.375</vdop><extensions><gom:speed>0.938</gom:speed><gom:rel_alt>221.833</gom:rel_alt></extensions></trkpt>
   <trkpt lat="59.0750620349" lon="29.9629805912"><ele>83.278</ele><time>2026-04-25T10:26:07.361Z</time><hdop>3.0</hdop><vdop>1.375</vdop><extensions><gom:speed>0.964</gom:speed><gom:rel_alt>221.477</gom:rel_alt></extensions></trkpt>
   <trkpt lat="59.0751398189" lon="29.9628826905"><ele>83.172</ele><time>2026-04-25T10:26:23.502Z</time><hdop>3.0</hdop><vdop>1.375</vdop><extensions><gom:speed>0.703</gom:speed><gom:rel_alt>221.646</gom:rel_alt></extensions></trkpt>
   <trkpt lat="59.0752264459" lon="29.9629657552"><ele>84.153</ele><time>2026-04-25T10:26:50.321Z</time><hdop>3.0</hdop><vdop>1.25</vdop><extensions><gom:speed>0.88</gom:speed><gom:rel_alt>221.854</gom:rel_alt></extensions></trkpt>
   <trkpt lat="59.0753217481" lon="29.9629898951"><ele>83.663</ele><time>2026-04-25T10:27:01.622Z</time><hdop>3.0</hdop><vdop>1.375</vdop><extensions><gom:speed>0.805</gom:speed><gom:rel_alt>222.037</gom:rel_alt></extensions></trkpt>
   <trkpt lat="59.0754152483" lon="29.9629795853"><ele>83.46</ele><time>2026-04-25T10:27:18.622Z</time><hdop>3.0</hdop><vdop>1.375</vdop><extensions><gom:speed>0.837</gom:speed><gom:rel_alt>221.754</gom:rel_alt></extensions></trkpt>
   <trkpt lat="59.0755056471" lon="29.9629164696"><ele>84.026</ele><time>2026-04-25T10:27:46.097Z</time><hdop>3.0</hdop><vdop>1.375</vdop><extensions><gom:speed>0.532</gom:speed><gom:rel_alt>222.055</gom:rel_alt></extensions></trkpt>
   <trkpt lat="59.0755834311" lon="29.9628287949"><ele>83.891</ele><time>2026-04-25T10:27:59.443Z</time><hdop>3.0</hdop><vdop>1.375</vdop><extensions><gom:speed>0.733</gom:speed><gom:rel_alt>222.084</gom:rel_alt></extensions></trkpt>
   <trkpt lat="59.0756748358" lon="29.9628189043"><ele>83.931</ele><time>2026-04-25T10:28:19.623Z</time><hdop>3.0</hdop><vdop>1.375</vdop><extensions><gom:speed>0.546</gom:speed><gom:rel_alt>221.786</gom:rel_alt></extensions></trkpt>
   <trkpt lat="59.0757689227" lon="29.9628367577"><ele>83.568</ele><time>2026-04-25T10:29:50.297Z</time><hdop>3.0</hdop><vdop>1.375</vdop><extensions><gom:speed>0.586</gom:speed><gom:rel_alt>222.148</gom:rel_alt></extensions></trkpt>
   <trkpt lat="59.0758605369" lon="29.9628168926"><ele>83.646</ele><time>2026-04-25T10:30:23.504Z</time><hdop>3.0</hdop><vdop>1.375</vdop><extensions><gom:speed>0.604</gom:speed><gom:rel_alt>221.514</gom:rel_alt></extensions></trkpt>
   <trkpt lat="59.075948924" lon="29.9627681099"><ele>83.696</ele><time>2026-04-25T10:31:05.621Z</time><hdop>3.0</hdop><vdop>1.375</vdop><extensions><gom:speed>0.468</gom:speed><gom:rel_alt>222.076</gom:rel_alt></extensions></trkpt>
   <trkpt lat="59.0760280492" lon="29.9626832851"><ele>84.309</ele><time>2026-04-25T10:32:16.622Z</time><hdop>3.0</hdop><vdop>1.25</vdop><extensions><gom:speed>0.114</gom:speed><gom:rel_alt>222.61</gom:rel_alt></extensions></trkpt>
   <trkpt lat="59.0761231419" lon="29.9626708798"><ele>84.448</ele><time>2026-04-25T10:32:51.622Z</time><hdop>3.0</hdop><vdop>1.375</vdop><extensions><gom:speed>0.237</gom:speed><gom:rel_alt>222.211</gom:rel_alt></extensions></trkpt>
   <trkpt lat="59.0761961483" lon="29.9625682854"><ele>84.156</ele><time>2026-04-25T10:33:17.622Z</time><hdop>3.0</hdop><vdop>1.375</vdop><extensions><gom:speed>0.041</gom:speed><gom:rel_alt>221.957</gom:rel_alt></extensions></trkpt>
   <trkpt lat="59.0762728427" lon="29.9624715582"><ele>84.421</ele><time>2026-04-25T10:33:59.622Z</time><hdop>3.0</hdop><vdop>1.25</vdop><extensions><gom:speed>0.588</gom:speed><gom:rel_alt>222.248</gom:rel_alt></extensions></trkpt>
   <trkpt lat="59.0763640378" lon="29.962429481"><ele>84.385</ele><time>2026-04-25T10:34:23.284Z</time><hdop>3.0</hdop><vdop>1.25</vdop><extensions><gom:speed>0.417</gom:speed><gom:rel_alt>222.52</gom:rel_alt></extensions></trkpt>
   <trkpt lat="59.0764399359" lon="29.9623330053"><ele>84.644</ele><time>2026-04-25T10:35:23.500Z</time><hdop>3.0</hdop><vdop>1.375</vdop><extensions><gom:speed>0.454</gom:speed><gom:rel_alt>222.51</gom:rel_alt></extensions></trkpt>
   <trkpt lat="59.0765290355" lon="29.9623633478"><ele>84.619</ele><time>2026-04-25T10:35:43.518Z</time><hdop>3.0</hdop><vdop>1.25</vdop><extensions><gom:speed>0.521</gom:speed><gom:rel_alt>222.333</gom:rel_alt></extensions></trkpt>
   <trkpt lat="59.0766216556" lon="29.9623667844"><ele>84.959</ele><time>2026-04-25T10:36:40.623Z</time><hdop>3.75</hdop><vdop>1.375</vdop><extensions><gom:speed>1.478</gom:speed><gom:rel_alt>222.742</gom:rel_alt></extensions></trkpt>
   <trkpt lat="59.0766938238" lon="29.9622607533"><ele>85.094</ele><time>2026-04-25T10:37:00.467Z</time><hdop>3.0</hdop><vdop>1.25</vdop><extensions><gom:speed>0.358</gom:speed><gom:rel_alt>222.7</gom:rel_alt></extensions></trkpt>
   <trkpt lat="59.0767833425" lon="29.9622972984"><ele>84.878</ele><time>2026-04-25T10:37:37.622Z</time><hdop>3.0</hdop><vdop>1.375</vdop><extensions><gom:speed>0.378</gom:speed><gom:rel_alt>222.74</gom:rel_alt></extensions></trkpt>
   <trkpt lat="59.0768687541" lon="29.9623642698"><ele>85.617</ele><time>2026-04-25T10:38:02.623Z</time><hdop>3.0</hdop><vdop>1.375</vdop><extensions><gom:speed>0.709</gom:speed><gom:rel_alt>222.85</gom:rel_alt></extensions></trkpt>
   <trkpt lat="59.0769478373" lon="29.9622751702"><ele>85.903</ele><time>2026-04-25T10:38:28.505Z</time><hdop>3.0</hdop><vdop>1.25</vdop><extensions><gom:speed>0.186</gom:speed><gom:rel_alt>223.072</gom:rel_alt></extensions></trkpt>
   <trkpt lat="59.0770347577" lon="29.9622116354"><ele>85.404</ele><time>2026-04-25T10:38:45.568Z</time><hdop>3.0</hdop><vdop>1.25</vdop><extensions><gom:speed>0.62</gom:speed><gom:rel_alt>222.589</gom:rel_alt></extensions></trkpt>
   <trkpt lat="59.0771261204" lon="29.9621620983"><ele>85.516</ele><time>2026-04-25T10:39:03.623Z</time><hdop>3.0</hdop><vdop>1.25</vdop><extensions><gom:speed>0.683</gom:speed><gom:rel_alt>222.887</gom:rel_alt></extensions></trkpt>
   <trkpt lat="59.0772188243" lon="29.9621208594"><ele>85.245</ele><time>2026-04-25T10:39:26.905Z</time><hdop>3.0</hdop><vdop>1.25</vdop><extensions><gom:speed>0.741</gom:speed><gom:rel_alt>222.726</gom:rel_alt></extensions></trkpt>
   <trkpt lat="59.0773003383" lon="29.9620440811"><ele>85.564</ele><time>2026-04-25T10:39:58.523Z</time><hdop>3.0</hdop><vdop>1.25</vdop><extensions><gom:speed>0.421</gom:speed><gom:rel_alt>222.478</gom:rel_alt></extensions></trkpt>
   <trkpt lat="59.0773742248" lon="29.9619336076"><ele>85.849</ele><time>2026-04-25T10:40:17.468Z</time><hdop>3.0</hdop><vdop>1.25</vdop><extensions><gom:speed>0.621</gom:speed><gom:rel_alt>222.967</gom:rel_alt></extensions></trkpt>
   <trkpt lat="59.0774617318" lon="29.9618811369"><ele>85.945</ele><time>2026-04-25T10:40:34.371Z</time><hdop>3.0</hdop><vdop>1.25</vdop><extensions><gom:speed>0.434</gom:speed><gom:rel_alt>223.07</gom:rel_alt></extensions></trkpt>
   <trkpt lat="59.0775457185" lon="29.9619497009"><ele>86.193</ele><time>2026-04-25T10:40:51.623Z</time><hdop>3.0</hdop><vdop>1.25</vdop><extensions><gom:speed>0.698</gom:speed><gom:rel_alt>222.954</gom:rel_alt></extensions></trkpt>
   <trkpt lat="59.0776123546" lon="29.9618277442"><ele>86.214</ele><time>2026-04-25T10:41:08.610Z</time><hdop>3.0</hdop><vdop>1.375</vdop><extensions><gom:speed>0.52</gom:speed><gom:rel_alt>223.286</gom:rel_alt></extensions></trkpt>
   <trkpt lat="59.0777027534" lon="29.9618031852"><ele>86.375</ele><time>2026-04-25T10:41:28.105Z</time><hdop>3.0</hdop><vdop>1.25</vdop><extensions><gom:speed>0.668</gom:speed><gom:rel_alt>222.861</gom:rel_alt></extensions></trkpt>
   <trkpt lat="59.0777895481" lon="29.9617578391"><ele>86.477</ele><time>2026-04-25T10:42:17.467Z</time><hdop>3.125</hdop><vdop>1.25</vdop><extensions><gom:speed>0.635</gom:speed><gom:rel_alt>223.263</gom:rel_alt></extensions></trkpt>
   <trkpt lat="59.077869218" lon="29.9616756965"><ele>86.236</ele><time>2026-04-25T10:44:12.529Z</time><hdop>3.0</hdop><vdop>1.25</vdop><extensions><gom:speed>0.577</gom:speed><gom:rel_alt>223.218</gom:rel_alt></extensions></trkpt>
   <trkpt lat="59.0779638497" lon="29.9616925441"><ele>86.111</ele><time>2026-04-25T10:44:30.622Z</time><hdop>3.0</hdop><vdop>1.25</vdop><extensions><gom:speed>0.27</gom:speed><gom:rel_alt>223.001</gom:rel_alt></extensions></trkpt>
   <trkpt lat="59.0780534523" lon="29.9617093917"><ele>86.235</ele><time>2026-04-25T10:44:44.439Z</time><hdop>3.0</hdop><vdop>1.25</vdop><extensions><gom:speed>0.674</gom:speed><gom:rel_alt>223.067</gom:rel_alt></extensions></trkpt>
   <trkpt lat="59.0781348406" lon="29.9616233096"><ele>86.46</ele><time>2026-04-25T10:45:13.619Z</time><hdop>3.0</hdop><vdop>1.375</vdop><extensions><gom:speed>0.522</gom:speed><gom:rel_alt>223.083</gom:rel_alt></extensions></trkpt>
   <trkpt lat="59.0781813182" lon="29.9614724353"><ele>85.972</ele><time>2026-04-25T10:45:36.422Z</time><hdop>3.0</hdop><vdop>1.25</vdop><extensions><gom:speed>0.487</gom:speed><gom:rel_alt>223.186</gom:rel_alt></extensions></trkpt>
   <trkpt lat="59.0782505527" lon="29.9613607046"><ele>86.82</ele><time>2026-04-25T10:45:53.201Z</time><hdop>3.0</hdop><vdop>1.25</vdop><extensions><gom:speed>0.459</gom:speed><gom:rel_alt>223.392</gom:rel_alt></extensions></trkpt>
   <trkpt lat="59.0783404486" lon="29.9613402527"><ele>86.33</ele><time>2026-04-25T10:46:25.257Z</time><hdop>3.0</hdop><vdop>1.25</vdop><extensions><gom:speed>0.508</gom:speed><gom:rel_alt>223.139</gom:rel_alt></extensions></trkpt>
   <trkpt lat="59.0784336554" lon="29.9613330443"><ele>86.174</ele><time>2026-04-25T10:46:50.065Z</time><hdop>3.0</hdop><vdop>1.25</vdop><extensions><gom:speed>0.65</gom:speed><gom:rel_alt>223.511</gom:rel_alt></extensions></trkpt>
   <trkpt lat="59.0787410198" lon="29.9613971658"><ele>86.749</ele><time>2026-04-25T10:48:51.623Z</time><hdop>6.5</hdop><vdop>1.25</vdop><extensions><gom:speed>0.0</gom:speed><gom:rel_alt>224.069</gom:rel_alt></extensions></trkpt>
   <trkpt lat="59.0788301194" lon="29.9613692541"><ele>86.515</ele><time>2026-04-25T10:49:04.623Z</time><hdop>3.125</hdop><vdop>1.25</vdop><extensions><gom:speed>0.446</gom:speed><gom:rel_alt>223.947</gom:rel_alt></extensions></trkpt>
   <trkpt lat="59.0789211469" lon="29.9613752053"><ele>86.958</ele><time>2026-04-25T10:49:21.281Z</time><hdop>3.0</hdop><vdop>1.25</vdop><extensions><gom:speed>0.697</gom:speed><gom:rel_alt>224.209</gom:rel_alt></extensions></trkpt>
   <trkpt lat="59.07901603" lon="29.9613340501"><ele>87.275</ele><time>2026-04-25T10:49:43.623Z</time><hdop>3.0</hdop><vdop>1.25</vdop><extensions><gom:speed>0.671</gom:speed><gom:rel_alt>223.889</gom:rel_alt></extensions></trkpt>
   <trkpt lat="59.0791052554" lon="29.9612835072"><ele>86.87</ele><time>2026-04-25T10:50:02.622Z</time><hdop>3.0</hdop><vdop>1.25</vdop><extensions><gom:speed>0.615</gom:speed><gom:rel_alt>224.185</gom:rel_alt></extensions></trkpt>
   <trkpt lat="59.0792005576" lon="29.9612379935"><ele>86.209</ele><time>2026-04-25T10:50:24.623Z</time><hdop>3.0</hdop><vdop>1.25</vdop><extensions><gom:speed>0.789</gom:speed><gom:rel_alt>224.312</gom:rel_alt></extensions></trkpt>
   <trkpt lat="59.0793378532" lon="29.9610247579"><ele>87.031</ele><time>2026-04-25T10:51:42.625Z</time><hdop>7.625</hdop><vdop>1.25</vdop><extensions><gom:speed>0.72</gom:speed><gom:rel_alt>224.605</gom:rel_alt></extensions></trkpt>
   <trkpt lat="59.0792483345" lon="29.9610417731"><ele>87.516</ele><time>2026-04-25T10:51:56.641Z</time><hdop>3.25</hdop><vdop>1.5</vdop><extensions><gom:speed>0.11</gom:speed><gom:rel_alt>224.322</gom:rel_alt></extensions></trkpt>
   <trkpt lat="59.0792278407" lon="29.9608679325"><ele>86.86</ele><time>2026-04-25T10:52:14.825Z</time><hdop>3.0</hdop><vdop>1.25</vdop><extensions><gom:speed>0.952</gom:speed><gom:rel_alt>224.071</gom:rel_alt></extensions></trkpt>
   <trkpt lat="59.0792027369" lon="29.9606962711"><ele>86.51</ele><time>2026-04-25T10:52:28.622Z</time><hdop>3.0</hdop><vdop>1.375</vdop><extensions><gom:speed>0.874</gom:speed><gom:rel_alt>224.505</gom:rel_alt></extensions></trkpt>
   <trkpt lat="59.0791894516" lon="29.9605174851"><ele>87.251</ele><time>2026-04-25T10:52:39.424Z</time><hdop>3.0</hdop><vdop>1.25</vdop><extensions><gom:speed>0.744</gom:speed><gom:rel_alt>224.499</gom:rel_alt></extensions></trkpt>
   <trkpt lat="59.0791631324" lon="29.9603423033"><ele>86.521</ele><time>2026-04-25T10:52:56.946Z</time><hdop>3.0</hdop><vdop>1.375</vdop><extensions><gom:speed>0.604</gom:speed><gom:rel_alt>224.568</gom:rel_alt></extensions></trkpt>
   <trkpt lat="59.0791060517" lon="29.9601959553"><ele>85.283</ele><time>2026-04-25T10:55:52.623Z</time><hdop>3.75</hdop><vdop>1.375</vdop><extensions><gom:speed>0.448</gom:speed><gom:rel_alt>224.238</gom:rel_alt></extensions></trkpt>
   <trkpt lat="59.0791080214" lon="29.9600172531"><ele>85.296</ele><time>2026-04-25T10:56:04.623Z</time><hdop>3.375</hdop><vdop>1.375</vdop><extensions><gom:speed>0.738</gom:speed><gom:rel_alt>224.967</gom:rel_alt></extensions></trkpt>
   <trkpt lat="59.0790914253" lon="29.9598408979"><ele>85.254</ele><time>2026-04-25T10:56:13.371Z</time><hdop>3.0</hdop><vdop>1.375</vdop><extensions><gom:speed>0.932</gom:speed><gom:rel_alt>224.758</gom:rel_alt></extensions></trkpt>
   <trkpt lat="59.0790657347" lon="29.9596580047"><ele>85.395</ele><time>2026-04-25T10:56:23.442Z</time><hdop>3.0</hdop><vdop>1.875</vdop><extensions><gom:speed>1.021</gom:speed><gom:rel_alt>225.118</gom:rel_alt></extensions></trkpt>
   <trkpt lat="59.0790388288" lon="29.9594757822"><ele>85.079</ele><time>2026-04-25T10:56:34.622Z</time><hdop>3.0</hdop><vdop>1.625</vdop><extensions><gom:speed>0.893</gom:speed><gom:rel_alt>225.062</gom:rel_alt></extensions></trkpt>
   <trkpt lat="59.0790009426" lon="29.9593159393"><ele>85.296</ele><time>2026-04-25T10:56:46.912Z</time><hdop>3.0</hdop><vdop>1.75</vdop><extensions><gom:speed>0.814</gom:speed><gom:rel_alt>225.881</gom:rel_alt></extensions></trkpt>
   <trkpt lat="59.0789827539" lon="29.9591380753"><ele>85.712</ele><time>2026-04-25T10:56:58.190Z</time><hdop>3.0</hdop><vdop>1.375</vdop><extensions><gom:speed>0.877</gom:speed><gom:rel_alt>225.852</gom:rel_alt></extensions></trkpt>
   <trkpt lat="59.0789915549" lon="29.9589634803"><ele>85.276</ele><time>2026-04-25T10:57:11.330Z</time><hdop>3.0</hdop><vdop>1.5</vdop><extensions><gom:speed>0.805</gom:speed><gom:rel_alt>225.551</gom:rel_alt></extensions></trkpt>
   <trkpt lat="59.078966032" lon="29.9587808386"><ele>85.498</ele><time>2026-04-25T10:57:23.624Z</time><hdop>3.0</hdop><vdop>1.375</vdop><extensions><gom:speed>0.666</gom:speed><gom:rel_alt>225.538</gom:rel_alt></extensions></trkpt>
   <trkpt lat="59.079031327" lon="29.9589012865"><ele>83.454</ele><time>2026-04-25T10:58:59.622Z</time><hdop>3.75</hdop><vdop>1.375</vdop><extensions><gom:speed>0.0</gom:speed><gom:rel_alt>225.421</gom:rel_alt></extensions></trkpt>
   <trkpt lat="59.0791162357" lon="29.9589739576"><ele>83.114</ele><time>2026-04-25T11:01:15.622Z</time><hdop>3.75</hdop><vdop>1.375</vdop><extensions><gom:speed>0.278</gom:speed><gom:rel_alt>225.577</gom:rel_alt></extensions></trkpt>
   <trkpt lat="59.0792048324" lon="29.9589295335"><ele>82.757</ele><time>2026-04-25T11:02:02.622Z</time><hdop>3.75</hdop><vdop>1.375</vdop><extensions><gom:speed>0.178</gom:speed><gom:rel_alt>225.76</gom:rel_alt></extensions></trkpt>
   <trkpt lat="59.079295357" lon="29.9589180503"><ele>82.507</ele><time>2026-04-25T11:02:33.623Z</time><hdop>3.75</hdop><vdop>1.375</vdop><extensions><gom:speed>0.368</gom:speed><gom:rel_alt>226.108</gom:rel_alt></extensions></trkpt>
   <trkpt lat="59.0794399448" lon="29.9590084911"><ele>81.708</ele><time>2026-04-25T11:03:26.153Z</time><hdop>6.625</hdop><vdop>1.625</vdop><extensions><gom:speed>0.308</gom:speed><gom:rel_alt>225.173</gom:rel_alt></extensions></trkpt>
   <trkpt lat="59.0793550361" lon="29.9589462135"><ele>81.743</ele><time>2026-04-25T11:03:37.623Z</time><hdop>3.75</hdop><vdop>1.375</vdop><extensions><gom:speed>0.0</gom:speed><gom:rel_alt>224.808</gom:rel_alt></extensions></trkpt>
   <trkpt lat="59.0794069201" lon="29.9590898794"><ele>81.746</ele><time>2026-04-25T11:05:16.622Z</time><hdop>3.75</hdop><vdop>1.375</vdop><extensions><gom:speed>0.618</gom:speed><gom:rel_alt>225.551</gom:rel_alt></extensions></trkpt>
   <trkpt lat="59.0794646295" lon="29.9592371494"><ele>81.449</ele><time>2026-04-25T11:05:42.622Z</time><hdop>3.0</hdop><vdop>1.25</vdop><extensions><gom:speed>0.463</gom:speed><gom:rel_alt>225.849</gom:rel_alt></extensions></trkpt>
   <trkpt lat="59.0795279548" lon="29.9593648896"><ele>82.227</ele><time>2026-04-25T11:05:58.604Z</time><hdop>3.0</hdop><vdop>1.25</vdop><extensions><gom:speed>0.455</gom:speed><gom:rel_alt>226.222</gom:rel_alt></extensions></trkpt>
   <trkpt lat="59.0796117319" lon="29.9594422546"><ele>81.878</ele><time>2026-04-25T11:06:21.040Z</time><hdop>3.0</hdop><vdop>1.25</vdop><extensions><gom:speed>0.569</gom:speed><gom:rel_alt>226.531</gom:rel_alt></extensions></trkpt>
   <trkpt lat="59.079607038" lon="29.9596219626"><ele>82.169</ele><time>2026-04-25T11:07:43.623Z</time><hdop>3.0</hdop><vdop>1.25</vdop><extensions><gom:speed>0.673</gom:speed><gom:rel_alt>226.972</gom:rel_alt></extensions></trkpt>
   <trkpt lat="59.0797018374" lon="29.9596267403"><ele>81.72</ele><time>2026-04-25T11:07:53.119Z</time><hdop>3.0</hdop><vdop>1.25</vdop><extensions><gom:speed>0.745</gom:speed><gom:rel_alt>227.025</gom:rel_alt></extensions></trkpt>
   <trkpt lat="59.0797650369" lon="29.9597571627"><ele>81.966</ele><time>2026-04-25T11:08:04.503Z</time><hdop>3.0</hdop><vdop>1.25</vdop><extensions><gom:speed>0.833</gom:speed><gom:rel_alt>226.925</gom:rel_alt></extensions></trkpt>
   <trkpt lat="59.0798199384" lon="29.9598960508"><ele>81.887</ele><time>2026-04-25T11:08:16.621Z</time><hdop>3.0</hdop><vdop>1.25</vdop><extensions><gom:speed>0.835</gom:speed><gom:rel_alt>226.822</gom:rel_alt></extensions></trkpt>
   <trkpt lat="59.0798506161" lon="29.9600699753"><ele>82.123</ele><time>2026-04-25T11:08:31.106Z</time><hdop>3.0</hdop><vdop>1.25</vdop><extensions><gom:speed>0.726</gom:speed><gom:rel_alt>226.909</gom:rel_alt></extensions></trkpt>
   <trkpt lat="59.0799416436" lon="29.9600610067"><ele>82.562</ele><time>2026-04-25T11:08:46.621Z</time><hdop>3.0</hdop><vdop>1.25</vdop><extensions><gom:speed>0.813</gom:speed><gom:rel_alt>227.311</gom:rel_alt></extensions></trkpt>
   <trkpt lat="59.0800252531" lon="29.9599791155"><ele>82.577</ele><time>2026-04-25T11:09:05.589Z</time><hdop>3.0</hdop><vdop>1.25</vdop><extensions><gom:speed>0.402</gom:speed><gom:rel_alt>227.284</gom:rel_alt></extensions></trkpt>
   <trkpt lat="59.0801117543" lon="29.9599295784"><ele>82.617</ele><time>2026-04-25T11:09:19.622Z</time><hdop>3.0</hdop><vdop>1.25</vdop><extensions><gom:speed>0.616</gom:speed><gom:rel_alt>227.617</gom:rel_alt></extensions></trkpt>
   <trkpt lat="59.08019155" lon="29.9600206059"><ele>82.788</ele><time>2026-04-25T11:09:35.187Z</time><hdop>3.0</hdop><vdop>1.25</vdop><extensions><gom:speed>0.702</gom:speed><gom:rel_alt>227.097</gom:rel_alt></extensions></trkpt>
   <trkpt lat="59.0802672386" lon="29.9599237111"><ele>82.724</ele><time>2026-04-25T11:09:48.622Z</time><hdop>3.0</hdop><vdop>1.25</vdop><extensions><gom:speed>0.532</gom:speed><gom:rel_alt>227.374</gom:rel_alt></extensions></trkpt>
   <trkpt lat="59.0803261215" lon="29.960058995"><ele>83.086</ele><time>2026-04-25T11:10:16.622Z</time><hdop>3.0</hdop><vdop>1.25</vdop><extensions><gom:speed>0.628</gom:speed><gom:rel_alt>227.99</gom:rel_alt></extensions></trkpt>
   <trkpt lat="59.0803845434" lon="29.9601988051"><ele>83.548</ele><time>2026-04-25T11:10:33.623Z</time><hdop>3.0</hdop><vdop>1.25</vdop><extensions><gom:speed>0.797</gom:speed><gom:rel_alt>228.246</gom:rel_alt></extensions></trkpt>
   <trkpt lat="59.0803430529" lon="29.9604552076"><ele>83.45</ele><time>2026-04-25T11:12:38.623Z</time><hdop>10.875</hdop><vdop>1.375</vdop><extensions><gom:speed>0.758</gom:speed><gom:rel_alt>228.375</gom:rel_alt></extensions></trkpt>
   <trkpt lat="59.0803992536" lon="29.9603026569"><ele>83.554</ele><time>2026-04-25T11:12:42.622Z</time><hdop>6.125</hdop><vdop>1.375</vdop><extensions><gom:speed>0.478</gom:speed><gom:rel_alt>228.217</gom:rel_alt></extensions></trkpt>
   <trkpt lat="59.0804917479" lon="29.9602952808"><ele>83.801</ele><time>2026-04-25T11:12:52.057Z</time><hdop>3.0</hdop><vdop>1.25</vdop><extensions><gom:speed>0.818</gom:speed><gom:rel_alt>228.164</gom:rel_alt></extensions></trkpt>
   <trkpt lat="59.0805851223" lon="29.9602680397"><ele>83.253</ele><time>2026-04-25T11:13:02.622Z</time><hdop>3.0</hdop><vdop>1.25</vdop><extensions><gom:speed>0.782</gom:speed><gom:rel_alt>228.328</gom:rel_alt></extensions></trkpt>
   <trkpt lat="59.0806707435" lon="29.9602088634"><ele>83.802</ele><time>2026-04-25T11:13:13.622Z</time><hdop>3.0</hdop><vdop>1.25</vdop><extensions><gom:speed>0.889</gom:speed><gom:rel_alt>228.415</gom:rel_alt></extensions></trkpt>
   <trkpt lat="59.0807509164" lon="29.9601009883"><ele>83.548</ele><time>2026-04-25T11:13:23.571Z</time><hdop>3.0</hdop><vdop>1.25</vdop><extensions><gom:speed>0.956</gom:speed><gom:rel_alt>228.336</gom:rel_alt></extensions></trkpt>
   <trkpt lat="59.0808402255" lon="29.9600625992"><ele>84.032</ele><time>2026-04-25T11:13:35.623Z</time><hdop>3.0</hdop><vdop>1.375</vdop><extensions><gom:speed>0.944</gom:speed><gom:rel_alt>228.455</gom:rel_alt></extensions></trkpt>
   <trkpt lat="59.0809205242" lon="29.960147005"><ele>83.987</ele><time>2026-04-25T11:13:47.623Z</time><hdop>3.0</hdop><vdop>1.25</vdop><extensions><gom:speed>0.733</gom:speed><gom:rel_alt>228.854</gom:rel_alt></extensions></trkpt>
   <trkpt lat="59.080996548" lon="29.9600466736"><ele>84.176</ele><time>2026-04-25T11:13:59.494Z</time><hdop>3.0</hdop><vdop>1.375</vdop><extensions><gom:speed>0.979</gom:speed><gom:rel_alt>228.611</gom:rel_alt></extensions></trkpt>
   <trkpt lat="59.0810834265" lon="29.9600957077"><ele>84.371</ele><time>2026-04-25T11:14:14.553Z</time><hdop>3.0</hdop><vdop>1.25</vdop><extensions><gom:speed>0.661</gom:speed><gom:rel_alt>228.864</gom:rel_alt></extensions></trkpt>
   <trkpt lat="59.0811801536" lon="29.9601183389"><ele>84.002</ele><time>2026-04-25T11:15:09.623Z</time><hdop>3.0</hdop><vdop>1.375</vdop><extensions><gom:speed>0.982</gom:speed><gom:rel_alt>228.294</gom:rel_alt></extensions></trkpt>
   <trkpt lat="59.081272145" lon="29.9600783572"><ele>83.799</ele><time>2026-04-25T11:15:18.893Z</time><hdop>3.0</hdop><vdop>1.375</vdop><extensions><gom:speed>0.924</gom:speed><gom:rel_alt>228.085</gom:rel_alt></extensions></trkpt>
   <trkpt lat="59.0813419243" lon="29.9599499464"><ele>84.091</ele><time>2026-04-25T11:16:01.918Z</time><hdop>3.0</hdop><vdop>1.375</vdop><extensions><gom:speed>0.913</gom:speed><gom:rel_alt>228.814</gom:rel_alt></extensions></trkpt>
   <trkpt lat="59.0814351311" lon="29.9599843122"><ele>84.367</ele><time>2026-04-25T11:16:13.525Z</time><hdop>3.0</hdop><vdop>1.5</vdop><extensions><gom:speed>0.798</gom:speed><gom:rel_alt>228.484</gom:rel_alt></extensions></trkpt>
   <trkpt lat="59.0815147173" lon="29.9598916922"><ele>84.504</ele><time>2026-04-25T11:16:25.330Z</time><hdop>3.0</hdop><vdop>1.5</vdop><extensions><gom:speed>0.961</gom:speed><gom:rel_alt>228.946</gom:rel_alt></extensions></trkpt>
   <trkpt lat="59.0815784197" lon="29.959768143"><ele>84.581</ele><time>2026-04-25T11:16:37.623Z</time><hdop>3.0</hdop><vdop>1.5</vdop><extensions><gom:speed>0.864</gom:speed><gom:rel_alt>229.438</gom:rel_alt></extensions></trkpt>
   <trkpt lat="59.0816549465" lon="29.9596723378"><ele>84.588</ele><time>2026-04-25T11:16:53.115Z</time><hdop>3.0</hdop><vdop>1.375</vdop><extensions><gom:speed>0.903</gom:speed><gom:rel_alt>229.3</gom:rel_alt></extensions></trkpt>
   <trkpt lat="59.0817446329" lon="29.9597151693"><ele>84.858</ele><time>2026-04-25T11:17:04.623Z</time><hdop>3.0</hdop><vdop>1.5</vdop><extensions><gom:speed>0.924</gom:speed><gom:rel_alt>229.218</gom:rel_alt></extensions></trkpt>
   <trkpt lat="59.0818345288" lon="29.9597100564"><ele>84.791</ele><time>2026-04-25T11:17:14.892Z</time><hdop>3.0</hdop><vdop>1.5</vdop><extensions><gom:speed>0.97</gom:speed><gom:rel_alt>229.554</gom:rel_alt></extensions></trkpt>
   <trkpt lat="59.0819237542" lon="29.9596576695"><ele>85.177</ele><time>2026-04-25T11:17:29.314Z</time><hdop>3.0</hdop><vdop>1.5</vdop><extensions><gom:speed>0.919</gom:speed><gom:rel_alt>229.377</gom:rel_alt></extensions></trkpt>
   <trkpt lat="59.0820137339" lon="29.9596248962"><ele>85.171</ele><time>2026-04-25T11:17:42.380Z</time><hdop>3.0</hdop><vdop>1.5</vdop><extensions><gom:speed>0.867</gom:speed><gom:rel_alt>229.837</gom:rel_alt></extensions></trkpt>
   <trkpt lat="59.0820754247" lon="29.9594851699"><ele>85.594</ele><time>2026-04-25T11:17:56.553Z</time><hdop>3.0</hdop><vdop>1.5</vdop><extensions><gom:speed>0.749</gom:speed><gom:rel_alt>230.199</gom:rel_alt></extensions></trkpt>
   <trkpt lat="59.0821562262" lon="29.9595746048"><ele>85.502</ele><time>2026-04-25T11:18:10.623Z</time><hdop>3.0</hdop><vdop>1.375</vdop><extensions><gom:speed>0.896</gom:speed><gom:rel_alt>229.95</gom:rel_alt></extensions></trkpt>
   <trkpt lat="59.0822518218" lon="29.9595458549"><ele>85.569</ele><time>2026-04-25T11:18:33.237Z</time><hdop>3.0</hdop><vdop>1.375</vdop><extensions><gom:speed>0.674</gom:speed><gom:rel_alt>230.048</gom:rel_alt></extensions></trkpt>
   <trkpt lat="59.0823407538" lon="29.9595098127"><ele>86.009</ele><time>2026-04-25T11:18:48.210Z</time><hdop>3.0</hdop><vdop>1.375</vdop><extensions><gom:speed>0.69</gom:speed><gom:rel_alt>230.381</gom:rel_alt></extensions></trkpt>
   <trkpt lat="59.0824276323" lon="29.9594555818"><ele>86.645</ele><time>2026-04-25T11:19:09.416Z</time><hdop>3.0</hdop><vdop>1.375</vdop><extensions><gom:speed>0.81</gom:speed><gom:rel_alt>229.911</gom:rel_alt></extensions></trkpt>
   <trkpt lat="59.0825210486" lon="29.9594500497"><ele>85.877</ele><time>2026-04-25T11:19:23.572Z</time><hdop>3.0</hdop><vdop>1.375</vdop><extensions><gom:speed>0.726</gom:speed><gom:rel_alt>230.518</gom:rel_alt></extensions></trkpt>
   <trkpt lat="59.0826085556" lon="29.9593990039"><ele>86.556</ele><time>2026-04-25T11:19:43.622Z</time><hdop>3.0</hdop><vdop>1.5</vdop><extensions><gom:speed>0.729</gom:speed><gom:rel_alt>231.105</gom:rel_alt></extensions></trkpt>
   <trkpt lat="59.0827021396" lon="29.9593918793"><ele>87.03</ele><time>2026-04-25T11:19:57.576Z</time><hdop>3.0</hdop><vdop>1.375</vdop><extensions><gom:speed>0.683</gom:speed><gom:rel_alt>230.764</gom:rel_alt></extensions></trkpt>
   <trkpt lat="59.0827891437" lon="29.9593168613"><ele>86.83</ele><time>2026-04-25T11:20:10.623Z</time><hdop>3.0</hdop><vdop>1.5</vdop><extensions><gom:speed>0.931</gom:speed><gom:rel_alt>231.16</gom:rel_alt></extensions></trkpt>
   <trkpt lat="59.0828687299" lon="29.9592337128"><ele>87.262</ele><time>2026-04-25T11:20:24.470Z</time><hdop>3.0</hdop><vdop>1.375</vdop><extensions><gom:speed>0.773</gom:speed><gom:rel_alt>231.282</gom:rel_alt></extensions></trkpt>
   <trkpt lat="59.0829616433" lon="29.9592179548"><ele>87.205</ele><time>2026-04-25T11:20:37.372Z</time><hdop>3.0</hdop><vdop>1.375</vdop><extensions><gom:speed>0.887</gom:speed><gom:rel_alt>231.52</gom:rel_alt></extensions></trkpt>
   <trkpt lat="59.0830089173" lon="29.9590657395"><ele>87.828</ele><time>2026-04-25T11:20:52.430Z</time><hdop>3.0</hdop><vdop>1.375</vdop><extensions><gom:speed>0.88</gom:speed><gom:rel_alt>231.734</gom:rel_alt></extensions></trkpt>
   <trkpt lat="59.083099819" lon="29.959046964"><ele>87.471</ele><time>2026-04-25T11:21:04.391Z</time><hdop>3.0</hdop><vdop>1.375</vdop><extensions><gom:speed>0.734</gom:speed><gom:rel_alt>231.528</gom:rel_alt></extensions></trkpt>
   <trkpt lat="59.0831777288" lon="29.959134052"><ele>87.849</ele><time>2026-04-25T11:21:18.452Z</time><hdop>3.0</hdop><vdop>1.375</vdop><extensions><gom:speed>0.877</gom:speed><gom:rel_alt>231.898</gom:rel_alt></extensions></trkpt>
   <trkpt lat="59.0832703488" lon="29.9591195513"><ele>87.518</ele><time>2026-04-25T11:21:32.618Z</time><hdop>3.0</hdop><vdop>1.25</vdop><extensions><gom:speed>0.897</gom:speed><gom:rel_alt>231.803</gom:rel_alt></extensions></trkpt>
   <trkpt lat="59.0833617535" lon="29.9590980098"><ele>87.831</ele><time>2026-04-25T11:21:43.622Z</time><hdop>3.0</hdop><vdop>1.375</vdop><extensions><gom:speed>1.005</gom:speed><gom:rel_alt>231.972</gom:rel_alt></extensions></trkpt>
   <trkpt lat="59.0834436447" lon="29.9590011988"><ele>87.887</ele><time>2026-04-25T11:21:56.615Z</time><hdop>3.0</hdop><vdop>1.375</vdop><extensions><gom:speed>0.883</gom:speed><gom:rel_alt>231.858</gom:rel_alt></extensions></trkpt>
   <trkpt lat="59.0835121248" lon="29.9588852771"><ele>88.165</ele><time>2026-04-25T11:22:07.623Z</time><hdop>3.0</hdop><vdop>1.375</vdop><extensions><gom:speed>0.797</gom:speed><gom:rel_alt>232.069</gom:rel_alt></extensions></trkpt>
   <trkpt lat="59.0836099416" lon="29.9588889651"><ele>88.013</ele><time>2026-04-25T11:22:17.623Z</time><hdop>3.0</hdop><vdop>1.375</vdop><extensions><gom:speed>0.957</gom:speed><gom:rel_alt>232.085</gom:rel_alt></extensions></trkpt>
   <trkpt lat="59.0836956466" lon="29.9588271067"><ele>88.147</ele><time>2026-04-25T11:22:38.254Z</time><hdop>3.0</hdop><vdop>1.375</vdop><extensions><gom:speed>0.481</gom:speed><gom:rel_alt>231.676</gom:rel_alt></extensions></trkpt>
   <trkpt lat="59.0838233449" lon="29.9589478061"><ele>88.511</ele><time>2026-04-25T11:32:51.623Z</time><hdop>10.125</hdop><vdop>1.375</vdop><extensions><gom:speed>0.388</gom:speed><gom:rel_alt>232.751</gom:rel_alt></extensions></trkpt>
   <trkpt lat="59.0838008395" lon="29.958777402"><ele>89.116</ele><time>2026-04-25T11:33:02.257Z</time><hdop>4.0</hdop><vdop>1.375</vdop><extensions><gom:speed>0.583</gom:speed><gom:rel_alt>232.997</gom:rel_alt></extensions></trkpt>
   <trkpt lat="59.0837934215" lon="29.9585983646"><ele>88.733</ele><time>2026-04-25T11:33:12.995Z</time><hdop>3.375</hdop><vdop>1.375</vdop><extensions><gom:speed>0.976</gom:speed><gom:rel_alt>232.585</gom:rel_alt></extensions></trkpt>
   <trkpt lat="59.0838804256" lon="29.9586582113"><ele>89.004</ele><time>2026-04-25T11:33:21.623Z</time><hdop>3.0</hdop><vdop>1.5</vdop><extensions><gom:speed>0.969</gom:speed><gom:rel_alt>232.748</gom:rel_alt></extensions></trkpt>
   <trkpt lat="59.0839705311" lon="29.9587200698"><ele>89.157</ele><time>2026-04-25T11:33:32.624Z</time><hdop>3.0</hdop><vdop>1.375</vdop><extensions><gom:speed>1.013</gom:speed><gom:rel_alt>232.709</gom:rel_alt></extensions></trkpt>
   <trkpt lat="59.0840601336" lon="29.958687548"><ele>88.848</ele><time>2026-04-25T11:33:41.375Z</time><hdop>3.0</hdop><vdop>1.375</vdop><extensions><gom:speed>0.999</gom:speed><gom:rel_alt>232.466</gom:rel_alt></extensions></trkpt>
   <trkpt lat="59.0841434498" lon="29.9586114403"><ele>88.721</ele><time>2026-04-25T11:33:52.197Z</time><hdop>3.0</hdop><vdop>1.375</vdop><extensions><gom:speed>0.862</gom:speed><gom:rel_alt>232.326</gom:rel_alt></extensions></trkpt>
   <trkpt lat="59.0842279393" lon="29.9585433793"><ele>88.77</ele><time>2026-04-25T11:34:02.623Z</time><hdop>3.0</hdop><vdop>1.375</vdop><extensions><gom:speed>1.038</gom:speed><gom:rel_alt>232.027</gom:rel_alt></extensions></trkpt>
   <trkpt lat="59.0843236188" lon="29.9585163057"><ele>88.605</ele><time>2026-04-25T11:34:13.232Z</time><hdop>3.0</hdop><vdop>1.375</vdop><extensions><gom:speed>0.736</gom:speed><gom:rel_alt>232.011</gom:rel_alt></extensions></trkpt>
   <trkpt lat="59.0844076473" lon="29.9584526871"><ele>88.727</ele><time>2026-04-25T11:34:21.623Z</time><hdop>3.0</hdop><vdop>1.375</vdop><extensions><gom:speed>0.874</gom:speed><gom:rel_alt>232.437</gom:rel_alt></extensions></trkpt>
   <trkpt lat="59.0844023248" lon="29.9582666926"><ele>88.604</ele><time>2026-04-25T11:34:33.624Z</time><hdop>3.0</hdop><vdop>1.375</vdop><extensions><gom:speed>0.899</gom:speed><gom:rel_alt>232.093</gom:rel_alt></extensions></trkpt>
   <trkpt lat="59.0843507342" lon="29.9581174109"><ele>88.572</ele><time>2026-04-25T11:34:43.217Z</time><hdop>3.0</hdop><vdop>1.375</vdop><extensions><gom:speed>0.8</gom:speed><gom:rel_alt>232.141</gom:rel_alt></extensions></trkpt>
   <trkpt lat="59.0842956232" lon="29.9579727393"><ele>88.379</ele><time>2026-04-25T11:34:52.290Z</time><hdop>3.0</hdop><vdop>1.375</vdop><extensions><gom:speed>0.975</gom:speed><gom:rel_alt>232.159</gom:rel_alt></extensions></trkpt>
   <trkpt lat="59.0843011553" lon="29.9577919416"><ele>88.566</ele><time>2026-04-25T11:35:02.533Z</time><hdop>3.0</hdop><vdop>1.375</vdop><extensions><gom:speed>0.86</gom:speed><gom:rel_alt>232.386</gom:rel_alt></extensions></trkpt>
   <trkpt lat="59.0843205175" lon="29.9576197774"><ele>88.719</ele><time>2026-04-25T11:35:15.036Z</time><hdop>3.0</hdop><vdop>1.5</vdop><extensions><gom:speed>0.923</gom:speed><gom:rel_alt>231.882</gom:rel_alt></extensions></trkpt>
   <trkpt lat="59.0843062263" lon="29.9574406561"><ele>88.525</ele><time>2026-04-25T11:35:26.624Z</time><hdop>3.0</hdop><vdop>1.375</vdop><extensions><gom:speed>0.801</gom:speed><gom:rel_alt>232.437</gom:rel_alt></extensions></trkpt>
   <trkpt lat="59.084321649" lon="29.9572635465"><ele>88.326</ele><time>2026-04-25T11:35:44.624Z</time><hdop>3.0</hdop><vdop>1.375</vdop><extensions><gom:speed>0.874</gom:speed><gom:rel_alt>232.349</gom:rel_alt></extensions></trkpt>
   <trkpt lat="59.0843240379" lon="29.9570842576"><ele>88.282</ele><time>2026-04-25T11:35:56.624Z</time><hdop>3.0</hdop><vdop>1.375</vdop><extensions><gom:speed>0.839</gom:speed><gom:rel_alt>232.085</gom:rel_alt></extensions></trkpt>
   <trkpt lat="59.084304047" lon="29.9569042143"><ele>88.116</ele><time>2026-04-25T11:36:08.011Z</time><hdop>3.0</hdop><vdop>1.5</vdop><extensions><gom:speed>0.827</gom:speed><gom:rel_alt>231.929</gom:rel_alt></extensions></trkpt>
   <trkpt lat="59.0843504409" lon="29.9567442876"><ele>88.13</ele><time>2026-04-25T11:36:18.594Z</time><hdop>3.0</hdop><vdop>1.375</vdop><extensions><gom:speed>0.787</gom:speed><gom:rel_alt>232.165</gom:rel_alt></extensions></trkpt>
   <trkpt lat="59.0843544223" lon="29.9565590475"><ele>88.148</ele><time>2026-04-25T11:36:31.315Z</time><hdop>3.0</hdop><vdop>1.5</vdop><extensions><gom:speed>0.873</gom:speed><gom:rel_alt>232.212</gom:rel_alt></extensions></trkpt>
   <trkpt lat="59.0843990559" lon="29.9564062454"><ele>88.171</ele><time>2026-04-25T11:36:48.625Z</time><hdop>3.0</hdop><vdop>1.375</vdop><extensions><gom:speed>0.769</gom:speed><gom:rel_alt>232.238</gom:rel_alt></extensions></trkpt>
   <trkpt lat="59.0844862277" lon="29.9563427106"><ele>88.207</ele><time>2026-04-25T11:37:02.010Z</time><hdop>3.0</hdop><vdop>1.375</vdop><extensions><gom:speed>0.797</gom:speed><gom:rel_alt>231.924</gom:rel_alt></extensions></trkpt>
   <trkpt lat="59.0845588569" lon="29.9562389426"><ele>88.056</ele><time>2026-04-25T11:37:12.812Z</time><hdop>3.0</hdop><vdop>1.375</vdop><extensions><gom:speed>0.912</gom:speed><gom:rel_alt>232.355</gom:rel_alt></extensions></trkpt>
   <trkpt lat="59.0846532371" lon="29.956224861"><ele>88.439</ele><time>2026-04-25T11:37:30.977Z</time><hdop>3.0</hdop><vdop>1.375</vdop><extensions><gom:speed>0.852</gom:speed><gom:rel_alt>232.381</gom:rel_alt></extensions></trkpt>
   <trkpt lat="59.0847460248" lon="29.9561770842"><ele>88.783</ele><time>2026-04-25T11:37:44.516Z</time><hdop>3.0</hdop><vdop>1.5</vdop><extensions><gom:speed>0.901</gom:speed><gom:rel_alt>232.83</gom:rel_alt></extensions></trkpt>
   <trkpt lat="59.0848244375" lon="29.9560817819"><ele>88.821</ele><time>2026-04-25T11:37:55.278Z</time><hdop>3.0</hdop><vdop>1.375</vdop><extensions><gom:speed>0.889</gom:speed><gom:rel_alt>232.545</gom:rel_alt></extensions></trkpt>
   <trkpt lat="59.0848776207" lon="29.955939541"><ele>88.75</ele><time>2026-04-25T11:38:06.072Z</time><hdop>3.0</hdop><vdop>1.375</vdop><extensions><gom:speed>0.832</gom:speed><gom:rel_alt>232.97</gom:rel_alt></extensions></trkpt>
   <trkpt lat="59.0849313487" lon="29.9557941988"><ele>88.686</ele><time>2026-04-25T11:38:16.941Z</time><hdop>3.0</hdop><vdop>1.375</vdop><extensions><gom:speed>0.839</gom:speed><gom:rel_alt>232.775</gom:rel_alt></extensions></trkpt>
   <trkpt lat="59.0849440472" lon="29.9556114734"><ele>88.669</ele><time>2026-04-25T11:38:31.624Z</time><hdop>3.0</hdop><vdop>1.5</vdop><extensions><gom:speed>0.83</gom:speed><gom:rel_alt>232.838</gom:rel_alt></extensions></trkpt>
   <trkpt lat="59.0849371322" lon="29.9554355372"><ele>88.482</ele><time>2026-04-25T11:38:49.623Z</time><hdop>3.0</hdop><vdop>1.375</vdop><extensions><gom:speed>0.891</gom:speed><gom:rel_alt>232.653</gom:rel_alt></extensions></trkpt>
   <trkpt lat="59.0848469429" lon="29.9553948012"><ele>88.468</ele><time>2026-04-25T11:38:59.624Z</time><hdop>3.0</hdop><vdop>1.375</vdop><extensions><gom:speed>0.841</gom:speed><gom:rel_alt>232.822</gom:rel_alt></extensions></trkpt>
   <trkpt lat="59.0848530198" lon="29.9552136682"><ele>88.556</ele><time>2026-04-25T11:39:18.623Z</time><hdop>3.0</hdop><vdop>1.5</vdop><extensions><gom:speed>0.64</gom:speed><gom:rel_alt>232.054</gom:rel_alt></extensions></trkpt>
   <trkpt lat="59.0847674405" lon="29.9551425059"><ele>88.503</ele><time>2026-04-25T11:39:29.373Z</time><hdop>3.0</hdop><vdop>1.375</vdop><extensions><gom:speed>0.874</gom:speed><gom:rel_alt>232.735</gom:rel_alt></extensions></trkpt>
   <trkpt lat="59.0846844178" lon="29.9550663144"><ele>88.457</ele><time>2026-04-25T11:39:40.488Z</time><hdop>3.0</hdop><vdop>1.375</vdop><extensions><gom:speed>0.83</gom:speed><gom:rel_alt>232.807</gom:rel_alt></extensions></trkpt>
   <trkpt lat="59.0845933484" lon="29.9550846707"><ele>88.791</ele><time>2026-04-25T11:39:50.615Z</time><hdop>3.0</hdop><vdop>1.375</vdop><extensions><gom:speed>1.005</gom:speed><gom:rel_alt>232.49</gom:rel_alt></extensions></trkpt>
   <trkpt lat="59.0844992196" lon="29.9550661467"><ele>88.291</ele><time>2026-04-25T11:40:05.418Z</time><hdop>3.0</hdop><vdop>1.5</vdop><extensions><gom:speed>0.9</gom:speed><gom:rel_alt>232.233</gom:rel_alt></extensions></trkpt>
   <trkpt lat="59.0844039174" lon="29.9550808989"><ele>88.444</ele><time>2026-04-25T11:40:15.936Z</time><hdop>3.0</hdop><vdop>1.375</vdop><extensions><gom:speed>1.07</gom:speed><gom:rel_alt>232.799</gom:rel_alt></extensions></trkpt>
   <trkpt lat="59.0843213556" lon="29.9551554978"><ele>88.286</ele><time>2026-04-25T11:40:28.958Z</time><hdop>3.0</hdop><vdop>1.5</vdop><extensions><gom:speed>0.81</gom:speed><gom:rel_alt>232.865</gom:rel_alt></extensions></trkpt>
   <trkpt lat="59.0842527498" lon="29.9552710004"><ele>88.628</ele><time>2026-04-25T11:41:09.957Z</time><hdop>3.0</hdop><vdop>2.0</vdop><extensions><gom:speed>0.427</gom:speed><gom:rel_alt>233.467</gom:rel_alt></extensions></trkpt>
   <trkpt lat="59.0841612194" lon="29.9552998342"><ele>88.965</ele><time>2026-04-25T11:41:27.598Z</time><hdop>3.0</hdop><vdop>1.375</vdop><extensions><gom:speed>0.478</gom:speed><gom:rel_alt>233.465</gom:rel_alt></extensions></trkpt>
   <trkpt lat="59.0840728322" lon="29.9553468567"><ele>88.161</ele><time>2026-04-25T11:41:53.435Z</time><hdop>3.0</hdop><vdop>1.375</vdop><extensions><gom:speed>0.643</gom:speed><gom:rel_alt>233.597</gom:rel_alt></extensions></trkpt>
   <trkpt lat="59.0840090459" lon="29.955478704"><ele>87.492</ele><time>2026-04-25T11:42:35.471Z</time><hdop>3.0</hdop><vdop>1.625</vdop><extensions><gom:speed>0.831</gom:speed><gom:rel_alt>232.965</gom:rel_alt></extensions></trkpt>
   <trkpt lat="59.083921958" lon="29.9555263132"><ele>85.871</ele><time>2026-04-25T11:42:48.517Z</time><hdop>3.0</hdop><vdop>1.375</vdop><extensions><gom:speed>0.845</gom:speed><gom:rel_alt>233.499</gom:rel_alt></extensions></trkpt>
   <trkpt lat="59.0838348281" lon="29.9555728328"><ele>85.942</ele><time>2026-04-25T11:43:02.624Z</time><hdop>3.0</hdop><vdop>1.375</vdop><extensions><gom:speed>0.785</gom:speed><gom:rel_alt>233.758</gom:rel_alt></extensions></trkpt>
   <trkpt lat="59.083750548" lon="29.9556507007"><ele>85.379</ele><time>2026-04-25T11:43:21.624Z</time><hdop>3.0</hdop><vdop>1.375</vdop><extensions><gom:speed>0.733</gom:speed><gom:rel_alt>233.877</gom:rel_alt></extensions></trkpt>
   <trkpt lat="59.0836547429" lon="29.9556422349"><ele>85.136</ele><time>2026-04-25T11:43:37.379Z</time><hdop>3.0</hdop><vdop>1.375</vdop><extensions><gom:speed>0.775</gom:speed><gom:rel_alt>233.811</gom:rel_alt></extensions></trkpt>
   <trkpt lat="59.0835982489" lon="29.9557845597"><ele>84.515</ele><time>2026-04-25T11:44:27.175Z</time><hdop>3.0</hdop><vdop>1.375</vdop><extensions><gom:speed>0.847</gom:speed><gom:rel_alt>233.562</gom:rel_alt></extensions></trkpt>
   <trkpt lat="59.0835164415" lon="29.9558641877"><ele>84.938</ele><time>2026-04-25T11:44:56.624Z</time><hdop>3.0</hdop><vdop>1.375</vdop><extensions><gom:speed>0.442</gom:speed><gom:rel_alt>234.281</gom:rel_alt></extensions></trkpt>
   <trkpt lat="59.0834221451" lon="29.9558546324"><ele>84.937</ele><time>2026-04-25T11:45:24.236Z</time><hdop>3.0</hdop><vdop>1.25</vdop><extensions><gom:speed>0.631</gom:speed><gom:rel_alt>234.617</gom:rel_alt></extensions></trkpt>
   <trkpt lat="59.0833393319" lon="29.955922442"><ele>84.41</ele><time>2026-04-25T11:46:46.277Z</time><hdop>3.0</hdop><vdop>1.25</vdop><extensions><gom:speed>0.284</gom:speed><gom:rel_alt>234.912</gom:rel_alt></extensions></trkpt>
   <trkpt lat="59.08325962" lon="29.9560039141"><ele>84.764</ele><time>2026-04-25T11:46:58.625Z</time><hdop>3.0</hdop><vdop>1.375</vdop><extensions><gom:speed>0.4</gom:speed><gom:rel_alt>234.939</gom:rel_alt></extensions></trkpt>
   <trkpt lat="59.0831690535" lon="29.9560382799"><ele>84.68</ele><time>2026-04-25T11:47:24.477Z</time><hdop>3.0</hdop><vdop>1.375</vdop><extensions><gom:speed>0.526</gom:speed><gom:rel_alt>234.783</gom:rel_alt></extensions></trkpt>
   <trkpt lat="59.0830787385" lon="29.956071556"><ele>84.499</ele><time>2026-04-25T11:49:03.626Z</time><hdop>3.0</hdop><vdop>1.25</vdop><extensions><gom:speed>0.142</gom:speed><gom:rel_alt>235.829</gom:rel_alt></extensions></trkpt>
   <trkpt lat="59.0829893455" lon="29.9561079335"><ele>84.313</ele><time>2026-04-25T11:49:35.624Z</time><hdop>3.0</hdop><vdop>1.25</vdop><extensions><gom:speed>0.091</gom:speed><gom:rel_alt>234.331</gom:rel_alt></extensions></trkpt>
   <trkpt lat="59.0829040177" lon="29.9561770004"><ele>84.416</ele><time>2026-04-25T11:50:00.624Z</time><hdop>3.75</hdop><vdop>1.25</vdop><extensions><gom:speed>0.418</gom:speed><gom:rel_alt>235.462</gom:rel_alt></extensions></trkpt>
   <trkpt lat="59.0828130322" lon="29.9561707978"><ele>83.417</ele><time>2026-04-25T11:50:43.625Z</time><hdop>3.75</hdop><vdop>1.375</vdop><extensions><gom:speed>0.0</gom:speed><gom:rel_alt>235.095</gom:rel_alt></extensions></trkpt>
   <trkpt lat="59.0827230524" lon="29.9561543692"><ele>83.393</ele><time>2026-04-25T11:51:39.625Z</time><hdop>3.75</hdop><vdop>1.25</vdop><extensions><gom:speed>0.0</gom:speed><gom:rel_alt>235.108</gom:rel_alt></extensions></trkpt>
   <trkpt lat="59.0826323183" lon="29.9561599851"><ele>82.817</ele><time>2026-04-25T11:51:56.624Z</time><hdop>3.75</hdop><vdop>1.25</vdop><extensions><gom:speed>0.658</gom:speed><gom:rel_alt>234.294</gom:rel_alt></extensions></trkpt>
   <trkpt lat="59.082539824" lon="29.9561792635"><ele>83.17</ele><time>2026-04-25T11:52:06.626Z</time><hdop>3.75</hdop><vdop>1.25</vdop><extensions><gom:speed>0.858</gom:speed><gom:rel_alt>234.252</gom:rel_alt></extensions></trkpt>
   <trkpt lat="59.0824661471" lon="29.9562925868"><ele>83.252</ele><time>2026-04-25T11:52:22.625Z</time><hdop>3.75</hdop><vdop>1.375</vdop><extensions><gom:speed>0.748</gom:speed><gom:rel_alt>234.825</gom:rel_alt></extensions></trkpt>
   <trkpt lat="59.0823800231" lon="29.9563565407"><ele>83.547</ele><time>2026-04-25T11:52:44.624Z</time><hdop>3.75</hdop><vdop>1.25</vdop><extensions><gom:speed>0.668</gom:speed><gom:rel_alt>234.5</gom:rel_alt></extensions></trkpt>
   <trkpt lat="59.0823582301" lon="29.9565377575"><ele>83.795</ele><time>2026-04-25T11:53:07.624Z</time><hdop>4.0</hdop><vdop>1.375</vdop><extensions><gom:speed>0.208</gom:speed><gom:rel_alt>234.355</gom:rel_alt></extensions></trkpt>
   <trkpt lat="59.0823538296" lon="29.9567222432"><ele>83.653</ele><time>2026-04-25T11:53:15.624Z</time><hdop>3.875</hdop><vdop>1.375</vdop><extensions><gom:speed>0.808</gom:speed><gom:rel_alt>234.204</gom:rel_alt></extensions></trkpt>
   <trkpt lat="59.0822918454" lon="29.9568522465"><ele>83.197</ele><time>2026-04-25T11:53:26.625Z</time><hdop>5.25</hdop><vdop>1.375</vdop><extensions><gom:speed>0.948</gom:speed><gom:rel_alt>234.643</gom:rel_alt></extensions></trkpt>
   <trkpt lat="59.0822259218" lon="29.9569805734"><ele>83.223</ele><time>2026-04-25T11:53:45.140Z</time><hdop>3.375</hdop><vdop>1.375</vdop><extensions><gom:speed>0.769</gom:speed><gom:rel_alt>234.963</gom:rel_alt></extensions></trkpt>
   <trkpt lat="59.082135942" lon="29.9570086528"><ele>83.444</ele><time>2026-04-25T11:54:05.625Z</time><hdop>3.25</hdop><vdop>1.375</vdop><extensions><gom:speed>0.869</gom:speed><gom:rel_alt>234.506</gom:rel_alt></extensions></trkpt>
   <trkpt lat="59.0820927333" lon="29.9568507377"><ele>83.5</ele><time>2026-04-25T11:54:14.476Z</time><hdop>3.25</hdop><vdop>1.375</vdop><extensions><gom:speed>0.917</gom:speed><gom:rel_alt>234.027</gom:rel_alt></extensions></trkpt>
   <trkpt lat="59.0820184278" lon="29.9569586128"><ele>83.607</ele><time>2026-04-25T11:54:28.100Z</time><hdop>3.0</hdop><vdop>1.5</vdop><extensions><gom:speed>0.959</gom:speed><gom:rel_alt>234.041</gom:rel_alt></extensions></trkpt>
   <trkpt lat="59.0819433259" lon="29.9570716847"><ele>83.297</ele><time>2026-04-25T11:54:50.018Z</time><hdop>3.0</hdop><vdop>1.375</vdop><extensions><gom:speed>0.792</gom:speed><gom:rel_alt>234.492</gom:rel_alt></extensions></trkpt>
   <trkpt lat="59.08185343" lon="29.9570588604"><ele>83.521</ele><time>2026-04-25T11:54:59.878Z</time><hdop>3.0</hdop><vdop>1.375</vdop><extensions><gom:speed>1.031</gom:speed><gom:rel_alt>234.059</gom:rel_alt></extensions></trkpt>
   <trkpt lat="59.0818096345" lon="29.9572264985"><ele>83.516</ele><time>2026-04-25T11:55:20.617Z</time><hdop>3.0</hdop><vdop>1.375</vdop><extensions><gom:speed>0.737</gom:speed><gom:rel_alt>234.804</gom:rel_alt></extensions></trkpt>
   <trkpt lat="59.0817720417" lon="29.9573889397"><ele>83.836</ele><time>2026-04-25T11:55:31.295Z</time><hdop>3.0</hdop><vdop>1.375</vdop><extensions><gom:speed>0.872</gom:speed><gom:rel_alt>235.079</gom:rel_alt></extensions></trkpt>
   <trkpt lat="59.0817050284" lon="29.9572550807"><ele>83.915</ele><time>2026-04-25T11:55:44.576Z</time><hdop>3.0</hdop><vdop>1.375</vdop><extensions><gom:speed>0.708</gom:speed><gom:rel_alt>234.722</gom:rel_alt></extensions></trkpt>
   <trkpt lat="59.0816152163" lon="29.9572301027"><ele>83.785</ele><time>2026-04-25T11:55:57.896Z</time><hdop>3.0</hdop><vdop>1.375</vdop><extensions><gom:speed>0.921</gom:speed><gom:rel_alt>234.78</gom:rel_alt></extensions></trkpt>
   <trkpt lat="59.0815245241" lon="29.9572352995"><ele>83.522</ele><time>2026-04-25T11:56:10.313Z</time><hdop>3.0</hdop><vdop>1.375</vdop><extensions><gom:speed>0.862</gom:speed><gom:rel_alt>234.722</gom:rel_alt></extensions></trkpt>
   <trkpt lat="59.0814465305" lon="29.9571436853"><ele>83.515</ele><time>2026-04-25T11:56:26.526Z</time><hdop>3.0</hdop><vdop>1.375</vdop><extensions><gom:speed>0.849</gom:speed><gom:rel_alt>234.791</gom:rel_alt></extensions></trkpt>
   <trkpt lat="59.0813687464" lon="29.9572420888"><ele>83.434</ele><time>2026-04-25T11:56:38.624Z</time><hdop>3.0</hdop><vdop>1.375</vdop><extensions><gom:speed>0.913</gom:speed><gom:rel_alt>234.569</gom:rel_alt></extensions></trkpt>
   <trkpt lat="59.081299931" lon="29.9573660571"><ele>83.473</ele><time>2026-04-25T11:56:52.321Z</time><hdop>3.0</hdop><vdop>1.375</vdop><extensions><gom:speed>0.703</gom:speed><gom:rel_alt>233.893</gom:rel_alt></extensions></trkpt>
   <trkpt lat="59.0812064309" lon="29.9573482875"><ele>83.202</ele><time>2026-04-25T11:57:05.316Z</time><hdop>3.0</hdop><vdop>1.375</vdop><extensions><gom:speed>0.825</gom:speed><gom:rel_alt>234.492</gom:rel_alt></extensions></trkpt>
   <trkpt lat="59.0811157387" lon="29.9573530652"><ele>83.596</ele><time>2026-04-25T11:57:22.625Z</time><hdop>3.0</hdop><vdop>1.375</vdop><extensions><gom:speed>0.518</gom:speed><gom:rel_alt>234.926</gom:rel_alt></extensions></trkpt>
   <trkpt lat="59.0810290279" lon="29.9574239761"><ele>83.704</ele><time>2026-04-25T11:57:41.594Z</time><hdop>3.0</hdop><vdop>1.375</vdop><extensions><gom:speed>0.478</gom:speed><gom:rel_alt>234.593</gom:rel_alt></extensions></trkpt>
   <trkpt lat="59.0809390482" lon="29.9573856708"><ele>83.545</ele><time>2026-04-25T11:58:00.625Z</time><hdop>3.0</hdop><vdop>1.25</vdop><extensions><gom:speed>0.775</gom:speed><gom:rel_alt>234.725</gom:rel_alt></extensions></trkpt>
   <trkpt lat="59.0808485236" lon="29.9573896941"><ele>82.998</ele><time>2026-04-25T11:58:23.136Z</time><hdop>3.0</hdop><vdop>1.375</vdop><extensions><gom:speed>0.899</gom:speed><gom:rel_alt>233.729</gom:rel_alt></extensions></trkpt>
   <trkpt lat="59.0808075361" lon="29.9575575836"><ele>83.56</ele><time>2026-04-25T11:58:36.491Z</time><hdop>3.0</hdop><vdop>1.375</vdop><extensions><gom:speed>0.852</gom:speed><gom:rel_alt>234.59</gom:rel_alt></extensions></trkpt>
   <trkpt lat="59.0807574542" lon="29.9577054404"><ele>83.595</ele><time>2026-04-25T11:58:52.251Z</time><hdop>3.0</hdop><vdop>1.375</vdop><extensions><gom:speed>0.634</gom:speed><gom:rel_alt>234.606</gom:rel_alt></extensions></trkpt>
   <trkpt lat="59.0806627387" lon="29.9576797918"><ele>83.68</ele><time>2026-04-25T11:59:10.557Z</time><hdop>3.0</hdop><vdop>1.375</vdop><extensions><gom:speed>0.701</gom:speed><gom:rel_alt>234.944</gom:rel_alt></extensions></trkpt>
   <trkpt lat="59.0805890199" lon="29.9578017485"><ele>83.268</ele><time>2026-04-25T11:59:29.627Z</time><hdop>3.0</hdop><vdop>1.375</vdop><extensions><gom:speed>0.768</gom:speed><gom:rel_alt>234.54</gom:rel_alt></extensions></trkpt>
   <trkpt lat="59.0804998364" lon="29.9578275647"><ele>83.654</ele><time>2026-04-25T11:59:48.626Z</time><hdop>3.0</hdop><vdop>1.25</vdop><extensions><gom:speed>0.814</gom:speed><gom:rel_alt>235.177</gom:rel_alt></extensions></trkpt>
   <trkpt lat="59.0804107368" lon="29.957880706"><ele>83.645</ele><time>2026-04-25T12:00:04.625Z</time><hdop>3.0</hdop><vdop>1.375</vdop><extensions><gom:speed>0.461</gom:speed><gom:rel_alt>235.01</gom:rel_alt></extensions></trkpt>
   <trkpt lat="59.0803250319" lon="29.9578276486"><ele>83.568</ele><time>2026-04-25T12:00:23.626Z</time><hdop>3.0</hdop><vdop>1.25</vdop><extensions><gom:speed>0.755</gom:speed><gom:rel_alt>234.804</gom:rel_alt></extensions></trkpt>
   <trkpt lat="59.0802407518" lon="29.9577603419"><ele>83.624</ele><time>2026-04-25T12:01:02.100Z</time><hdop>3.0</hdop><vdop>1.25</vdop><extensions><gom:speed>0.743</gom:speed><gom:rel_alt>234.799</gom:rel_alt></extensions></trkpt>
   <trkpt lat="59.0801588187" lon="29.957852459"><ele>83.58</ele><time>2026-04-25T12:01:13.139Z</time><hdop>3.0</hdop><vdop>1.25</vdop><extensions><gom:speed>0.903</gom:speed><gom:rel_alt>234.63</gom:rel_alt></extensions></trkpt>
   <trkpt lat="59.0800780172" lon="29.9579299916"><ele>83.493</ele><time>2026-04-25T12:01:26.258Z</time><hdop>3.0</hdop><vdop>1.375</vdop><extensions><gom:speed>0.823</gom:speed><gom:rel_alt>234.931</gom:rel_alt></extensions></trkpt>
   <trkpt lat="59.080072527" lon="29.9581134715"><ele>83.461</ele><time>2026-04-25T12:01:50.625Z</time><hdop>3.0</hdop><vdop>1.25</vdop><extensions><gom:speed>0.826</gom:speed><gom:rel_alt>235.074</gom:rel_alt></extensions></trkpt>
   <trkpt lat="59.0800871534" lon="29.9582956102"><ele>83.529</ele><time>2026-04-25T12:02:01.626Z</time><hdop>3.0</hdop><vdop>1.25</vdop><extensions><gom:speed>0.685</gom:speed><gom:rel_alt>235.253</gom:rel_alt></extensions></trkpt>
   <trkpt lat="59.0800076511" lon="29.9584051617"><ele>83.844</ele><time>2026-04-25T12:02:17.298Z</time><hdop>3.0</hdop><vdop>1.25</vdop><extensions><gom:speed>0.76</gom:speed><gom:rel_alt>234.873</gom:rel_alt></extensions></trkpt>
   <trkpt lat="59.0799246283" lon="29.9584806826"><ele>83.472</ele><time>2026-04-25T12:02:39.625Z</time><hdop>3.0</hdop><vdop>1.25</vdop><extensions><gom:speed>0.492</gom:speed><gom:rel_alt>235.034</gom:rel_alt></extensions></trkpt>
   <trkpt lat="59.0798346486" lon="29.9584541958"><ele>83.541</ele><time>2026-04-25T12:02:53.626Z</time><hdop>3.0</hdop><vdop>1.25</vdop><extensions><gom:speed>0.86</gom:speed><gom:rel_alt>235.06</gom:rel_alt></extensions></trkpt>
   <trkpt lat="59.0797753466" lon="29.9583141342"><ele>83.59</ele><time>2026-04-25T12:03:29.019Z</time><hdop>3.0</hdop><vdop>1.25</vdop><extensions><gom:speed>0.579</gom:speed><gom:rel_alt>234.986</gom:rel_alt></extensions></trkpt>
   <trkpt lat="59.0796819303" lon="29.9583075125"><ele>83.75</ele><time>2026-04-25T12:03:42.574Z</time><hdop>3.0</hdop><vdop>1.25</vdop><extensions><gom:speed>0.825</gom:speed><gom:rel_alt>234.902</gom:rel_alt></extensions></trkpt>
   <trkpt lat="59.0795988238" lon="29.9583880626"><ele>83.635</ele><time>2026-04-25T12:04:39.625Z</time><hdop>3.0</hdop><vdop>1.25</vdop><extensions><gom:speed>0.864</gom:speed><gom:rel_alt>235.018</gom:rel_alt></extensions></trkpt>
   <trkpt lat="59.0795048207" lon="29.9583969474"><ele>83.399</ele><time>2026-04-25T12:04:53.098Z</time><hdop>3.0</hdop><vdop>1.25</vdop><extensions><gom:speed>0.928</gom:speed><gom:rel_alt>235.124</gom:rel_alt></extensions></trkpt>
   <trkpt lat="59.0794237258" lon="29.9583132122"><ele>83.932</ele><time>2026-04-25T12:05:22.434Z</time><hdop>3.0</hdop><vdop>1.25</vdop><extensions><gom:speed>0.828</gom:speed><gom:rel_alt>235.488</gom:rel_alt></extensions></trkpt>
   <trkpt lat="59.0793427566" lon="29.9583925888"><ele>83.427</ele><time>2026-04-25T12:07:39.435Z</time><hdop>3.0</hdop><vdop>1.25</vdop><extensions><gom:speed>0.374</gom:speed><gom:rel_alt>235.005</gom:rel_alt></extensions></trkpt>
   <trkpt lat="59.0792635476" lon="29.9584781681"><ele>83.515</ele><time>2026-04-25T12:07:56.626Z</time><hdop>3.0</hdop><vdop>1.25</vdop><extensions><gom:speed>0.19</gom:speed><gom:rel_alt>235.293</gom:rel_alt></extensions></trkpt>
   <trkpt lat="59.0791916309" lon="29.9585857917"><ele>83.68</ele><time>2026-04-25T12:08:20.627Z</time><hdop>3.0</hdop><vdop>1.25</vdop><extensions><gom:speed>0.389</gom:speed><gom:rel_alt>235.214</gom:rel_alt></extensions></trkpt>
   <trkpt lat="59.0791636354" lon="29.9587546032"><ele>83.829</ele><time>2026-04-25T12:08:59.239Z</time><hdop>3.0</hdop><vdop>1.25</vdop><extensions><gom:speed>0.313</gom:speed><gom:rel_alt>235.655</gom:rel_alt></extensions></trkpt>
   <trkpt lat="59.0791609531" lon="29.9589830939"><ele>84.096</ele><time>2026-04-25T12:09:44.374Z</time><hdop>3.375</hdop><vdop>1.25</vdop><extensions><gom:speed>1.198</gom:speed><gom:rel_alt>236.12</gom:rel_alt></extensions></trkpt>
   <trkpt lat="59.0793127494" lon="29.9588007875"><ele>84.864</ele><time>2026-04-25T12:13:51.629Z</time><hdop>10.25</hdop><vdop>1.25</vdop><extensions><gom:speed>0.0</gom:speed><gom:rel_alt>237.227</gom:rel_alt></extensions></trkpt>
   <trkpt lat="59.079194355" lon="29.9588851933"><ele>84.877</ele><time>2026-04-25T12:13:52.628Z</time><hdop>8.375</hdop><vdop>1.25</vdop><extensions><gom:speed>0.0</gom:speed><gom:rel_alt>237.021</gom:rel_alt></extensions></trkpt>
   <trkpt lat="59.079095239" lon="29.9589238339"><ele>85.355</ele><time>2026-04-25T12:14:01.628Z</time><hdop>3.875</hdop><vdop>1.375</vdop><extensions><gom:speed>0.158</gom:speed><gom:rel_alt>236.942</gom:rel_alt></extensions></trkpt>
   <trkpt lat="59.0790019484" lon="29.9589395918"><ele>85.489</ele><time>2026-04-25T12:14:12.627Z</time><hdop>3.75</hdop><vdop>1.25</vdop><extensions><gom:speed>0.548</gom:speed><gom:rel_alt>236.421</gom:rel_alt></extensions></trkpt>
   <trkpt lat="59.0789176265" lon="29.9590131011"><ele>84.848</ele><time>2026-04-25T12:14:26.628Z</time><hdop>3.0</hdop><vdop>1.375</vdop><extensions><gom:speed>0.667</gom:speed><gom:rel_alt>236.117</gom:rel_alt></extensions></trkpt>
   <trkpt lat="59.0788759265" lon="29.9591740337"><ele>84.858</ele><time>2026-04-25T12:15:04.407Z</time><hdop>3.0</hdop><vdop>1.25</vdop><extensions><gom:speed>0.24</gom:speed><gom:rel_alt>236.463</gom:rel_alt></extensions></trkpt>
   <trkpt lat="59.0788411416" lon="29.9593363073"><ele>84.424</ele><time>2026-04-25T12:15:16.629Z</time><hdop>3.0</hdop><vdop>1.375</vdop><extensions><gom:speed>0.25</gom:speed><gom:rel_alt>236.183</gom:rel_alt></extensions></trkpt>
   <trkpt lat="59.0787770201" lon="29.9594643828"><ele>84.264</ele><time>2026-04-25T12:15:37.627Z</time><hdop>3.0</hdop><vdop>1.25</vdop><extensions><gom:speed>0.612</gom:speed><gom:rel_alt>236.094</gom:rel_alt></extensions></trkpt>
   <trkpt lat="59.0786962185" lon="29.9593798094"><ele>84.404</ele><time>2026-04-25T12:15:49.627Z</time><hdop>3.0</hdop><vdop>1.25</vdop><extensions><gom:speed>0.785</gom:speed><gom:rel_alt>236.173</gom:rel_alt></extensions></trkpt>
   <trkpt lat="59.078664954" lon="29.9592073936"><ele>84.563</ele><time>2026-04-25T12:16:08.588Z</time><hdop>3.0</hdop><vdop>1.375</vdop><extensions><gom:speed>0.999</gom:speed><gom:rel_alt>236.16</gom:rel_alt></extensions></trkpt>
   <trkpt lat="59.0786361203" lon="29.9590415996"><ele>84.724</ele><time>2026-04-25T12:16:20.282Z</time><hdop>3.0</hdop><vdop>1.25</vdop><extensions><gom:speed>0.82</gom:speed><gom:rel_alt>235.734</gom:rel_alt></extensions></trkpt>
   <trkpt lat="59.0785653351" lon="29.9589338083"><ele>84.281</ele><time>2026-04-25T12:16:29.507Z</time><hdop>3.0</hdop><vdop>1.25</vdop><extensions><gom:speed>0.929</gom:speed><gom:rel_alt>235.943</gom:rel_alt></extensions></trkpt>
   <trkpt lat="59.0785010459" lon="29.9588038888"><ele>84.899</ele><time>2026-04-25T12:16:44.330Z</time><hdop>3.0</hdop><vdop>1.25</vdop><extensions><gom:speed>0.619</gom:speed><gom:rel_alt>236.355</gom:rel_alt></extensions></trkpt>
   <trkpt lat="59.078398619" lon="29.9588763923"><ele>84.129</ele><time>2026-04-25T12:18:16.628Z</time><hdop>9.625</hdop><vdop>1.25</vdop><extensions><gom:speed>0.81</gom:speed><gom:rel_alt>236.532</gom:rel_alt></extensions></trkpt>
   <trkpt lat="59.0783051189" lon="29.9589445372"><ele>84.683</ele><time>2026-04-25T12:18:59.626Z</time><hdop>3.125</hdop><vdop>1.375</vdop><extensions><gom:speed>0.553</gom:speed><gom:rel_alt>236.403</gom:rel_alt></extensions></trkpt>
   <trkpt lat="59.0782169413" lon="29.9589080759"><ele>84.255</ele><time>2026-04-25T12:19:14.461Z</time><hdop>3.0</hdop><vdop>1.25</vdop><extensions><gom:speed>0.576</gom:speed><gom:rel_alt>236.323</gom:rel_alt></extensions></trkpt>
   <trkpt lat="59.07812583" lon="29.9588903062"><ele>84.443</ele><time>2026-04-25T12:19:38.263Z</time><hdop>3.0</hdop><vdop>1.25</vdop><extensions><gom:speed>0.684</gom:speed><gom:rel_alt>236.596</gom:rel_alt></extensions></trkpt>
   <trkpt lat="59.0780607445" lon="29.9590147775"><ele>83.775</ele><time>2026-04-25T12:19:57.520Z</time><hdop>3.0</hdop><vdop>1.25</vdop><extensions><gom:speed>0.451</gom:speed><gom:rel_alt>236.316</gom:rel_alt></extensions></trkpt>
   <trkpt lat="59.0779929349" lon="29.959129861"><ele>84.591</ele><time>2026-04-25T12:20:17.085Z</time><hdop>3.0</hdop><vdop>1.375</vdop><extensions><gom:speed>0.311</gom:speed><gom:rel_alt>236.831</gom:rel_alt></extensions></trkpt>
   <trkpt lat="59.0779242452" lon="29.9592525721"><ele>84.591</ele><time>2026-04-25T12:21:36.627Z</time><hdop>3.0</hdop><vdop>1.375</vdop><extensions><gom:speed>0.249</gom:speed><gom:rel_alt>236.58</gom:rel_alt></extensions></trkpt>
   <trkpt lat="59.0778382469" lon="29.959340163"><ele>84.555</ele><time>2026-04-25T12:21:58.286Z</time><hdop>3.0</hdop><vdop>1.25</vdop><extensions><gom:speed>0.384</gom:speed><gom:rel_alt>236.574</gom:rel_alt></extensions></trkpt>
   <trkpt lat="59.0777338503" lon="29.9593808152"><ele>84.627</ele><time>2026-04-25T12:23:28.746Z</time><hdop>9.25</hdop><vdop>1.25</vdop><extensions><gom:speed>0.407</gom:speed><gom:rel_alt>237.341</gom:rel_alt></extensions></trkpt>
   <trkpt lat="59.0776415236" lon="29.9593798094"><ele>84.328</ele><time>2026-04-25T12:25:50.627Z</time><hdop>3.0</hdop><vdop>1.375</vdop><extensions><gom:speed>0.091</gom:speed><gom:rel_alt>237.38</gom:rel_alt></extensions></trkpt>
   <trkpt lat="59.0776701478" lon="29.9595480342"><ele>84.655</ele><time>2026-04-25T12:27:12.626Z</time><hdop>3.5</hdop><vdop>1.25</vdop><extensions><gom:speed>0.338</gom:speed><gom:rel_alt>238.107</gom:rel_alt></extensions></trkpt>
   <trkpt lat="59.0776124384" lon="29.9596866709"><ele>85.47</ele><time>2026-04-25T12:27:40.626Z</time><hdop>3.75</hdop><vdop>1.25</vdop><extensions><gom:speed>0.328</gom:speed><gom:rel_alt>238.363</gom:rel_alt></extensions></trkpt>
   <trkpt lat="59.0776283221" lon="29.959862607"><ele>84.428</ele><time>2026-04-25T12:28:32.626Z</time><hdop>3.75</hdop><vdop>1.25</vdop><extensions><gom:speed>0.328</gom:speed><gom:rel_alt>237.972</gom:rel_alt></extensions></trkpt>
   <trkpt lat="59.0776085409" lon="29.9600393813"><ele>83.144</ele><time>2026-04-25T12:29:48.628Z</time><hdop>3.75</hdop><vdop>1.25</vdop><extensions><gom:speed>0.718</gom:speed><gom:rel_alt>238.007</gom:rel_alt></extensions></trkpt>
   <trkpt lat="59.0775900168" lon="29.9602260463"><ele>83.838</ele><time>2026-04-25T12:30:50.627Z</time><hdop>3.75</hdop><vdop>1.375</vdop><extensions><gom:speed>0.698</gom:speed><gom:rel_alt>238.207</gom:rel_alt></extensions></trkpt>
   <trkpt lat="59.0776049366" lon="29.9603984621"><ele>84.065</ele><time>2026-04-25T12:31:36.626Z</time><hdop>3.75</hdop><vdop>1.25</vdop><extensions><gom:speed>0.608</gom:speed><gom:rel_alt>238.916</gom:rel_alt></extensions></trkpt>
   <trkpt lat="59.0775418209" lon="29.960538859"><ele>84.233</ele><time>2026-04-25T12:31:52.627Z</time><hdop>3.75</hdop><vdop>1.25</vdop><extensions><gom:speed>0.0</gom:speed><gom:rel_alt>238.762</gom:rel_alt></extensions></trkpt>
   <trkpt lat="59.0774940441" lon="29.9606962711"><ele>84.516</ele><time>2026-04-25T12:32:13.626Z</time><hdop>3.75</hdop><vdop>1.25</vdop><extensions><gom:speed>0.478</gom:speed><gom:rel_alt>239.082</gom:rel_alt></extensions></trkpt>
   <trkpt lat="59.0774138292" lon="29.9607848678"><ele>84.624</ele><time>2026-04-25T12:32:47.627Z</time><hdop>3.75</hdop><vdop>1.375</vdop><extensions><gom:speed>0.788</gom:speed><gom:rel_alt>239.172</gom:rel_alt></extensions></trkpt>
   <trkpt lat="59.0773636216" lon="29.9609314673"><ele>84.169</ele><time>2026-04-25T12:33:07.627Z</time><hdop>3.0</hdop><vdop>1.375</vdop><extensions><gom:speed>0.533</gom:speed><gom:rel_alt>238.934</gom:rel_alt></extensions></trkpt>
   <trkpt lat="59.0772730552" lon="29.960949656"><ele>84.094</ele><time>2026-04-25T12:33:37.627Z</time><hdop>3.0</hdop><vdop>1.25</vdop><extensions><gom:speed>0.5</gom:speed><gom:rel_alt>239.365</gom:rel_alt></extensions></trkpt>
   <trkpt lat="59.0771850452" lon="29.9608943355"><ele>83.583</ele><time>2026-04-25T12:33:54.342Z</time><hdop>3.0</hdop><vdop>1.25</vdop><extensions><gom:speed>0.62</gom:speed><gom:rel_alt>239.539</gom:rel_alt></extensions></trkpt>
   <trkpt lat="59.0770935567" lon="29.9608883843"><ele>82.886</ele><time>2026-04-25T12:34:52.050Z</time><hdop>3.0</hdop><vdop>1.25</vdop><extensions><gom:speed>0.571</gom:speed><gom:rel_alt>239.238</gom:rel_alt></extensions></trkpt>
   <trkpt lat="59.0770317402" lon="29.9610240035"><ele>83.302</ele><time>2026-04-25T12:35:11.629Z</time><hdop>3.0</hdop><vdop>1.375</vdop><extensions><gom:speed>0.726</gom:speed><gom:rel_alt>238.897</gom:rel_alt></extensions></trkpt>
   <trkpt lat="59.0769560516" lon="29.9611488939"><ele>83.881</ele><time>2026-04-25T12:35:50.627Z</time><hdop>3.0</hdop><vdop>1.375</vdop><extensions><gom:speed>0.32</gom:speed><gom:rel_alt>239.864</gom:rel_alt></extensions></trkpt>
   <trkpt lat="59.0768712267" lon="29.9610729538"><ele>83.617</ele><time>2026-04-25T12:36:47.463Z</time><hdop>3.0</hdop><vdop>1.25</vdop><extensions><gom:speed>0.643</gom:speed><gom:rel_alt>239.14</gom:rel_alt></extensions></trkpt>
   <trkpt lat="59.0767787324" lon="29.9610569444"><ele>83.932</ele><time>2026-04-25T12:37:11.628Z</time><hdop>3.0</hdop><vdop>1.375</vdop><extensions><gom:speed>0.545</gom:speed><gom:rel_alt>239.198</gom:rel_alt></extensions></trkpt>
   <trkpt lat="59.0766888365" lon="29.9610490654"><ele>83.723</ele><time>2026-04-25T12:37:24.628Z</time><hdop>3.0</hdop><vdop>1.375</vdop><extensions><gom:speed>0.276</gom:speed><gom:rel_alt>239.499</gom:rel_alt></extensions></trkpt>
   <trkpt lat="59.0766718213" lon="29.9608609755"><ele>84.53</ele><time>2026-04-25T12:37:51.583Z</time><hdop>3.0</hdop><vdop>1.375</vdop><extensions><gom:speed>0.513</gom:speed><gom:rel_alt>239.946</gom:rel_alt></extensions></trkpt>
   <trkpt lat="59.0765828474" lon="29.9608002067"><ele>83.74</ele><time>2026-04-25T12:38:09.045Z</time><hdop>3.0</hdop><vdop>1.25</vdop><extensions><gom:speed>0.671</gom:speed><gom:rel_alt>240.57</gom:rel_alt></extensions></trkpt>
   <trkpt lat="59.0765006209" lon="29.9608823493"><ele>83.728</ele><time>2026-04-25T12:40:37.420Z</time><hdop>3.0</hdop><vdop>1.375</vdop><extensions><gom:speed>0.326</gom:speed><gom:rel_alt>240.541</gom:rel_alt></extensions></trkpt>
   <trkpt lat="59.0764233397" lon="29.9609758076"><ele>83.433</ele><time>2026-04-25T12:40:47.404Z</time><hdop>3.0</hdop><vdop>1.375</vdop><extensions><gom:speed>0.321</gom:speed><gom:rel_alt>240.094</gom:rel_alt></extensions></trkpt>
   <trkpt lat="59.0763379282" lon="29.9610323854"><ele>83.351</ele><time>2026-04-25T12:40:56.628Z</time><hdop>3.0</hdop><vdop>1.375</vdop><extensions><gom:speed>0.742</gom:speed><gom:rel_alt>239.758</gom:rel_alt></extensions></trkpt>
   <trkpt lat="59.0762568332" lon="29.9611101695"><ele>83.176</ele><time>2026-04-25T12:41:14.121Z</time><hdop>3.0</hdop><vdop>1.375</vdop><extensions><gom:speed>0.236</gom:speed><gom:rel_alt>239.721</gom:rel_alt></extensions></trkpt>
   <trkpt lat="59.0761727208" lon="29.9611973413"><ele>83.156</ele><time>2026-04-25T12:41:58.629Z</time><hdop>3.125</hdop><vdop>1.375</vdop><extensions><gom:speed>0.407</gom:speed><gom:rel_alt>240.028</gom:rel_alt></extensions></trkpt>
   <trkpt lat="59.0760869321" lon="29.9612809927"><ele>83.626</ele><time>2026-04-25T12:42:24.629Z</time><hdop>3.25</hdop><vdop>1.375</vdop><extensions><gom:speed>0.718</gom:speed><gom:rel_alt>240.255</gom:rel_alt></extensions></trkpt>
   <trkpt lat="59.0760154344" lon="29.9613978364"><ele>82.522</ele><time>2026-04-25T12:43:45.627Z</time><hdop>3.75</hdop><vdop>1.375</vdop><extensions><gom:speed>0.678</gom:speed><gom:rel_alt>239.811</gom:rel_alt></extensions></trkpt>
   <trkpt lat="59.0759339204" lon="29.9614743632"><ele>83.136</ele><time>2026-04-25T12:44:10.628Z</time><hdop>3.75</hdop><vdop>1.375</vdop><extensions><gom:speed>0.498</gom:speed><gom:rel_alt>241.064</gom:rel_alt></extensions></trkpt>
   <trkpt lat="59.0758468324" lon="29.9615544942"><ele>83.157</ele><time>2026-04-25T12:44:47.627Z</time><hdop>3.75</hdop><vdop>1.25</vdop><extensions><gom:speed>0.948</gom:speed><gom:rel_alt>240.284</gom:rel_alt></extensions></trkpt>
   <trkpt lat="59.0757628458" lon="29.9616229743"><ele>83.067</ele><time>2026-04-25T12:45:16.629Z</time><hdop>3.75</hdop><vdop>1.375</vdop><extensions><gom:speed>0.508</gom:speed><gom:rel_alt>240.097</gom:rel_alt></extensions></trkpt>
   <trkpt lat="59.0756699324" lon="29.9616045341"><ele>83.412</ele><time>2026-04-25T12:45:44.627Z</time><hdop>3.75</hdop><vdop>1.25</vdop><extensions><gom:speed>0.298</gom:speed><gom:rel_alt>240.892</gom:rel_alt></extensions></trkpt>
   <trkpt lat="59.0755784439" lon="29.9616155144"><ele>83.368</ele><time>2026-04-25T12:46:05.562Z</time><hdop>3.25</hdop><vdop>1.375</vdop><extensions><gom:speed>0.582</gom:speed><gom:rel_alt>240.675</gom:rel_alt></extensions></trkpt>
   <trkpt lat="59.0754961336" lon="29.9616927956"><ele>83.261</ele><time>2026-04-25T12:46:30.622Z</time><hdop>3.0</hdop><vdop>1.25</vdop><extensions><gom:speed>0.797</gom:speed><gom:rel_alt>240.588</gom:rel_alt></extensions></trkpt>
   <trkpt lat="59.0755933218" lon="29.9617720884"><ele>83.437</ele><time>2026-04-25T12:48:04.629Z</time><hdop>13.75</hdop><vdop>1.375</vdop><extensions><gom:speed>0.0</gom:speed><gom:rel_alt>241.468</gom:rel_alt></extensions></trkpt>
   <trkpt lat="59.0754829321" lon="29.9616753612"><ele>83.6</ele><time>2026-04-25T12:48:07.628Z</time><hdop>11.0</hdop><vdop>1.25</vdop><extensions><gom:speed>2.33</gom:speed><gom:rel_alt>241.516</gom:rel_alt></extensions></trkpt>
   <trkpt lat="59.0753953412" lon="29.9616074678"><ele>83.466</ele><time>2026-04-25T12:48:43.628Z</time><hdop>4.0</hdop><vdop>1.375</vdop><extensions><gom:speed>0.148</gom:speed><gom:rel_alt>241.045</gom:rel_alt></extensions></trkpt>
   <trkpt lat="59.075300039" lon="29.9615796399"><ele>82.726</ele><time>2026-04-25T12:49:28.628Z</time><hdop>3.75</hdop><vdop>1.375</vdop><extensions><gom:speed>0.0</gom:speed><gom:rel_alt>240.873</gom:rel_alt></extensions></trkpt>
   <trkpt lat="59.0752099335" lon="29.9615523987"><ele>82.515</ele><time>2026-04-25T12:50:01.629Z</time><hdop>3.75</hdop><vdop>1.375</vdop><extensions><gom:speed>0.588</gom:speed><gom:rel_alt>240.916</gom:rel_alt></extensions></trkpt>
   <trkpt lat="59.0751185289" lon="29.9615663965"><ele>82.162</ele><time>2026-04-25T12:50:47.628Z</time><hdop>3.75</hdop><vdop>1.375</vdop><extensions><gom:speed>0.148</gom:speed><gom:rel_alt>240.834</gom:rel_alt></extensions></trkpt>
   <trkpt lat="59.0750566285" lon="29.9614316155"><ele>82.794</ele><time>2026-04-25T12:52:07.628Z</time><hdop>3.75</hdop><vdop>1.375</vdop><extensions><gom:speed>0.318</gom:speed><gom:rel_alt>241.434</gom:rel_alt></extensions></trkpt>
   <trkpt lat="59.0749655172" lon="29.9614390754"><ele>82.619</ele><time>2026-04-25T12:52:36.604Z</time><hdop>3.0</hdop><vdop>1.375</vdop><extensions><gom:speed>0.738</gom:speed><gom:rel_alt>240.966</gom:rel_alt></extensions></trkpt>
   <trkpt lat="59.0750114501" lon="29.9612773884"><ele>83.276</ele><time>2026-04-25T12:52:51.229Z</time><hdop>3.0</hdop><vdop>1.375</vdop><extensions><gom:speed>0.665</gom:speed><gom:rel_alt>241.124</gom:rel_alt></extensions></trkpt>
   <trkpt lat="59.0749835383" lon="29.9611063976"><ele>82.416</ele><time>2026-04-25T12:53:05.084Z</time><hdop>3.0</hdop><vdop>1.375</vdop><extensions><gom:speed>0.767</gom:speed><gom:rel_alt>241.341</gom:rel_alt></extensions></trkpt>
   <trkpt lat="59.0748898287" lon="29.9610970099"><ele>83.129</ele><time>2026-04-25T12:53:17.103Z</time><hdop>3.0</hdop><vdop>1.375</vdop><extensions><gom:speed>0.756</gom:speed><gom:rel_alt>240.784</gom:rel_alt></extensions></trkpt>
   <trkpt lat="59.0748009386" lon="29.9610271048"><ele>82.626</ele><time>2026-04-25T12:53:31.571Z</time><hdop>3.0</hdop><vdop>1.375</vdop><extensions><gom:speed>0.957</gom:speed><gom:rel_alt>241.848</gom:rel_alt></extensions></trkpt>
   <trkpt lat="59.0747357274" lon="29.9611577787"><ele>83.802</ele><time>2026-04-25T12:53:44.963Z</time><hdop>3.0</hdop><vdop>1.375</vdop><extensions><gom:speed>0.9</gom:speed><gom:rel_alt>241.41</gom:rel_alt></extensions></trkpt>
   <trkpt lat="59.0747274293" lon="29.9609761428"><ele>83.345</ele><time>2026-04-25T12:53:55.629Z</time><hdop>3.0</hdop><vdop>1.375</vdop><extensions><gom:speed>0.907</gom:speed><gom:rel_alt>241.801</gom:rel_alt></extensions></trkpt>
   <trkpt lat="59.0746381201" lon="29.960933479"><ele>83.398</ele><time>2026-04-25T12:54:06.585Z</time><hdop>3.0</hdop><vdop>1.375</vdop><extensions><gom:speed>0.943</gom:speed><gom:rel_alt>241.357</gom:rel_alt></extensions></trkpt>
   <trkpt lat="59.0745468412" lon="29.9609665037"><ele>83.232</ele><time>2026-04-25T12:54:19.652Z</time><hdop>3.0</hdop><vdop>1.375</vdop><extensions><gom:speed>0.653</gom:speed><gom:rel_alt>241.854</gom:rel_alt></extensions></trkpt>
   <trkpt lat="59.0744605495" lon="29.9610406835"><ele>82.683</ele><time>2026-04-25T12:54:35.371Z</time><hdop>3.0</hdop><vdop>1.5</vdop><extensions><gom:speed>0.766</gom:speed><gom:rel_alt>241.632</gom:rel_alt></extensions></trkpt>
   <trkpt lat="59.0743814243" lon="29.9609453813"><ele>83.529</ele><time>2026-04-25T12:55:01.607Z</time><hdop>3.0</hdop><vdop>1.375</vdop><extensions><gom:speed>0.893</gom:speed><gom:rel_alt>242.258</gom:rel_alt></extensions></trkpt>
   <trkpt lat="59.0742913189" lon="29.9609628156"><ele>83.759</ele><time>2026-04-25T12:55:24.630Z</time><hdop>3.0</hdop><vdop>1.375</vdop><extensions><gom:speed>0.409</gom:speed><gom:rel_alt>242.218</gom:rel_alt></extensions></trkpt>
   <trkpt lat="59.0742873375" lon="29.9607847002"><ele>82.248</ele><time>2026-04-25T12:55:38.961Z</time><hdop>3.0</hdop><vdop>1.375</vdop><extensions><gom:speed>0.934</gom:speed><gom:rel_alt>241.473</gom:rel_alt></extensions></trkpt>
   <trkpt lat="59.0743154168" lon="29.9606179003"><ele>82.391</ele><time>2026-04-25T12:55:48.311Z</time><hdop>3.0</hdop><vdop>1.5</vdop><extensions><gom:speed>1.044</gom:speed><gom:rel_alt>241.455</gom:rel_alt></extensions></trkpt>
   <trkpt lat="59.0743382575" lon="29.9604455684"><ele>81.213</ele><time>2026-04-25T12:56:01.654Z</time><hdop>3.0</hdop><vdop>1.5</vdop><extensions><gom:speed>0.782</gom:speed><gom:rel_alt>241.756</gom:rel_alt></extensions></trkpt>
   <trkpt lat="59.0743723299" lon="29.960275751"><ele>80.651</ele><time>2026-04-25T12:56:12.631Z</time><hdop>3.0</hdop><vdop>1.375</vdop><extensions><gom:speed>1.004</gom:speed><gom:rel_alt>241.484</gom:rel_alt></extensions></trkpt>
   <trkpt lat="59.0743720366" lon="29.9600921035"><ele>80.516</ele><time>2026-04-25T12:56:26.629Z</time><hdop>3.0</hdop><vdop>1.375</vdop><extensions><gom:speed>0.808</gom:speed><gom:rel_alt>242.062</gom:rel_alt></extensions></trkpt>
   <trkpt lat="59.0743502436" lon="29.9599154968"><ele>80.973</ele><time>2026-04-25T12:56:50.630Z</time><hdop>3.0</hdop><vdop>1.5</vdop><extensions><gom:speed>0.785</gom:speed><gom:rel_alt>241.449</gom:rel_alt></extensions></trkpt>
   <trkpt lat="59.0743964279" lon="29.9597585876"><ele>81.001</ele><time>2026-04-25T12:57:13.537Z</time><hdop>3.0</hdop><vdop>1.375</vdop><extensions><gom:speed>0.624</gom:speed><gom:rel_alt>241.571</gom:rel_alt></extensions></trkpt>
   <trkpt lat="59.0744397205" lon="29.959597655"><ele>80.057</ele><time>2026-04-25T12:57:31.397Z</time><hdop>3.0</hdop><vdop>1.375</vdop><extensions><gom:speed>0.989</gom:speed><gom:rel_alt>242.023</gom:rel_alt></extensions></trkpt>
   <trkpt lat="59.0744923169" lon="29.9594523128"><ele>81.178</ele><time>2026-04-25T12:57:42.629Z</time><hdop>3.0</hdop><vdop>1.375</vdop><extensions><gom:speed>0.958</gom:speed><gom:rel_alt>241.904</gom:rel_alt></extensions></trkpt>
   <trkpt lat="59.0745610485" lon="29.9593370617"><ele>80.533</ele><time>2026-04-25T12:57:59.629Z</time><hdop>3.0</hdop><vdop>1.375</vdop><extensions><gom:speed>0.971</gom:speed><gom:rel_alt>241.809</gom:rel_alt></extensions></trkpt>
   <trkpt lat="59.074621021" lon="29.9594782967"><ele>81.253</ele><time>2026-04-25T12:58:09.182Z</time><hdop>3.0</hdop><vdop>1.375</vdop><extensions><gom:speed>1.056</gom:speed><gom:rel_alt>241.592</gom:rel_alt></extensions></trkpt>
   <trkpt lat="59.0746874476" lon="29.9593461141"><ele>80.283</ele><time>2026-04-25T12:58:25.664Z</time><hdop>3.0</hdop><vdop>1.375</vdop><extensions><gom:speed>0.845</gom:speed><gom:rel_alt>241.698</gom:rel_alt></extensions></trkpt>
   <trkpt lat="59.0747238251" lon="29.9591862712"><ele>80.19</ele><time>2026-04-25T12:59:39.630Z</time><hdop>3.0</hdop><vdop>1.375</vdop><extensions><gom:speed>0.264</gom:speed><gom:rel_alt>242.036</gom:rel_alt></extensions></trkpt>
   <trkpt lat="59.0748177443" lon="29.9591691722"><ele>81.005</ele><time>2026-04-25T13:00:03.630Z</time><hdop>3.0</hdop><vdop>1.375</vdop><extensions><gom:speed>1.094</gom:speed><gom:rel_alt>242.126</gom:rel_alt></extensions></trkpt>
   <trkpt lat="59.0748652278" lon="29.9590188008"><ele>80.146</ele><time>2026-04-25T13:00:16.257Z</time><hdop>3.0</hdop><vdop>1.625</vdop><extensions><gom:speed>0.824</gom:speed><gom:rel_alt>241.513</gom:rel_alt></extensions></trkpt>
   <trkpt lat="59.0748611206" lon="29.9588309624"><ele>80.878</ele><time>2026-04-25T13:00:29.423Z</time><hdop>3.0</hdop><vdop>1.375</vdop><extensions><gom:speed>0.79</gom:speed><gom:rel_alt>241.685</gom:rel_alt></extensions></trkpt>
   <trkpt lat="59.0748272577" lon="29.9586678505"><ele>80.125</ele><time>2026-04-25T13:00:39.342Z</time><hdop>3.0</hdop><vdop>1.375</vdop><extensions><gom:speed>1.044</gom:speed><gom:rel_alt>242.068</gom:rel_alt></extensions></trkpt>
   <trkpt lat="59.0748579355" lon="29.9584936746"><ele>80.707</ele><time>2026-04-25T13:00:51.306Z</time><hdop>3.0</hdop><vdop>1.625</vdop><extensions><gom:speed>0.925</gom:speed><gom:rel_alt>241.743</gom:rel_alt></extensions></trkpt>
   <trkpt lat="59.0748005195" lon="29.9583471589"><ele>79.916</ele><time>2026-04-25T13:01:04.546Z</time><hdop>3.0</hdop><vdop>1.375</vdop><extensions><gom:speed>0.813</gom:speed><gom:rel_alt>241.64</gom:rel_alt></extensions></trkpt>
   <trkpt lat="59.0747877371" lon="29.9581735697"><ele>80.128</ele><time>2026-04-25T13:01:16.383Z</time><hdop>3.0</hdop><vdop>1.5</vdop><extensions><gom:speed>0.85</gom:speed><gom:rel_alt>241.492</gom:rel_alt></extensions></trkpt>
   <trkpt lat="59.0747871503" lon="29.9579933588"><ele>80.192</ele><time>2026-04-25T13:01:40.058Z</time><hdop>3.0</hdop><vdop>1.5</vdop><extensions><gom:speed>0.641</gom:speed><gom:rel_alt>242.041</gom:rel_alt></extensions></trkpt>
   <trkpt lat="59.0747058459" lon="29.9579058517"><ele>80.185</ele><time>2026-04-25T13:02:07.484Z</time><hdop>3.0</hdop><vdop>1.375</vdop><extensions><gom:speed>0.641</gom:speed><gom:rel_alt>242.612</gom:rel_alt></extensions></trkpt>
   <trkpt lat="59.0747564307" lon="29.9577470985"><ele>78.434</ele><time>2026-04-25T13:03:49.281Z</time><hdop>3.0</hdop><vdop>1.25</vdop><extensions><gom:speed>0.784</gom:speed><gom:rel_alt>241.679</gom:rel_alt></extensions></trkpt>
   <trkpt lat="59.0748247432" lon="29.9576181848"><ele>80.184</ele><time>2026-04-25T13:07:17.629Z</time><hdop>3.25</hdop><vdop>1.25</vdop><extensions><gom:speed>1.08</gom:speed><gom:rel_alt>242.948</gom:rel_alt></extensions></trkpt>
   <trkpt lat="59.0749148486" lon="29.9575937935"><ele>79.93</ele><time>2026-04-25T13:07:27.153Z</time><hdop>3.0</hdop><vdop>1.25</vdop><extensions><gom:speed>0.713</gom:speed><gom:rel_alt>242.62</gom:rel_alt></extensions></trkpt>
   <trkpt lat="59.0750057504" lon="29.9575456813"><ele>79.953</ele><time>2026-04-25T13:07:39.372Z</time><hdop>3.0</hdop><vdop>1.25</vdop><extensions><gom:speed>0.899</gom:speed><gom:rel_alt>242.559</gom:rel_alt></extensions></trkpt>
   <trkpt lat="59.075088354" lon="29.9574713338"><ele>79.996</ele><time>2026-04-25T13:07:49.139Z</time><hdop>3.0</hdop><vdop>1.25</vdop><extensions><gom:speed>1.014</gom:speed><gom:rel_alt>242.776</gom:rel_alt></extensions></trkpt>
   <trkpt lat="59.0751606479" lon="29.9573673144"><ele>79.462</ele><time>2026-04-25T13:08:13.761Z</time><hdop>3.0</hdop><vdop>1.25</vdop><extensions><gom:speed>1.208</gom:speed><gom:rel_alt>241.928</gom:rel_alt></extensions></trkpt>
   <trkpt lat="59.0752565369" lon="29.9573651351"><ele>79.341</ele><time>2026-04-25T13:08:23.837Z</time><hdop>3.25</hdop><vdop>1.25</vdop><extensions><gom:speed>1.056</gom:speed><gom:rel_alt>242.44</gom:rel_alt></extensions></trkpt>
   <trkpt lat="59.0753458461" lon="29.9573281709"><ele>79.598</ele><time>2026-04-25T13:08:34.146Z</time><hdop>3.0</hdop><vdop>1.25</vdop><extensions><gom:speed>1.03</gom:speed><gom:rel_alt>242.797</gom:rel_alt></extensions></trkpt>
   <trkpt lat="59.07541814" lon="29.9572192062"><ele>79.619</ele><time>2026-04-25T13:08:48.630Z</time><hdop>3.0</hdop><vdop>1.25</vdop><extensions><gom:speed>1.068</gom:speed><gom:rel_alt>242.461</gom:rel_alt></extensions></trkpt>
   <trkpt lat="59.0755198544" lon="29.9572230619"><ele>79.586</ele><time>2026-04-25T13:08:58.498Z</time><hdop>3.0</hdop><vdop>1.25</vdop><extensions><gom:speed>1.17</gom:speed><gom:rel_alt>242.617</gom:rel_alt></extensions></trkpt>
   <trkpt lat="59.0756112171" lon="29.9571796436"><ele>79.775</ele><time>2026-04-25T13:09:11.629Z</time><hdop>3.0</hdop><vdop>1.25</vdop><extensions><gom:speed>0.839</gom:speed><gom:rel_alt>242.675</gom:rel_alt></extensions></trkpt>
   <trkpt lat="59.0756993529" lon="29.9571283464"><ele>79.654</ele><time>2026-04-25T13:09:22.181Z</time><hdop>3.0</hdop><vdop>1.25</vdop><extensions><gom:speed>0.926</gom:speed><gom:rel_alt>242.786</gom:rel_alt></extensions></trkpt>
   <trkpt lat="59.0757859379" lon="29.9570802342"><ele>79.83</ele><time>2026-04-25T13:09:33.610Z</time><hdop>3.0</hdop><vdop>1.25</vdop><extensions><gom:speed>0.914</gom:speed><gom:rel_alt>243.109</gom:rel_alt></extensions></trkpt>
   <trkpt lat="59.0758731516" lon="29.9570327927"><ele>80.529</ele><time>2026-04-25T13:09:45.192Z</time><hdop>3.0</hdop><vdop>1.25</vdop><extensions><gom:speed>0.831</gom:speed><gom:rel_alt>243.291</gom:rel_alt></extensions></trkpt>
   <trkpt lat="59.0759715552" lon="29.9569936492"><ele>80.241</ele><time>2026-04-25T13:09:55.512Z</time><hdop>3.0</hdop><vdop>1.25</vdop><extensions><gom:speed>1.09</gom:speed><gom:rel_alt>243.201</gom:rel_alt></extensions></trkpt>
   <trkpt lat="59.0760601519" lon="29.9569560144"><ele>80.088</ele><time>2026-04-25T13:10:04.630Z</time><hdop>3.0</hdop><vdop>1.25</vdop><extensions><gom:speed>1.07</gom:speed><gom:rel_alt>243.288</gom:rel_alt></extensions></trkpt>
   <trkpt lat="59.0761475332" lon="29.9568889592"><ele>79.773</ele><time>2026-04-25T13:10:16.539Z</time><hdop>3.0</hdop><vdop>1.25</vdop><extensions><gom:speed>0.86</gom:speed><gom:rel_alt>243.357</gom:rel_alt></extensions></trkpt>
   <trkpt lat="59.0762343278" lon="29.9568403442"><ele>80.113</ele><time>2026-04-25T13:10:28.616Z</time><hdop>3.0</hdop><vdop>1.25</vdop><extensions><gom:speed>0.978</gom:speed><gom:rel_alt>242.958</gom:rel_alt></extensions></trkpt>
   <trkpt lat="59.0763244333" lon="29.9567924835"><ele>79.952</ele><time>2026-04-25T13:10:39.629Z</time><hdop>3.0</hdop><vdop>1.25</vdop><extensions><gom:speed>0.902</gom:speed><gom:rel_alt>242.895</gom:rel_alt></extensions></trkpt>
   <trkpt lat="59.0763941288" lon="29.956672287"><ele>80.33</ele><time>2026-04-25T13:10:51.630Z</time><hdop>3.0</hdop><vdop>1.25</vdop><extensions><gom:speed>0.67</gom:speed><gom:rel_alt>243.394</gom:rel_alt></extensions></trkpt>
   <trkpt lat="59.0764387205" lon="29.9565162998"><ele>80.756</ele><time>2026-04-25T13:12:01.630Z</time><hdop>3.0</hdop><vdop>1.25</vdop><extensions><gom:speed>0.324</gom:speed><gom:rel_alt>243.561</gom:rel_alt></extensions></trkpt>
   <trkpt lat="59.0764927419" lon="29.9563612346"><ele>80.386</ele><time>2026-04-25T13:12:15.632Z</time><hdop>3.0</hdop><vdop>1.25</vdop><extensions><gom:speed>0.927</gom:speed><gom:rel_alt>243.487</gom:rel_alt></extensions></trkpt>
   <trkpt lat="59.0765204441" lon="29.9561873939"><ele>80.646</ele><time>2026-04-25T13:12:31.432Z</time><hdop>3.0</hdop><vdop>1.25</vdop><extensions><gom:speed>0.812</gom:speed><gom:rel_alt>243.5</gom:rel_alt></extensions></trkpt>
   <trkpt lat="59.0765505351" lon="29.956020175"><ele>80.734</ele><time>2026-04-25T13:12:45.455Z</time><hdop>3.0</hdop><vdop>1.25</vdop><extensions><gom:speed>0.437</gom:speed><gom:rel_alt>244.221</gom:rel_alt></extensions></trkpt>
   <trkpt lat="59.0765729567" lon="29.9558503576"><ele>80.434</ele><time>2026-04-25T13:13:12.990Z</time><hdop>3.0</hdop><vdop>1.25</vdop><extensions><gom:speed>1.008</gom:speed><gom:rel_alt>243.339</gom:rel_alt></extensions></trkpt>
   <trkpt lat="59.0765951269" lon="29.9556722422"><ele>81.05</ele><time>2026-04-25T13:13:23.629Z</time><hdop>3.0</hdop><vdop>1.25</vdop><extensions><gom:speed>0.735</gom:speed><gom:rel_alt>243.875</gom:rel_alt></extensions></trkpt>
   <trkpt lat="59.0766189315" lon="29.955499994"><ele>80.905</ele><time>2026-04-25T13:13:35.259Z</time><hdop>3.0</hdop><vdop>1.25</vdop><extensions><gom:speed>0.808</gom:speed><gom:rel_alt>243.952</gom:rel_alt></extensions></trkpt>
   <trkpt lat="59.0766616373" lon="29.9553445097"><ele>81.051</ele><time>2026-04-25T13:13:56.879Z</time><hdop>3.0</hdop><vdop>1.25</vdop><extensions><gom:speed>0.673</gom:speed><gom:rel_alt>244.11</gom:rel_alt></extensions></trkpt>
   <trkpt lat="59.0767114258" lon="29.9551901989"><ele>81.242</ele><time>2026-04-25T13:14:09.630Z</time><hdop>3.0</hdop><vdop>1.25</vdop><extensions><gom:speed>0.84</gom:speed><gom:rel_alt>244.224</gom:rel_alt></extensions></trkpt>
   <trkpt lat="59.0767409301" lon="29.9550184537"><ele>81.43</ele><time>2026-04-25T13:14:22.364Z</time><hdop>3.0</hdop><vdop>1.25</vdop><extensions><gom:speed>0.82</gom:speed><gom:rel_alt>244.266</gom:rel_alt></extensions></trkpt>
   <trkpt lat="59.0767819176" lon="29.9548540008"><ele>81.283</ele><time>2026-04-25T13:14:36.559Z</time><hdop>3.0</hdop><vdop>1.25</vdop><extensions><gom:speed>0.841</gom:speed><gom:rel_alt>244.044</gom:rel_alt></extensions></trkpt>
   <trkpt lat="59.0768241204" lon="29.9546935711"><ele>81.081</ele><time>2026-04-25T13:14:48.426Z</time><hdop>3.0</hdop><vdop>1.25</vdop><extensions><gom:speed>0.841</gom:speed><gom:rel_alt>243.986</gom:rel_alt></extensions></trkpt>
   <trkpt lat="59.0768719392" lon="29.9545284476"><ele>81.189</ele><time>2026-04-25T13:15:00.625Z</time><hdop>3.0</hdop><vdop>1.25</vdop><extensions><gom:speed>0.942</gom:speed><gom:rel_alt>244.308</gom:rel_alt></extensions></trkpt>
   <trkpt lat="59.0769140164" lon="29.9543704488"><ele>81.78</ele><time>2026-04-25T13:15:13.629Z</time><hdop>3.0</hdop><vdop>1.25</vdop><extensions><gom:speed>0.913</gom:speed><gom:rel_alt>244.335</gom:rel_alt></extensions></trkpt>
   <trkpt lat="59.0769415509" lon="29.9541978654"><ele>81.721</ele><time>2026-04-25T13:15:29.061Z</time><hdop>3.0</hdop><vdop>1.25</vdop><extensions><gom:speed>0.692</gom:speed><gom:rel_alt>244.015</gom:rel_alt></extensions></trkpt>
   <trkpt lat="59.0769871485" lon="29.9540293891"><ele>81.974</ele><time>2026-04-25T13:15:55.446Z</time><hdop>3.0</hdop><vdop>1.25</vdop><extensions><gom:speed>1.093</gom:speed><gom:rel_alt>244.644</gom:rel_alt></extensions></trkpt>
   <trkpt lat="59.0770008529" lon="29.953851609"><ele>82.213</ele><time>2026-04-25T13:16:04.224Z</time><hdop>3.0</hdop><vdop>1.25</vdop><extensions><gom:speed>0.948</gom:speed><gom:rel_alt>244.599</gom:rel_alt></extensions></trkpt>
   <trkpt lat="59.0770210533" lon="29.9536696378"><ele>82.149</ele><time>2026-04-25T13:16:16.367Z</time><hdop>3.0</hdop><vdop>1.25</vdop><extensions><gom:speed>1.001</gom:speed><gom:rel_alt>244.697</gom:rel_alt></extensions></trkpt>
   <trkpt lat="59.0770709256" lon="29.9535175063"><ele>82.284</ele><time>2026-04-25T13:16:30.162Z</time><hdop>3.0</hdop><vdop>1.25</vdop><extensions><gom:speed>0.909</gom:speed><gom:rel_alt>245.104</gom:rel_alt></extensions></trkpt>
   <trkpt lat="59.0771472428" lon="29.9534207791"><ele>82.553</ele><time>2026-04-25T13:16:39.881Z</time><hdop>3.0</hdop><vdop>1.25</vdop><extensions><gom:speed>1.04</gom:speed><gom:rel_alt>245.135</gom:rel_alt></extensions></trkpt>
   <trkpt lat="59.0772389408" lon="29.953395382"><ele>82.329</ele><time>2026-04-25T13:16:50.629Z</time><hdop>3.0</hdop><vdop>1.25</vdop><extensions><gom:speed>0.873</gom:speed><gom:rel_alt>245.46</gom:rel_alt></extensions></trkpt>
   <trkpt lat="59.0773307227" lon="29.9533885926"><ele>82.519</ele><time>2026-04-25T13:16:59.629Z</time><hdop>3.125</hdop><vdop>1.25</vdop><extensions><gom:speed>0.999</gom:speed><gom:rel_alt>245.061</gom:rel_alt></extensions></trkpt>
   <trkpt lat="59.0774246419" lon="29.9533667997"><ele>82.269</ele><time>2026-04-25T13:17:11.584Z</time><hdop>3.125</hdop><vdop>1.25</vdop><extensions><gom:speed>1.02</gom:speed><gom:rel_alt>244.631</gom:rel_alt></extensions></trkpt>
   <trkpt lat="59.0775122328" lon="29.9533250578"><ele>81.743</ele><time>2026-04-25T13:17:21.522Z</time><hdop>3.25</hdop><vdop>1.25</vdop><extensions><gom:speed>1.05</gom:speed><gom:rel_alt>244.38</gom:rel_alt></extensions></trkpt>
   <trkpt lat="59.0776043499" lon="29.953303684"><ele>81.797</ele><time>2026-04-25T13:17:30.485Z</time><hdop>3.0</hdop><vdop>1.25</vdop><extensions><gom:speed>1.135</gom:speed><gom:rel_alt>244.456</gom:rel_alt></extensions></trkpt>
   <trkpt lat="59.0776987301" lon="29.953267055"><ele>82.226</ele><time>2026-04-25T13:17:40.405Z</time><hdop>3.0</hdop><vdop>1.25</vdop><extensions><gom:speed>1.052</gom:speed><gom:rel_alt>244.705</gom:rel_alt></extensions></trkpt>
   <trkpt lat="59.077790051" lon="29.9532088846"><ele>82.151</ele><time>2026-04-25T13:17:49.885Z</time><hdop>3.0</hdop><vdop>1.25</vdop><extensions><gom:speed>1.147</gom:speed><gom:rel_alt>244.372</gom:rel_alt></extensions></trkpt>
   <trkpt lat="59.0778778514" lon="29.9531488702"><ele>82.316</ele><time>2026-04-25T13:17:59.630Z</time><hdop>3.0</hdop><vdop>1.25</vdop><extensions><gom:speed>1.128</gom:speed><gom:rel_alt>244.615</gom:rel_alt></extensions></trkpt>
   <trkpt lat="59.077968837" lon="29.9531203717"><ele>82.035</ele><time>2026-04-25T13:18:09.482Z</time><hdop>3.0</hdop><vdop>1.25</vdop><extensions><gom:speed>1.07</gom:speed><gom:rel_alt>244.462</gom:rel_alt></extensions></trkpt>
   <trkpt lat="59.0780662347" lon="29.9530881852"><ele>82.085</ele><time>2026-04-25T13:18:19.629Z</time><hdop>3.0</hdop><vdop>1.25</vdop><extensions><gom:speed>1.073</gom:speed><gom:rel_alt>244.554</gom:rel_alt></extensions></trkpt>
   <trkpt lat="59.0781549571" lon="29.9530452699"><ele>82.241</ele><time>2026-04-25T13:18:30.629Z</time><hdop>3.0</hdop><vdop>1.25</vdop><extensions><gom:speed>1.145</gom:speed><gom:rel_alt>244.514</gom:rel_alt></extensions></trkpt>
   <trkpt lat="59.0782440568" lon="29.9530187831"><ele>82.356</ele><time>2026-04-25T13:18:51.624Z</time><hdop>3.0</hdop><vdop>1.25</vdop><extensions><gom:speed>0.095</gom:speed><gom:rel_alt>245.268</gom:rel_alt></extensions></trkpt>
   <trkpt lat="59.0783549493" lon="29.9530254886"><ele>81.886</ele><time>2026-04-25T13:20:06.349Z</time><hdop>7.375</hdop><vdop>1.25</vdop><extensions><gom:speed>0.258</gom:speed><gom:rel_alt>244.758</gom:rel_alt></extensions></trkpt>
   <trkpt lat="59.0784144189" lon="29.9528873548"><ele>82.262</ele><time>2026-04-25T13:20:19.632Z</time><hdop>3.375</hdop><vdop>1.25</vdop><extensions><gom:speed>0.807</gom:speed><gom:rel_alt>244.488</gom:rel_alt></extensions></trkpt>
   <trkpt lat="59.0784966454" lon="29.9528039549"><ele>82.017</ele><time>2026-04-25T13:20:29.522Z</time><hdop>3.0</hdop><vdop>1.25</vdop><extensions><gom:speed>1.044</gom:speed><gom:rel_alt>244.195</gom:rel_alt></extensions></trkpt>
   <trkpt lat="59.0785874214" lon="29.9527499754"><ele>81.566</ele><time>2026-04-25T13:21:16.445Z</time><hdop>3.0</hdop><vdop>1.25</vdop><extensions><gom:speed>0.902</gom:speed><gom:rel_alt>244.237</gom:rel_alt></extensions></trkpt>
   <trkpt lat="59.0786789518" lon="29.9527025339"><ele>81.814</ele><time>2026-04-25T13:21:26.563Z</time><hdop>3.0</hdop><vdop>1.25</vdop><extensions><gom:speed>1.011</gom:speed><gom:rel_alt>244.261</gom:rel_alt></extensions></trkpt>
   <trkpt lat="59.0787616393" lon="29.9526317068"><ele>82.474</ele><time>2026-04-25T13:21:37.826Z</time><hdop>3.0</hdop><vdop>1.25</vdop><extensions><gom:speed>1.001</gom:speed><gom:rel_alt>244.538</gom:rel_alt></extensions></trkpt>
   <trkpt lat="59.0788531277" lon="29.9525847681"><ele>81.834</ele><time>2026-04-25T13:21:47.623Z</time><hdop>3.0</hdop><vdop>1.25</vdop><extensions><gom:speed>0.956</gom:speed><gom:rel_alt>244.652</gom:rel_alt></extensions></trkpt>
   <trkpt lat="59.0789499387" lon="29.9526054714"><ele>81.296</ele><time>2026-04-25T13:21:56.631Z</time><hdop>3.0</hdop><vdop>1.25</vdop><extensions><gom:speed>1.189</gom:speed><gom:rel_alt>243.949</gom:rel_alt></extensions></trkpt>
   <trkpt lat="59.079031327" lon="29.952528777"><ele>81.562</ele><time>2026-04-25T13:22:07.538Z</time><hdop>3.0</hdop><vdop>1.25</vdop><extensions><gom:speed>0.844</gom:speed><gom:rel_alt>243.944</gom:rel_alt></extensions></trkpt>
   <trkpt lat="59.0791229412" lon="29.9525214847"><ele>81.956</ele><time>2026-04-25T13:22:18.066Z</time><hdop>3.0</hdop><vdop>1.25</vdop><extensions><gom:speed>1.141</gom:speed><gom:rel_alt>244.586</gom:rel_alt></extensions></trkpt>
   <trkpt lat="59.079211957" lon="29.9524693493"><ele>81.936</ele><time>2026-04-25T13:22:27.632Z</time><hdop>3.0</hdop><vdop>1.25</vdop><extensions><gom:speed>0.939</gom:speed><gom:rel_alt>244.501</gom:rel_alt></extensions></trkpt>
   <trkpt lat="59.0792969495" lon="29.9523991928"><ele>81.972</ele><time>2026-04-25T13:22:38.631Z</time><hdop>3.0</hdop><vdop>1.25</vdop><extensions><gom:speed>1.135</gom:speed><gom:rel_alt>244.448</gom:rel_alt></extensions></trkpt>
   <trkpt lat="59.0793856301" lon="29.9523525894"><ele>81.896</ele><time>2026-04-25T13:22:49.445Z</time><hdop>3.0</hdop><vdop>1.25</vdop><extensions><gom:speed>1.15</gom:speed><gom:rel_alt>244.361</gom:rel_alt></extensions></trkpt>
   <trkpt lat="59.0794760289" lon="29.9523336463"><ele>81.815</ele><time>2026-04-25T13:22:59.479Z</time><hdop>3.0</hdop><vdop>1.375</vdop><extensions><gom:speed>1.207</gom:speed><gom:rel_alt>244.332</gom:rel_alt></extensions></trkpt>
   <trkpt lat="59.0795648351" lon="29.9522751406"><ele>81.965</ele><time>2026-04-25T13:23:09.863Z</time><hdop>3.0</hdop><vdop>1.25</vdop><extensions><gom:speed>1.106</gom:speed><gom:rel_alt>244.179</gom:rel_alt></extensions></trkpt>
   <trkpt lat="59.0796567427" lon="29.9522344884"><ele>81.735</ele><time>2026-04-25T13:23:20.104Z</time><hdop>3.0</hdop><vdop>1.25</vdop><extensions><gom:speed>0.937</gom:speed><gom:rel_alt>244.662</gom:rel_alt></extensions></trkpt>
   <trkpt lat="59.0797422381" lon="29.9521599733"><ele>82.163</ele><time>2026-04-25T13:23:33.262Z</time><hdop>3.0</hdop><vdop>1.25</vdop><extensions><gom:speed>0.936</gom:speed><gom:rel_alt>244.171</gom:rel_alt></extensions></trkpt>
   <trkpt lat="59.0798228301" lon="29.9520739749"><ele>82.087</ele><time>2026-04-25T13:23:47.342Z</time><hdop>3.0</hdop><vdop>1.25</vdop><extensions><gom:speed>0.829</gom:speed><gom:rel_alt>244.522</gom:rel_alt></extensions></trkpt>
   <trkpt lat="59.0799174199" lon="29.9520598933"><ele>82.076</ele><time>2026-04-25T13:23:57.630Z</time><hdop>3.0</hdop><vdop>1.25</vdop><extensions><gom:speed>1.079</gom:speed><gom:rel_alt>244.863</gom:rel_alt></extensions></trkpt>
   <trkpt lat="59.0800144404" lon="29.952049416"><ele>82.407</ele><time>2026-04-25T13:24:09.505Z</time><hdop>3.0</hdop><vdop>1.25</vdop><extensions><gom:speed>1.117</gom:speed><gom:rel_alt>244.364</gom:rel_alt></extensions></trkpt>
   <trkpt lat="59.0801101199" lon="29.9520289641"><ele>82.039</ele><time>2026-04-25T13:24:17.466Z</time><hdop>3.0</hdop><vdop>1.25</vdop><extensions><gom:speed>1.108</gom:speed><gom:rel_alt>244.842</gom:rel_alt></extensions></trkpt>
   <trkpt lat="59.0801996386" lon="29.9520014715"><ele>82.499</ele><time>2026-04-25T13:24:26.225Z</time><hdop>3.0</hdop><vdop>1.25</vdop><extensions><gom:speed>1.046</gom:speed><gom:rel_alt>244.522</gom:rel_alt></extensions></trkpt>
   <trkpt lat="59.080281446" lon="29.9519284651"><ele>82.503</ele><time>2026-04-25T13:24:35.147Z</time><hdop>3.0</hdop><vdop>1.25</vdop><extensions><gom:speed>1.005</gom:speed><gom:rel_alt>244.66</gom:rel_alt></extensions></trkpt>
   <trkpt lat="59.0803662289" lon="29.9518589791"><ele>82.298</ele><time>2026-04-25T13:24:44.446Z</time><hdop>3.0</hdop><vdop>1.25</vdop><extensions><gom:speed>1.107</gom:speed><gom:rel_alt>244.697</gom:rel_alt></extensions></trkpt>
   <trkpt lat="59.080454658" lon="29.9518076819"><ele>82.59</ele><time>2026-04-25T13:24:54.602Z</time><hdop>3.0</hdop><vdop>1.375</vdop><extensions><gom:speed>1.129</gom:speed><gom:rel_alt>244.398</gom:rel_alt></extensions></trkpt>
   <trkpt lat="59.0805507565" lon="29.9517754954"><ele>82.511</ele><time>2026-04-25T13:25:05.405Z</time><hdop>3.0</hdop><vdop>1.25</vdop><extensions><gom:speed>0.938</gom:speed><gom:rel_alt>244.62</gom:rel_alt></extensions></trkpt>
   <trkpt lat="59.0806362519" lon="29.9517167382"><ele>81.88</ele><time>2026-04-25T13:25:17.442Z</time><hdop>3.0</hdop><vdop>1.25</vdop><extensions><gom:speed>0.823</gom:speed><gom:rel_alt>244.53</gom:rel_alt></extensions></trkpt>
   <trkpt lat="59.0807270279" lon="29.9516968731"><ele>82.493</ele><time>2026-04-25T13:25:31.611Z</time><hdop>3.0</hdop><vdop>1.25</vdop><extensions><gom:speed>0.824</gom:speed><gom:rel_alt>244.855</gom:rel_alt></extensions></trkpt>
   <trkpt lat="59.0808188517" lon="29.9516749963"><ele>82.432</ele><time>2026-04-25T13:25:40.523Z</time><hdop>3.0</hdop><vdop>1.25</vdop><extensions><gom:speed>1.094</gom:speed><gom:rel_alt>244.522</gom:rel_alt></extensions></trkpt>
   <trkpt lat="59.0809093343" lon="29.9516609148"><ele>82.503</ele><time>2026-04-25T13:25:50.631Z</time><hdop>3.0</hdop><vdop>1.25</vdop><extensions><gom:speed>1.011</gom:speed><gom:rel_alt>245.587</gom:rel_alt></extensions></trkpt>
   <trkpt lat="59.0809911417" lon="29.9515765928"><ele>83.15</ele><time>2026-04-25T13:26:01.110Z</time><hdop>3.0</hdop><vdop>1.25</vdop><extensions><gom:speed>0.966</gom:speed><gom:rel_alt>244.972</gom:rel_alt></extensions></trkpt>
   <trkpt lat="59.0810877431" lon="29.9515859805"><ele>82.316</ele><time>2026-04-25T13:26:14.506Z</time><hdop>3.0</hdop><vdop>1.25</vdop><extensions><gom:speed>0.853</gom:speed><gom:rel_alt>245.022</gom:rel_alt></extensions></trkpt>
   <trkpt lat="59.0811796507" lon="29.9515375331"><ele>82.745</ele><time>2026-04-25T13:26:25.253Z</time><hdop>3.0</hdop><vdop>1.25</vdop><extensions><gom:speed>1.03</gom:speed><gom:rel_alt>245.186</gom:rel_alt></extensions></trkpt>
   <trkpt lat="59.0812655233" lon="29.9514799495"><ele>82.745</ele><time>2026-04-25T13:26:48.630Z</time><hdop>3.0</hdop><vdop>1.25</vdop><extensions><gom:speed>0.969</gom:speed><gom:rel_alt>244.662</gom:rel_alt></extensions></trkpt>
   <trkpt lat="59.0813555449" lon="29.9514258024"><ele>82.263</ele><time>2026-04-25T13:26:56.628Z</time><hdop>3.0</hdop><vdop>1.25</vdop><extensions><gom:speed>1.12</gom:speed><gom:rel_alt>244.282</gom:rel_alt></extensions></trkpt>
   <trkpt lat="59.0814526493" lon="29.9514038418"><ele>82.152</ele><time>2026-04-25T13:27:05.630Z</time><hdop>3.0</hdop><vdop>1.25</vdop><extensions><gom:speed>1.173</gom:speed><gom:rel_alt>244.81</gom:rel_alt></extensions></trkpt>
   <trkpt lat="59.08154682" lon="29.9513900955"><ele>82.598</ele><time>2026-04-25T13:27:14.149Z</time><hdop>3.0</hdop><vdop>1.375</vdop><extensions><gom:speed>1.127</gom:speed><gom:rel_alt>244.95</gom:rel_alt></extensions></trkpt>
   <trkpt lat="59.0816415355" lon="29.951388"><ele>82.759</ele><time>2026-04-25T13:27:22.548Z</time><hdop>3.0</hdop><vdop>1.25</vdop><extensions><gom:speed>1.127</gom:speed><gom:rel_alt>244.76</gom:rel_alt></extensions></trkpt>
   <trkpt lat="59.0817258574" lon="29.9513253033"><ele>82.798</ele><time>2026-04-25T13:27:32.487Z</time><hdop>3.0</hdop><vdop>1.25</vdop><extensions><gom:speed>1.092</gom:speed><gom:rel_alt>245.093</gom:rel_alt></extensions></trkpt>
   <trkpt lat="59.0818142446" lon="29.9512783647"><ele>83.107</ele><time>2026-04-25T13:27:41.790Z</time><hdop>3.0</hdop><vdop>1.25</vdop><extensions><gom:speed>1.136</gom:speed><gom:rel_alt>244.686</gom:rel_alt></extensions></trkpt>
   <trkpt lat="59.0819042243" lon="29.9512301687"><ele>83.147</ele><time>2026-04-25T13:27:50.631Z</time><hdop>3.0</hdop><vdop>1.25</vdop><extensions><gom:speed>1.102</gom:speed><gom:rel_alt>245.151</gom:rel_alt></extensions></trkpt>
   <trkpt lat="59.0819916476" lon="29.951180967"><ele>83.206</ele><time>2026-04-25T13:28:00.990Z</time><hdop>3.0</hdop><vdop>1.25</vdop><extensions><gom:speed>1.025</gom:speed><gom:rel_alt>244.459</gom:rel_alt></extensions></trkpt>
   <trkpt lat="59.0820782326" lon="29.9511227127"><ele>83.309</ele><time>2026-04-25T13:28:11.631Z</time><hdop>3.0</hdop><vdop>1.25</vdop><extensions><gom:speed>0.983</gom:speed><gom:rel_alt>245.698</gom:rel_alt></extensions></trkpt>
   <trkpt lat="59.0821696373" lon="29.9511486128"><ele>83.964</ele><time>2026-04-25T13:28:23.405Z</time><hdop>3.0</hdop><vdop>1.25</vdop><extensions><gom:speed>1.037</gom:speed><gom:rel_alt>245.228</gom:rel_alt></extensions></trkpt>
   <trkpt lat="59.0822625507" lon="29.9511412368"><ele>83.806</ele><time>2026-04-25T13:28:34.631Z</time><hdop>3.0</hdop><vdop>1.25</vdop><extensions><gom:speed>1.078</gom:speed><gom:rel_alt>245.5</gom:rel_alt></extensions></trkpt>
   <trkpt lat="59.0823405443" lon="29.9510508798"><ele>83.663</ele><time>2026-04-25T13:28:45.900Z</time><hdop>3.0</hdop><vdop>1.25</vdop><extensions><gom:speed>1.039</gom:speed><gom:rel_alt>245.03</gom:rel_alt></extensions></trkpt>
   <trkpt lat="59.082422645" lon="29.950974856"><ele>83.379</ele><time>2026-04-25T13:28:55.447Z</time><hdop>3.0</hdop><vdop>1.25</vdop><extensions><gom:speed>1.129</gom:speed><gom:rel_alt>245.135</gom:rel_alt></extensions></trkpt>
   <trkpt lat="59.0825064222" lon="29.9509018496"><ele>83.907</ele><time>2026-04-25T13:29:06.042Z</time><hdop>3.0</hdop><vdop>1.25</vdop><extensions><gom:speed>1.062</gom:speed><gom:rel_alt>245.289</gom:rel_alt></extensions></trkpt>
   <trkpt lat="59.0826012215" lon="29.9509119079"><ele>84.04</ele><time>2026-04-25T13:29:17.631Z</time><hdop>3.0</hdop><vdop>1.25</vdop><extensions><gom:speed>1.099</gom:speed><gom:rel_alt>245.619</gom:rel_alt></extensions></trkpt>
   <trkpt lat="59.0826901535" lon="29.9508642987"><ele>84.094</ele><time>2026-04-25T13:29:27.503Z</time><hdop>3.0</hdop><vdop>1.25</vdop><extensions><gom:speed>1.152</gom:speed><gom:rel_alt>245.492</gom:rel_alt></extensions></trkpt>
   <trkpt lat="59.0827793369" lon="29.9508189526"><ele>84.372</ele><time>2026-04-25T13:29:36.985Z</time><hdop>3.0</hdop><vdop>1.25</vdop><extensions><gom:speed>1.101</gom:speed><gom:rel_alt>246.132</gom:rel_alt></extensions></trkpt>
   <trkpt lat="59.0828715379" lon="29.9507702537"><ele>84.577</ele><time>2026-04-25T13:29:46.221Z</time><hdop>3.0</hdop><vdop>1.25</vdop><extensions><gom:speed>1.045</gom:speed><gom:rel_alt>246.451</gom:rel_alt></extensions></trkpt>
   <trkpt lat="59.0829603441" lon="29.9507173639"><ele>84.6</ele><time>2026-04-25T13:29:55.465Z</time><hdop>3.0</hdop><vdop>1.25</vdop><extensions><gom:speed>1.038</gom:speed><gom:rel_alt>245.682</gom:rel_alt></extensions></trkpt>
   <trkpt lat="59.0830529222" lon="29.9506795615"><ele>84.603</ele><time>2026-04-25T13:30:04.225Z</time><hdop>3.0</hdop><vdop>1.25</vdop><extensions><gom:speed>1.149</gom:speed><gom:rel_alt>245.981</gom:rel_alt></extensions></trkpt>
   <trkpt lat="59.0831465481" lon="29.9506399989"><ele>85.086</ele><time>2026-04-25T13:30:14.419Z</time><hdop>3.0</hdop><vdop>1.25</vdop><extensions><gom:speed>1.084</gom:speed><gom:rel_alt>246.512</gom:rel_alt></extensions></trkpt>
   <trkpt lat="59.0832371565" lon="29.9506080639"><ele>85.196</ele><time>2026-04-25T13:30:24.623Z</time><hdop>3.0</hdop><vdop>1.25</vdop><extensions><gom:speed>1.102</gom:speed><gom:rel_alt>246.264</gom:rel_alt></extensions></trkpt>
   <trkpt lat="59.083322149" lon="29.9505270109"><ele>84.957</ele><time>2026-04-25T13:30:34.631Z</time><hdop>3.0</hdop><vdop>1.25</vdop><extensions><gom:speed>1.063</gom:speed><gom:rel_alt>246.303</gom:rel_alt></extensions></trkpt>
   <trkpt lat="59.0834149366" lon="29.9505312018"><ele>85.414</ele><time>2026-04-25T13:30:44.584Z</time><hdop>3.0</hdop><vdop>1.25</vdop><extensions><gom:speed>1.185</gom:speed><gom:rel_alt>246.34</gom:rel_alt></extensions></trkpt>
   <trkpt lat="59.0835056288" lon="29.950478312"><ele>85.556</ele><time>2026-04-25T13:30:54.524Z</time><hdop>3.0</hdop><vdop>1.25</vdop><extensions><gom:speed>1.149</gom:speed><gom:rel_alt>246.224</gom:rel_alt></extensions></trkpt>
   <trkpt lat="59.0835964468" lon="29.9504308705"><ele>84.927</ele><time>2026-04-25T13:31:04.422Z</time><hdop>3.0</hdop><vdop>1.25</vdop><extensions><gom:speed>1.153</gom:speed><gom:rel_alt>246.2</gom:rel_alt></extensions></trkpt>
   <trkpt lat="59.0836838281" lon="29.950383848"><ele>85.378</ele><time>2026-04-25T13:31:14.630Z</time><hdop>3.0</hdop><vdop>1.25</vdop><extensions><gom:speed>1.008</gom:speed><gom:rel_alt>246.676</gom:rel_alt></extensions></trkpt>
   <trkpt lat="59.0837755261" lon="29.9503485602"><ele>85.475</ele><time>2026-04-25T13:31:24.497Z</time><hdop>3.0</hdop><vdop>1.25</vdop><extensions><gom:speed>1.055</gom:speed><gom:rel_alt>246.153</gom:rel_alt></extensions></trkpt>
   <trkpt lat="59.083871457" lon="29.9503211513"><ele>85.262</ele><time>2026-04-25T13:31:34.777Z</time><hdop>3.0</hdop><vdop>1.25</vdop><extensions><gom:speed>1.221</gom:speed><gom:rel_alt>246.375</gom:rel_alt></extensions></trkpt>
   <trkpt lat="59.0839623168" lon="29.9503012024"><ele>86.161</ele><time>2026-04-25T13:31:45.631Z</time><hdop>3.0</hdop><vdop>1.25</vdop><extensions><gom:speed>0.582</gom:speed><gom:rel_alt>246.895</gom:rel_alt></extensions></trkpt>
   <trkpt lat="59.0840469321" lon="29.9502385896"><ele>86.519</ele><time>2026-04-25T13:32:41.532Z</time><hdop>3.0</hdop><vdop>1.25</vdop><extensions><gom:speed>1.101</gom:speed><gom:rel_alt>246.853</gom:rel_alt></extensions></trkpt>
   <trkpt lat="59.0841313379" lon="29.9501525913"><ele>86.257</ele><time>2026-04-25T13:32:53.609Z</time><hdop>3.0</hdop><vdop>1.25</vdop><extensions><gom:speed>0.902</gom:speed><gom:rel_alt>247.109</gom:rel_alt></extensions></trkpt>
   <trkpt lat="59.0842245447" lon="29.9501592968"><ele>87.132</ele><time>2026-04-25T13:33:04.052Z</time><hdop>3.0</hdop><vdop>1.25</vdop><extensions><gom:speed>1.025</gom:speed><gom:rel_alt>247.413</gom:rel_alt></extensions></trkpt>
   <trkpt lat="59.084319344" lon="29.950162901"><ele>86.696</ele><time>2026-04-25T13:33:25.067Z</time><hdop>3.0</hdop><vdop>1.25</vdop><extensions><gom:speed>0.769</gom:speed><gom:rel_alt>247.706</gom:rel_alt></extensions></trkpt>
   <trkpt lat="59.0844028277" lon="29.950093415"><ele>86.737</ele><time>2026-04-25T13:33:53.143Z</time><hdop>3.0</hdop><vdop>1.25</vdop><extensions><gom:speed>1.15</gom:speed><gom:rel_alt>247.463</gom:rel_alt></extensions></trkpt>
   <trkpt lat="59.0844932266" lon="29.9500479013"><ele>87.775</ele><time>2026-04-25T13:34:02.826Z</time><hdop>3.0</hdop><vdop>1.25</vdop><extensions><gom:speed>1.082</gom:speed><gom:rel_alt>247.307</gom:rel_alt></extensions></trkpt>
   <trkpt lat="59.0845782191" lon="29.9499428761"><ele>87.19</ele><time>2026-04-25T13:34:13.341Z</time><hdop>3.5</hdop><vdop>1.25</vdop><extensions><gom:speed>1.103</gom:speed><gom:rel_alt>247.638</gom:rel_alt></extensions></trkpt>
   <trkpt lat="59.0846652232" lon="29.9498966918"><ele>87.372</ele><time>2026-04-25T13:34:22.023Z</time><hdop>3.0</hdop><vdop>1.25</vdop><extensions><gom:speed>0.969</gom:speed><gom:rel_alt>248.399</gom:rel_alt></extensions></trkpt>
   <trkpt lat="59.0847543229" lon="29.9498387728"><ele>88.305</ele><time>2026-04-25T13:34:33.281Z</time><hdop>3.0</hdop><vdop>1.25</vdop><extensions><gom:speed>1.056</gom:speed><gom:rel_alt>248.541</gom:rel_alt></extensions></trkpt>
   <trkpt lat="59.0848400278" lon="29.9497738131"><ele>87.736</ele><time>2026-04-25T13:34:40.940Z</time><hdop>3.25</hdop><vdop>1.25</vdop><extensions><gom:speed>1.042</gom:speed><gom:rel_alt>248.227</gom:rel_alt></extensions></trkpt>
   <trkpt lat="59.0849241402" lon="29.9497050815"><ele>87.526</ele><time>2026-04-25T13:34:51.105Z</time><hdop>3.0</hdop><vdop>1.25</vdop><extensions><gom:speed>1.011</gom:speed><gom:rel_alt>248.33</gom:rel_alt></extensions></trkpt>
   <trkpt lat="59.0850206578" lon="29.949665938"><ele>88.51</ele><time>2026-04-25T13:35:02.630Z</time><hdop>3.0</hdop><vdop>1.25</vdop><extensions><gom:speed>0.9</gom:speed><gom:rel_alt>248.338</gom:rel_alt></extensions></trkpt>
   <trkpt lat="59.0851083325" lon="29.9496231065"><ele>87.73</ele><time>2026-04-25T13:35:11.722Z</time><hdop>3.0</hdop><vdop>1.25</vdop><extensions><gom:speed>1.11</gom:speed><gom:rel_alt>248.296</gom:rel_alt></extensions></trkpt>
   <trkpt lat="59.0852054369" lon="29.9496459052"><ele>87.43</ele><time>2026-04-25T13:35:21.630Z</time><hdop>3.0</hdop><vdop>1.25</vdop><extensions><gom:speed>1.177</gom:speed><gom:rel_alt>248.037</gom:rel_alt></extensions></trkpt>
   <trkpt lat="59.0852875376" lon="29.9495646846"><ele>87.872</ele><time>2026-04-25T13:35:29.631Z</time><hdop>3.0</hdop><vdop>1.25</vdop><extensions><gom:speed>1.179</gom:speed><gom:rel_alt>248.158</gom:rel_alt></extensions></trkpt>
   <trkpt lat="59.0853799481" lon="29.9495856393"><ele>87.2</ele><time>2026-04-25T13:35:42.631Z</time><hdop>3.0</hdop><vdop>1.25</vdop><extensions><gom:speed>0.741</gom:speed><gom:rel_alt>247.976</gom:rel_alt></extensions></trkpt>
   <trkpt lat="59.0854605401" lon="29.9494937737"><ele>87.807</ele><time>2026-04-25T13:35:53.886Z</time><hdop>3.0</hdop><vdop>1.25</vdop><extensions><gom:speed>1.113</gom:speed><gom:rel_alt>248.045</gom:rel_alt></extensions></trkpt>
   <trkpt lat="59.0855479215" lon="29.9494377826"><ele>87.655</ele><time>2026-04-25T13:36:03.558Z</time><hdop>3.0</hdop><vdop>1.25</vdop><extensions><gom:speed>1.088</gom:speed><gom:rel_alt>248.626</gom:rel_alt></extensions></trkpt>
   <trkpt lat="59.0856425531" lon="29.9494040873"><ele>87.593</ele><time>2026-04-25T13:36:12.632Z</time><hdop>3.125</hdop><vdop>1.25</vdop><extensions><gom:speed>1.118</gom:speed><gom:rel_alt>248.634</gom:rel_alt></extensions></trkpt>
   <trkpt lat="59.0857349217" lon="29.9493864015"><ele>88.361</ele><time>2026-04-25T13:36:22.219Z</time><hdop>3.0</hdop><vdop>1.25</vdop><extensions><gom:speed>1.081</gom:speed><gom:rel_alt>248.65</gom:rel_alt></extensions></trkpt>
   <trkpt lat="59.0858193275" lon="29.9493185081"><ele>88.269</ele><time>2026-04-25T13:36:31.283Z</time><hdop>3.0</hdop><vdop>1.25</vdop><extensions><gom:speed>1.185</gom:speed><gom:rel_alt>248.829</gom:rel_alt></extensions></trkpt>
   <trkpt lat="59.0859081337" lon="29.9492745869"><ele>88.016</ele><time>2026-04-25T13:36:40.025Z</time><hdop>3.0</hdop><vdop>1.25</vdop><extensions><gom:speed>1.212</gom:speed><gom:rel_alt>248.829</gom:rel_alt></extensions></trkpt>
   <trkpt lat="59.0859973172" lon="29.9493014928"><ele>88.793</ele><time>2026-04-25T13:36:51.631Z</time><hdop>3.0</hdop><vdop>1.25</vdop><extensions><gom:speed>1.034</gom:speed><gom:rel_alt>248.983</gom:rel_alt></extensions></trkpt>
   <trkpt lat="59.086090943" lon="29.9492830526"><ele>88.247</ele><time>2026-04-25T13:37:01.362Z</time><hdop>3.0</hdop><vdop>1.25</vdop><extensions><gom:speed>1.02</gom:speed><gom:rel_alt>249.363</gom:rel_alt></extensions></trkpt>
   <trkpt lat="59.0861903524" lon="29.9492364493"><ele>88.284</ele><time>2026-04-25T13:37:13.630Z</time><hdop>3.0</hdop><vdop>1.25</vdop><extensions><gom:speed>0.998</gom:speed><gom:rel_alt>248.985</gom:rel_alt></extensions></trkpt>
   <trkpt lat="59.0862802483" lon="29.9491829727"><ele>88.88</ele><time>2026-04-25T13:37:22.927Z</time><hdop>3.0</hdop><vdop>1.25</vdop><extensions><gom:speed>1.047</gom:speed><gom:rel_alt>249.263</gom:rel_alt></extensions></trkpt>
   <trkpt lat="59.0863687193" lon="29.9491369561"><ele>89.009</ele><time>2026-04-25T13:37:32.882Z</time><hdop>3.0</hdop><vdop>1.25</vdop><extensions><gom:speed>1.043</gom:speed><gom:rel_alt>249.699</gom:rel_alt></extensions></trkpt>
   <trkpt lat="59.0864596211" lon="29.9491048534"><ele>89.078</ele><time>2026-04-25T13:37:43.632Z</time><hdop>3.0</hdop><vdop>1.25</vdop><extensions><gom:speed>1.017</gom:speed><gom:rel_alt>249.688</gom:rel_alt></extensions></trkpt>
   <trkpt lat="59.0865474215" lon="29.9490588367"><ele>89.282</ele><time>2026-04-25T13:37:52.302Z</time><hdop>3.0</hdop><vdop>1.25</vdop><extensions><gom:speed>1.082</gom:speed><gom:rel_alt>249.215</gom:rel_alt></extensions></trkpt>
   <trkpt lat="59.0866345514" lon="29.9489971459"><ele>89.036</ele><time>2026-04-25T13:38:02.632Z</time><hdop>3.0</hdop><vdop>1.25</vdop><extensions><gom:speed>1.085</gom:speed><gom:rel_alt>249.984</gom:rel_alt></extensions></trkpt>
   <trkpt lat="59.0867232319" lon="29.94894895"><ele>89.204</ele><time>2026-04-25T13:38:11.632Z</time><hdop>3.0</hdop><vdop>1.25</vdop><extensions><gom:speed>1.154</gom:speed><gom:rel_alt>249.693</gom:rel_alt></extensions></trkpt>
   <trkpt lat="59.0868125411" lon="29.9488990777"><ele>89.376</ele><time>2026-04-25T13:38:20.185Z</time><hdop>3.0</hdop><vdop>1.25</vdop><extensions><gom:speed>1.198</gom:speed><gom:rel_alt>249.345</gom:rel_alt></extensions></trkpt>
   <trkpt lat="59.0868999224" lon="29.9488519714"><ele>88.982</ele><time>2026-04-25T13:38:28.744Z</time><hdop>3.0</hdop><vdop>1.25</vdop><extensions><gom:speed>1.17</gom:speed><gom:rel_alt>249.506</gom:rel_alt></extensions></trkpt>
   <trkpt lat="59.0869903213" lon="29.9488217127"><ele>88.813</ele><time>2026-04-25T13:38:38.007Z</time><hdop>3.0</hdop><vdop>1.25</vdop><extensions><gom:speed>1.091</gom:speed><gom:rel_alt>249.907</gom:rel_alt></extensions></trkpt>
   <trkpt lat="59.0870806363" lon="29.9487648834"><ele>89.457</ele><time>2026-04-25T13:38:48.485Z</time><hdop>3.0</hdop><vdop>1.25</vdop><extensions><gom:speed>0.987</gom:speed><gom:rel_alt>250.132</gom:rel_alt></extensions></trkpt>
   <trkpt lat="59.0871785369" lon="29.9487275839"><ele>88.93</ele><time>2026-04-25T13:38:58.631Z</time><hdop>3.0</hdop><vdop>1.25</vdop><extensions><gom:speed>1.026</gom:speed><gom:rel_alt>249.67</gom:rel_alt></extensions></trkpt>
   <trkpt lat="59.0872723304" lon="29.9487018515"><ele>88.62</ele><time>2026-04-25T13:39:07.182Z</time><hdop>3.0</hdop><vdop>1.25</vdop><extensions><gom:speed>1.237</gom:speed><gom:rel_alt>249.699</gom:rel_alt></extensions></trkpt>
   <trkpt lat="59.0873619329" lon="29.9487345409"><ele>89.193</ele><time>2026-04-25T13:39:26.981Z</time><hdop>3.0</hdop><vdop>1.25</vdop><extensions><gom:speed>0.812</gom:speed><gom:rel_alt>249.733</gom:rel_alt></extensions></trkpt>
   <trkpt lat="59.0874477217" lon="29.9488269095"><ele>88.962</ele><time>2026-04-25T13:39:39.200Z</time><hdop>3.0</hdop><vdop>1.25</vdop><extensions><gom:speed>0.968</gom:speed><gom:rel_alt>250.277</gom:rel_alt></extensions></trkpt>
   <trkpt lat="59.0874391303" lon="29.9490030133"><ele>89.37</ele><time>2026-04-25T13:39:48.632Z</time><hdop>3.0</hdop><vdop>1.25</vdop><extensions><gom:speed>1.098</gom:speed><gom:rel_alt>250.077</gom:rel_alt></extensions></trkpt>
   <trkpt lat="59.0874493562" lon="29.9491829727"><ele>89.197</ele><time>2026-04-25T13:39:58.645Z</time><hdop>3.0</hdop><vdop>1.25</vdop><extensions><gom:speed>1.124</gom:speed><gom:rel_alt>250.095</gom:rel_alt></extensions></trkpt>
   <trkpt lat="59.0874950376" lon="29.9493475933"><ele>89.211</ele><time>2026-04-25T13:40:09.632Z</time><hdop>3.0</hdop><vdop>1.25</vdop><extensions><gom:speed>1.134</gom:speed><gom:rel_alt>250.497</gom:rel_alt></extensions></trkpt>
   <trkpt lat="59.0875096221" lon="29.9495267984"><ele>89.315</ele><time>2026-04-25T13:40:19.404Z</time><hdop>3.0</hdop><vdop>1.25</vdop><extensions><gom:speed>1.234</gom:speed><gom:rel_alt>250.032</gom:rel_alt></extensions></trkpt>
   <trkpt lat="59.0875248352" lon="29.9497008905"><ele>89.33</ele><time>2026-04-25T13:40:28.305Z</time><hdop>3.0</hdop><vdop>1.25</vdop><extensions><gom:speed>1.122</gom:speed><gom:rel_alt>250.261</gom:rel_alt></extensions></trkpt>
   <trkpt lat="59.0875368213" lon="29.9498829454"><ele>89.231</ele><time>2026-04-25T13:40:37.787Z</time><hdop>3.0</hdop><vdop>1.25</vdop><extensions><gom:speed>1.218</gom:speed><gom:rel_alt>250.401</gom:rel_alt></extensions></trkpt>
   <trkpt lat="59.0875552196" lon="29.9500579596"><ele>89.272</ele><time>2026-04-25T13:40:47.633Z</time><hdop>3.0</hdop><vdop>1.25</vdop><extensions><gom:speed>1.07</gom:speed><gom:rel_alt>250.053</gom:rel_alt></extensions></trkpt>
   <trkpt lat="59.0875843467" lon="29.9502287828"><ele>89.068</ele><time>2026-04-25T13:40:57.631Z</time><hdop>3.0</hdop><vdop>1.25</vdop><extensions><gom:speed>0.913</gom:speed><gom:rel_alt>249.963</gom:rel_alt></extensions></trkpt>
   <trkpt lat="59.0876167428" lon="29.9503954988"><ele>88.921</ele><time>2026-04-25T13:41:08.632Z</time><hdop>3.0</hdop><vdop>1.25</vdop><extensions><gom:speed>1.076</gom:speed><gom:rel_alt>250.121</gom:rel_alt></extensions></trkpt>
   <trkpt lat="59.08762173" lon="29.9505767156"><ele>88.852</ele><time>2026-04-25T13:41:23.633Z</time><hdop>3.0</hdop><vdop>1.25</vdop><extensions><gom:speed>0.911</gom:speed><gom:rel_alt>250.24</gom:rel_alt></extensions></trkpt>
   <trkpt lat="59.0876577303" lon="29.9507560045"><ele>89.219</ele><time>2026-04-25T13:41:34.207Z</time><hdop>3.0</hdop><vdop>1.25</vdop><extensions><gom:speed>1.148</gom:speed><gom:rel_alt>250.592</gom:rel_alt></extensions></trkpt>
   <trkpt lat="59.0876648549" lon="29.950930851"><ele>89.516</ele><time>2026-04-25T13:41:44.886Z</time><hdop>3.0</hdop><vdop>1.25</vdop><extensions><gom:speed>1.054</gom:speed><gom:rel_alt>250.275</gom:rel_alt></extensions></trkpt>
   <trkpt lat="59.087656934" lon="29.9511113972"><ele>89.088</ele><time>2026-04-25T13:41:56.581Z</time><hdop>3.0</hdop><vdop>1.25</vdop><extensions><gom:speed>0.967</gom:speed><gom:rel_alt>250.18</gom:rel_alt></extensions></trkpt>
   <trkpt lat="59.0876842171" lon="29.9512850702"><ele>89.423</ele><time>2026-04-25T13:42:06.963Z</time><hdop>3.0</hdop><vdop>1.25</vdop><extensions><gom:speed>0.957</gom:speed><gom:rel_alt>250.349</gom:rel_alt></extensions></trkpt>
   <trkpt lat="59.0877156492" lon="29.951457486"><ele>89.692</ele><time>2026-04-25T13:42:17.403Z</time><hdop>3.0</hdop><vdop>1.25</vdop><extensions><gom:speed>1.071</gom:speed><gom:rel_alt>250.375</gom:rel_alt></extensions></trkpt>
   <trkpt lat="59.0877393281" lon="29.951637194"><ele>89.117</ele><time>2026-04-25T13:42:29.165Z</time><hdop>3.0</hdop><vdop>1.25</vdop><extensions><gom:speed>0.983</gom:speed><gom:rel_alt>250.906</gom:rel_alt></extensions></trkpt>
   <trkpt lat="59.087826458" lon="29.951680696"><ele>89.77</ele><time>2026-04-25T13:42:43.631Z</time><hdop>3.0</hdop><vdop>1.25</vdop><extensions><gom:speed>0.82</gom:speed><gom:rel_alt>250.283</gom:rel_alt></extensions></trkpt>
   <trkpt lat="59.0879210478" lon="29.9516744096"><ele>89.349</ele><time>2026-04-25T13:42:53.322Z</time><hdop>3.0</hdop><vdop>1.25</vdop><extensions><gom:speed>1.003</gom:speed><gom:rel_alt>250.703</gom:rel_alt></extensions></trkpt>
   <trkpt lat="59.0880148413" lon="29.9517096974"><ele>89.607</ele><time>2026-04-25T13:43:04.648Z</time><hdop>3.0</hdop><vdop>1.25</vdop><extensions><gom:speed>0.962</gom:speed><gom:rel_alt>250.277</gom:rel_alt></extensions></trkpt>
   <trkpt lat="59.0881045276" lon="29.9517687898"><ele>89.769</ele><time>2026-04-25T13:43:16.142Z</time><hdop>3.0</hdop><vdop>1.25</vdop><extensions><gom:speed>0.957</gom:speed><gom:rel_alt>250.713</gom:rel_alt></extensions></trkpt>
   <trkpt lat="59.0881930405" lon="29.9517088592"><ele>89.809</ele><time>2026-04-25T13:43:25.631Z</time><hdop>3.0</hdop><vdop>1.25</vdop><extensions><gom:speed>1.086</gom:speed><gom:rel_alt>250.906</gom:rel_alt></extensions></trkpt>
   <trkpt lat="59.0882705312" lon="29.9516025767"><ele>89.802</ele><time>2026-04-25T13:43:35.541Z</time><hdop>3.0</hdop><vdop>1.25</vdop><extensions><gom:speed>1.061</gom:speed><gom:rel_alt>250.497</gom:rel_alt></extensions></trkpt>
   <trkpt lat="59.0883601338" lon="29.9516725656"><ele>89.691</ele><time>2026-04-25T13:43:44.567Z</time><hdop>3.0</hdop><vdop>1.25</vdop><extensions><gom:speed>1.045</gom:speed><gom:rel_alt>250.819</gom:rel_alt></extensions></trkpt>
   <trkpt lat="59.0884560228" lon="29.9516922631"><ele>90.002</ele><time>2026-04-25T13:43:55.586Z</time><hdop>3.0</hdop><vdop>1.25</vdop><extensions><gom:speed>1.038</gom:speed><gom:rel_alt>250.985</gom:rel_alt></extensions></trkpt>
   <trkpt lat="59.0885437394" lon="29.9517486733"><ele>90.081</ele><time>2026-04-25T13:44:05.221Z</time><hdop>3.0</hdop><vdop>1.25</vdop><extensions><gom:speed>0.975</gom:speed><gom:rel_alt>251.046</gom:rel_alt></extensions></trkpt>
   <trkpt lat="59.0886326295" lon="29.9517813627"><ele>90.334</ele><time>2026-04-25T13:44:16.041Z</time><hdop>3.0</hdop><vdop>1.25</vdop><extensions><gom:speed>1.081</gom:speed><gom:rel_alt>251.041</gom:rel_alt></extensions></trkpt>
   <trkpt lat="59.0887024507" lon="29.951895608"><ele>89.917</ele><time>2026-04-25T13:44:27.906Z</time><hdop>3.0</hdop><vdop>1.25</vdop><extensions><gom:speed>1.016</gom:speed><gom:rel_alt>250.827</gom:rel_alt></extensions></trkpt>
   <trkpt lat="59.0887823302" lon="29.9519937601"><ele>89.868</ele><time>2026-04-25T13:44:39.462Z</time><hdop>3.0</hdop><vdop>1.375</vdop><extensions><gom:speed>1.118</gom:speed><gom:rel_alt>250.483</gom:rel_alt></extensions></trkpt>
   <trkpt lat="59.0888577255" lon="29.9521002103"><ele>90.033</ele><time>2026-04-25T13:44:52.401Z</time><hdop>3.0</hdop><vdop>1.25</vdop><extensions><gom:speed>1.008</gom:speed><gom:rel_alt>251.004</gom:rel_alt></extensions></trkpt>
   <trkpt lat="59.0889182428" lon="29.9522473965"><ele>89.913</ele><time>2026-04-25T13:45:05.541Z</time><hdop>3.0</hdop><vdop>1.25</vdop><extensions><gom:speed>1.069</gom:speed><gom:rel_alt>250.367</gom:rel_alt></extensions></trkpt>
   <trkpt lat="59.0889699172" lon="29.9524029646"><ele>90.023</ele><time>2026-04-25T13:45:16.523Z</time><hdop>3.0</hdop><vdop>1.25</vdop><extensions><gom:speed>1.064</gom:speed><gom:rel_alt>250.906</gom:rel_alt></extensions></trkpt>
   <trkpt lat="59.0890269561" lon="29.9525478877"><ele>89.812</ele><time>2026-04-25T13:45:27.631Z</time><hdop>3.0</hdop><vdop>1.25</vdop><extensions><gom:speed>0.847</gom:speed><gom:rel_alt>250.8</gom:rel_alt></extensions></trkpt>
   <trkpt lat="59.0891014293" lon="29.9526666593"><ele>89.884</ele><time>2026-04-25T13:46:13.501Z</time><hdop>3.25</hdop><vdop>2.0</vdop><extensions><gom:speed>0.945</gom:speed><gom:rel_alt>250.848</gom:rel_alt></extensions></trkpt>
   <trkpt lat="59.0891757349" lon="29.9527796474"><ele>89.568</ele><time>2026-04-25T13:46:20.445Z</time><hdop>3.375</hdop><vdop>1.75</vdop><extensions><gom:speed>0.858</gom:speed><gom:rel_alt>250.116</gom:rel_alt></extensions></trkpt>
   <trkpt lat="59.0892368389" lon="29.9526379932"><ele>88.981</ele><time>2026-04-25T13:46:32.664Z</time><hdop>3.5</hdop><vdop>1.625</vdop><extensions><gom:speed>0.913</gom:speed><gom:rel_alt>249.886</gom:rel_alt></extensions></trkpt>
   <trkpt lat="59.0894459255" lon="29.9528180365"><ele>89.426</ele><time>2026-04-25T13:48:11.633Z</time><hdop>7.75</hdop><vdop>2.125</vdop><extensions><gom:speed>0.51</gom:speed><gom:rel_alt>250.534</gom:rel_alt></extensions></trkpt>
   <trkpt lat="59.0895237515" lon="29.9529866804"><ele>89.62</ele><time>2026-04-25T13:48:14.631Z</time><hdop>5.75</hdop><vdop>1.75</vdop><extensions><gom:speed>0.713</gom:speed><gom:rel_alt>250.494</gom:rel_alt></extensions></trkpt>
   <trkpt lat="59.089617545" lon="29.9529352993"><ele>89.54</ele><time>2026-04-25T13:48:26.631Z</time><hdop>3.0</hdop><vdop>1.5</vdop><extensions><gom:speed>0.878</gom:speed><gom:rel_alt>251.192</gom:rel_alt></extensions></trkpt>
   <trkpt lat="59.0897108356" lon="29.9528982513"><ele>89.814</ele><time>2026-04-25T13:48:36.631Z</time><hdop>3.0</hdop><vdop>1.5</vdop><extensions><gom:speed>0.9</gom:speed><gom:rel_alt>250.88</gom:rel_alt></extensions></trkpt>
   <trkpt lat="59.0898038328" lon="29.9529376462"><ele>89.418</ele><time>2026-04-25T13:48:46.204Z</time><hdop>3.0</hdop><vdop>1.375</vdop><extensions><gom:speed>1.005</gom:speed><gom:rel_alt>250.024</gom:rel_alt></extensions></trkpt>
   <trkpt lat="59.089894525" lon="29.9529338744"><ele>89.867</ele><time>2026-04-25T13:48:56.447Z</time><hdop>3.0</hdop><vdop>1.625</vdop><extensions><gom:speed>0.991</gom:speed><gom:rel_alt>250.568</gom:rel_alt></extensions></trkpt>
   <trkpt lat="59.0899517315" lon="29.9527918011"><ele>89.482</ele><time>2026-04-25T13:49:08.558Z</time><hdop>3.0</hdop><vdop>2.125</vdop><extensions><gom:speed>0.718</gom:speed><gom:rel_alt>251.318</gom:rel_alt></extensions></trkpt>
   <trkpt lat="59.0900081417" lon="29.9526555952"><ele>89.574</ele><time>2026-04-25T13:49:51.631Z</time><hdop>3.125</hdop><vdop>1.625</vdop><extensions><gom:speed>0.508</gom:speed><gom:rel_alt>250.306</gom:rel_alt></extensions></trkpt>
   <trkpt lat="59.0900859257" lon="29.952765482"><ele>89.671</ele><time>2026-04-25T13:50:03.631Z</time><hdop>3.875</hdop><vdop>2.0</vdop><extensions><gom:speed>1.038</gom:speed><gom:rel_alt>250.663</gom:rel_alt></extensions></trkpt>
   <trkpt lat="59.090169158" lon="29.9528363929"><ele>90.084</ele><time>2026-04-25T13:50:11.186Z</time><hdop>3.5</hdop><vdop>1.5</vdop><extensions><gom:speed>1.069</gom:speed><gom:rel_alt>250.874</gom:rel_alt></extensions></trkpt>
   <trkpt lat="59.0902359199" lon="29.9529582657"><ele>90.629</ele><time>2026-04-25T13:50:19.632Z</time><hdop>3.0</hdop><vdop>1.625</vdop><extensions><gom:speed>0.992</gom:speed><gom:rel_alt>251.252</gom:rel_alt></extensions></trkpt>
   <trkpt lat="59.0903252291" lon="29.9529922963"><ele>91.104</ele><time>2026-04-25T13:50:33.407Z</time><hdop>3.0</hdop><vdop>1.625</vdop><extensions><gom:speed>0.594</gom:speed><gom:rel_alt>251.775</gom:rel_alt></extensions></trkpt>
   <trkpt lat="59.0904200284" lon="29.9529539071"><ele>90.948</ele><time>2026-04-25T13:50:40.631Z</time><hdop>3.0</hdop><vdop>2.125</vdop><extensions><gom:speed>1.137</gom:speed><gom:rel_alt>251.313</gom:rel_alt></extensions></trkpt>
   <trkpt lat="59.0905085413" lon="29.952986848"><ele>91.62</ele><time>2026-04-25T13:50:48.632Z</time><hdop>3.0</hdop><vdop>1.625</vdop><extensions><gom:speed>0.93</gom:speed><gom:rel_alt>251.802</gom:rel_alt></extensions></trkpt>
   <trkpt lat="59.0905901391" lon="29.9530695774"><ele>91.38</ele><time>2026-04-25T13:51:01.624Z</time><hdop>3.0</hdop><vdop>1.75</vdop><extensions><gom:speed>0.826</gom:speed><gom:rel_alt>251.421</gom:rel_alt></extensions></trkpt>
   <trkpt lat="59.0906429451" lon="29.9532202002"><ele>91.897</ele><time>2026-04-25T13:51:18.287Z</time><hdop>3.0</hdop><vdop>1.75</vdop><extensions><gom:speed>0.848</gom:speed><gom:rel_alt>251.588</gom:rel_alt></extensions></trkpt>
   <trkpt lat="59.0907415163" lon="29.9532379698"><ele>91.3</ele><time>2026-04-25T13:51:26.632Z</time><hdop>3.0</hdop><vdop>2.125</vdop><extensions><gom:speed>0.824</gom:speed><gom:rel_alt>252.246</gom:rel_alt></extensions></trkpt>
   <trkpt lat="59.0908277242" lon="29.9532973975"><ele>92.154</ele><time>2026-04-25T13:51:39.405Z</time><hdop>3.0</hdop><vdop>1.875</vdop><extensions><gom:speed>0.597</gom:speed><gom:rel_alt>252.225</gom:rel_alt></extensions></trkpt>
   <trkpt lat="59.0909198413" lon="29.9533362896"><ele>91.5</ele><time>2026-04-25T13:51:54.625Z</time><hdop>3.0</hdop><vdop>2.0</vdop><extensions><gom:speed>0.894</gom:speed><gom:rel_alt>252.153</gom:rel_alt></extensions></trkpt>
   <trkpt lat="59.0910096534" lon="29.9533678055"><ele>92.337</ele><time>2026-04-25T13:52:08.202Z</time><hdop>3.0</hdop><vdop>1.875</vdop><extensions><gom:speed>0.828</gom:speed><gom:rel_alt>252.053</gom:rel_alt></extensions></trkpt>
   <trkpt lat="59.0911014352" lon="29.9533901852"><ele>91.743</ele><time>2026-04-25T13:52:18.185Z</time><hdop>3.0</hdop><vdop>1.625</vdop><extensions><gom:speed>0.779</gom:speed><gom:rel_alt>252.156</gom:rel_alt></extensions></trkpt>
   <trkpt lat="59.0911931332" lon="29.953433352"><ele>91.523</ele><time>2026-04-25T13:52:32.625Z</time><hdop>3.0</hdop><vdop>2.25</vdop><extensions><gom:speed>0.954</gom:speed><gom:rel_alt>251.826</gom:rel_alt></extensions></trkpt>
   <trkpt lat="59.0912670197" lon="29.953548687"><ele>92.045</ele><time>2026-04-25T13:52:44.632Z</time><hdop>3.0</hdop><vdop>1.625</vdop><extensions><gom:speed>0.911</gom:speed><gom:rel_alt>252.315</gom:rel_alt></extensions></trkpt>
   <trkpt lat="59.0913496234" lon="29.9536211066"><ele>91.695</ele><time>2026-04-25T13:52:55.207Z</time><hdop>3.0</hdop><vdop>1.625</vdop><extensions><gom:speed>0.903</gom:speed><gom:rel_alt>252.647</gom:rel_alt></extensions></trkpt>
   <trkpt lat="59.0914398546" lon="29.9536258843"><ele>92.199</ele><time>2026-04-25T13:53:09.201Z</time><hdop>3.0</hdop><vdop>1.875</vdop><extensions><gom:speed>0.769</gom:speed><gom:rel_alt>251.805</gom:rel_alt></extensions></trkpt>
   <trkpt lat="59.0915043533" lon="29.9537559714"><ele>91.323</ele><time>2026-04-25T13:53:22.539Z</time><hdop>3.0</hdop><vdop>1.625</vdop><extensions><gom:speed>0.693</gom:speed><gom:rel_alt>252.322</gom:rel_alt></extensions></trkpt>
   <trkpt lat="59.0915978534" lon="29.9537622579"><ele>91.691</ele><time>2026-04-25T13:53:40.324Z</time><hdop>3.0</hdop><vdop>1.625</vdop><extensions><gom:speed>0.959</gom:speed><gom:rel_alt>251.871</gom:rel_alt></extensions></trkpt>
   <trkpt lat="59.09167262" lon="29.9538630084"><ele>91.352</ele><time>2026-04-25T13:53:53.185Z</time><hdop>3.0</hdop><vdop>1.375</vdop><extensions><gom:speed>0.872</gom:speed><gom:rel_alt>252.354</gom:rel_alt></extensions></trkpt>
   <trkpt lat="59.091765743" lon="29.9538723123"><ele>92.048</ele><time>2026-04-25T13:54:03.607Z</time><hdop>3.0</hdop><vdop>1.875</vdop><extensions><gom:speed>0.844</gom:speed><gom:rel_alt>252.322</gom:rel_alt></extensions></trkpt>
   <trkpt lat="59.0918567285" lon="29.9539127969"><ele>91.708</ele><time>2026-04-25T13:54:14.382Z</time><hdop>3.0</hdop><vdop>1.75</vdop><extensions><gom:speed>0.945</gom:speed><gom:rel_alt>252.069</gom:rel_alt></extensions></trkpt>
   <trkpt lat="59.0919434393" lon="29.9539864738"><ele>91.069</ele><time>2026-04-25T13:54:26.220Z</time><hdop>3.0</hdop><vdop>1.375</vdop><extensions><gom:speed>1.01</gom:speed><gom:rel_alt>252.217</gom:rel_alt></extensions></trkpt>
   <trkpt lat="59.0920349278" lon="29.9540101108"><ele>91.975</ele><time>2026-04-25T13:54:37.632Z</time><hdop>3.0</hdop><vdop>1.5</vdop><extensions><gom:speed>0.969</gom:speed><gom:rel_alt>252.285</gom:rel_alt></extensions></trkpt>
   <trkpt lat="59.0921139272" lon="29.9541020602"><ele>90.899</ele><time>2026-04-25T13:54:51.632Z</time><hdop>3.0</hdop><vdop>1.625</vdop><extensions><gom:speed>0.921</gom:speed><gom:rel_alt>252.489</gom:rel_alt></extensions></trkpt>
   <trkpt lat="59.0921935553" lon="29.954197111"><ele>92.0</ele><time>2026-04-25T13:55:06.640Z</time><hdop>3.0</hdop><vdop>1.625</vdop><extensions><gom:speed>0.902</gom:speed><gom:rel_alt>252.732</gom:rel_alt></extensions></trkpt>
   <trkpt lat="59.0922839541" lon="29.9542221729"><ele>91.311</ele><time>2026-04-25T13:55:17.405Z</time><hdop>3.0</hdop><vdop>1.375</vdop><extensions><gom:speed>1.017</gom:speed><gom:rel_alt>252.431</gom:rel_alt></extensions></trkpt>
   <trkpt lat="59.0923743529" lon="29.9542397749"><ele>92.186</ele><time>2026-04-25T13:55:27.399Z</time><hdop>3.0</hdop><vdop>1.75</vdop><extensions><gom:speed>0.846</gom:speed><gom:rel_alt>252.949</gom:rel_alt></extensions></trkpt>
   <trkpt lat="59.0924233452" lon="29.9543891404"><ele>91.955</ele><time>2026-04-25T13:55:40.028Z</time><hdop>3.0</hdop><vdop>1.625</vdop><extensions><gom:speed>0.784</gom:speed><gom:rel_alt>252.959</gom:rel_alt></extensions></trkpt>
   <trkpt lat="59.0926950446" lon="29.9549177032"><ele>91.83</ele><time>2026-04-25T13:59:40.634Z</time><hdop>5.0</hdop><vdop>1.5</vdop><extensions><gom:speed>0.638</gom:speed><gom:rel_alt>253.144</gom:rel_alt></extensions></trkpt>
   <trkpt lat="59.0927811267" lon="29.9549773824"><ele>91.902</ele><time>2026-04-25T13:59:53.632Z</time><hdop>3.25</hdop><vdop>1.5</vdop><extensions><gom:speed>1.06</gom:speed><gom:rel_alt>253.16</gom:rel_alt></extensions></trkpt>
   <trkpt lat="59.0928669574" lon="29.9550330382"><ele>92.187</ele><time>2026-04-25T14:00:04.761Z</time><hdop>3.0</hdop><vdop>1.5</vdop><extensions><gom:speed>0.865</gom:speed><gom:rel_alt>252.856</gom:rel_alt></extensions></trkpt>
   <trkpt lat="59.0929509441" lon="29.9551105708"><ele>91.151</ele><time>2026-04-25T14:00:21.282Z</time><hdop>3.0</hdop><vdop>1.5</vdop><extensions><gom:speed>0.859</gom:speed><gom:rel_alt>252.581</gom:rel_alt></extensions></trkpt>
   <trkpt lat="59.0930280576" lon="29.9552016821"><ele>91.942</ele><time>2026-04-25T14:00:30.544Z</time><hdop>3.0</hdop><vdop>1.625</vdop><extensions><gom:speed>1.071</gom:speed><gom:rel_alt>252.357</gom:rel_alt></extensions></trkpt>
   <trkpt lat="59.0931134273" lon="29.955259182"><ele>91.17</ele><time>2026-04-25T14:00:42.633Z</time><hdop>3.0</hdop><vdop>1.375</vdop><extensions><gom:speed>0.977</gom:speed><gom:rel_alt>252.579</gom:rel_alt></extensions></trkpt>
   <trkpt lat="59.093204329" lon="29.9552590981"><ele>91.485</ele><time>2026-04-25T14:00:52.633Z</time><hdop>3.0</hdop><vdop>1.5</vdop><extensions><gom:speed>0.927</gom:speed><gom:rel_alt>252.402</gom:rel_alt></extensions></trkpt>
   <trkpt lat="59.0932970328" lon="29.9552520573"><ele>90.908</ele><time>2026-04-25T14:01:06.632Z</time><hdop>3.0</hdop><vdop>1.5</vdop><extensions><gom:speed>0.828</gom:speed><gom:rel_alt>252.529</gom:rel_alt></extensions></trkpt>
   <trkpt lat="59.0933859229" lon="29.9552969005"><ele>90.33</ele><time>2026-04-25T14:01:22.632Z</time><hdop>3.0</hdop><vdop>1.5</vdop><extensions><gom:speed>0.481</gom:speed><gom:rel_alt>252.103</gom:rel_alt></extensions></trkpt>
   <trkpt lat="59.0934427522" lon="29.9554477748"><ele>90.315</ele><time>2026-04-25T14:01:42.632Z</time><hdop>3.0</hdop><vdop>1.5</vdop><extensions><gom:speed>0.937</gom:speed><gom:rel_alt>251.902</gom:rel_alt></extensions></trkpt>
   <trkpt lat="59.0935295468" lon="29.9555146624"><ele>90.474</ele><time>2026-04-25T14:01:50.632Z</time><hdop>3.0</hdop><vdop>1.625</vdop><extensions><gom:speed>1.123</gom:speed><gom:rel_alt>251.458</gom:rel_alt></extensions></trkpt>
   <trkpt lat="59.0936176406" lon="29.9555860762"><ele>90.73</ele><time>2026-04-25T14:02:02.426Z</time><hdop>3.0</hdop><vdop>1.625</vdop><extensions><gom:speed>0.976</gom:speed><gom:rel_alt>251.487</gom:rel_alt></extensions></trkpt>
   <trkpt lat="59.0936882163" lon="29.9556999024"><ele>90.525</ele><time>2026-04-25T14:02:15.347Z</time><hdop>3.0</hdop><vdop>1.5</vdop><extensions><gom:speed>1.013</gom:speed><gom:rel_alt>251.337</gom:rel_alt></extensions></trkpt>
   <trkpt lat="59.0937770225" lon="29.9557322566"><ele>90.311</ele><time>2026-04-25T14:02:27.281Z</time><hdop>3.0</hdop><vdop>1.625</vdop><extensions><gom:speed>1.082</gom:speed><gom:rel_alt>251.337</gom:rel_alt></extensions></trkpt>
   <trkpt lat="59.0938705227" lon="29.9557316698"><ele>90.623</ele><time>2026-04-25T14:02:35.444Z</time><hdop>3.0</hdop><vdop>1.5</vdop><extensions><gom:speed>1.042</gom:speed><gom:rel_alt>251.014</gom:rel_alt></extensions></trkpt>
   <trkpt lat="59.0939615501" lon="29.9557539657"><ele>90.611</ele><time>2026-04-25T14:02:45.633Z</time><hdop>3.0</hdop><vdop>1.625</vdop><extensions><gom:speed>1.05</gom:speed><gom:rel_alt>250.904</gom:rel_alt></extensions></trkpt>
   <trkpt lat="59.094053332" lon="29.9557572347"><ele>90.687</ele><time>2026-04-25T14:02:55.289Z</time><hdop>3.0</hdop><vdop>1.625</vdop><extensions><gom:speed>1.086</gom:speed><gom:rel_alt>251.48</gom:rel_alt></extensions></trkpt>
   <trkpt lat="59.094147335" lon="29.9557766807"><ele>90.042</ele><time>2026-04-25T14:03:06.308Z</time><hdop>3.0</hdop><vdop>1.375</vdop><extensions><gom:speed>1.124</gom:speed><gom:rel_alt>251.271</gom:rel_alt></extensions></trkpt>
   <trkpt lat="59.0942373567" lon="29.9557793629"><ele>90.958</ele><time>2026-04-25T14:03:15.633Z</time><hdop>3.0</hdop><vdop>1.5</vdop><extensions><gom:speed>0.984</gom:speed><gom:rel_alt>251.691</gom:rel_alt></extensions></trkpt>
   <trkpt lat="59.0943237322" lon="29.9558285646"><ele>90.13</ele><time>2026-04-25T14:03:29.632Z</time><hdop>3.0</hdop><vdop>1.75</vdop><extensions><gom:speed>0.781</gom:speed><gom:rel_alt>251.63</gom:rel_alt></extensions></trkpt>
   <trkpt lat="59.094410443" lon="29.9558744137"><ele>90.313</ele><time>2026-04-25T14:03:40.242Z</time><hdop>3.0</hdop><vdop>1.625</vdop><extensions><gom:speed>1.011</gom:speed><gom:rel_alt>251.205</gom:rel_alt></extensions></trkpt>
   <trkpt lat="59.0944798451" lon="29.9559874017"><ele>89.784</ele><time>2026-04-25T14:03:50.632Z</time><hdop>3.0</hdop><vdop>1.375</vdop><extensions><gom:speed>0.923</gom:speed><gom:rel_alt>251.054</gom:rel_alt></extensions></trkpt>
   <trkpt lat="59.0945666397" lon="29.9560435605"><ele>89.785</ele><time>2026-04-25T14:04:09.633Z</time><hdop>3.0</hdop><vdop>1.625</vdop><extensions><gom:speed>0.609</gom:speed><gom:rel_alt>250.581</gom:rel_alt></extensions></trkpt>
   <trkpt lat="59.0946580444" lon="29.956084548"><ele>90.18</ele><time>2026-04-25T14:04:19.634Z</time><hdop>3.0</hdop><vdop>1.625</vdop><extensions><gom:speed>0.791</gom:speed><gom:rel_alt>250.462</gom:rel_alt></extensions></trkpt>
   <trkpt lat="59.0947475212" lon="29.956124362"><ele>89.685</ele><time>2026-04-25T14:04:31.633Z</time><hdop>3.0</hdop><vdop>1.5</vdop><extensions><gom:speed>0.588</gom:speed><gom:rel_alt>250.861</gom:rel_alt></extensions></trkpt>
   <trkpt lat="59.0937577442" lon="29.9676988483"><ele>89.383</ele><time>2026-04-25T14:13:54.037Z</time><hdop>5.75</hdop><vdop>1.625</vdop><extensions><gom:speed>3.198</gom:speed><gom:rel_alt>251.342</gom:rel_alt></extensions></trkpt>
   <trkpt lat="59.0937496556" lon="29.9679109104"><ele>89.404</ele><time>2026-04-25T14:13:57.012Z</time><hdop>6.875</hdop><vdop>1.75</vdop><extensions><gom:speed>1.294</gom:speed><gom:rel_alt>251.369</gom:rel_alt></extensions></trkpt>
   <trkpt lat="59.093732347" lon="29.9680826556"><ele>88.978</ele><time>2026-04-25T14:14:04.448Z</time><hdop>4.125</hdop><vdop>1.5</vdop><extensions><gom:speed>1.356</gom:speed><gom:rel_alt>250.613</gom:rel_alt></extensions></trkpt>
   <trkpt lat="59.0937094225" lon="29.9682595138"><ele>88.34</ele><time>2026-04-25T14:14:11.990Z</time><hdop>3.0</hdop><vdop>1.5</vdop><extensions><gom:speed>1.243</gom:speed><gom:rel_alt>250.7</gom:rel_alt></extensions></trkpt>
  </trkseg>
 </trk>
</gpx>